<?xml version="1.0" encoding="UTF-8" standalone="no" ?>
<gpx xmlns="http://www.topografix.com/GPX/1/1" xmlns:xsi="http://www.w3.org/2001/XMLSchema-instance" xsi:schemaLocation="http://www.topografix.com/GPX/1/1 http://www.topografix.com/GPX/1/1/gpx.xsd" version="1.1" creator="VisuGPX - https://www.visugpx.com">
  <metadata>
    <name>Fourcès Castelnau Gers 20-09-2022</name>
  </metadata>
  <trk>
    <name><![CDATA[T2022-09-20-12-51]]></name>
    <extensions>
      <line xmlns="http://www.topografix.com/GPX/gpx_style/0/2">
        <color>0000FF</color>
        <width>4</width>
      </line>
    </extensions>
    <trkseg>
      <trkpt lat="43.99275" lon="0.22842">
        <ele>78</ele>
        <time>2022-09-20T07:18:23Z</time>
      </trkpt>
      <trkpt lat="43.99272" lon="0.22837">
        <ele>75</ele>
        <time>2022-09-20T07:18:30Z</time>
      </trkpt>
      <trkpt lat="43.99274" lon="0.22832">
        <ele>67.8</ele>
        <time>2022-09-20T07:18:44Z</time>
      </trkpt>
      <trkpt lat="43.99279" lon="0.22832">
        <ele>66.2</ele>
        <time>2022-09-20T07:23:05Z</time>
      </trkpt>
      <trkpt lat="43.99282" lon="0.22838">
        <ele>67</ele>
        <time>2022-09-20T07:23:11Z</time>
      </trkpt>
      <trkpt lat="43.99284" lon="0.22845">
        <ele>67.5</ele>
        <time>2022-09-20T07:23:16Z</time>
      </trkpt>
      <trkpt lat="43.99285" lon="0.22852">
        <ele>68.3</ele>
        <time>2022-09-20T07:23:21Z</time>
      </trkpt>
      <trkpt lat="43.99284" lon="0.22858">
        <ele>69.1</ele>
        <time>2022-09-20T07:23:27Z</time>
      </trkpt>
      <trkpt lat="43.99281" lon="0.22864">
        <ele>69.8</ele>
        <time>2022-09-20T07:23:32Z</time>
      </trkpt>
      <trkpt lat="43.99277" lon="0.2287">
        <ele>70.1</ele>
        <time>2022-09-20T07:23:36Z</time>
      </trkpt>
      <trkpt lat="43.99274" lon="0.22876">
        <ele>70.6</ele>
        <time>2022-09-20T07:23:40Z</time>
      </trkpt>
      <trkpt lat="43.99272" lon="0.22882">
        <ele>70.5</ele>
        <time>2022-09-20T07:23:45Z</time>
      </trkpt>
      <trkpt lat="43.99269" lon="0.22889">
        <ele>70.6</ele>
        <time>2022-09-20T07:23:50Z</time>
      </trkpt>
      <trkpt lat="43.99266" lon="0.22893">
        <ele>70.8</ele>
        <time>2022-09-20T07:23:55Z</time>
      </trkpt>
      <trkpt lat="43.99262" lon="0.22896">
        <ele>70.7</ele>
        <time>2022-09-20T07:24:01Z</time>
      </trkpt>
      <trkpt lat="43.99257" lon="0.22896">
        <ele>70.8</ele>
        <time>2022-09-20T07:24:07Z</time>
      </trkpt>
      <trkpt lat="43.99252" lon="0.22897">
        <ele>71</ele>
        <time>2022-09-20T07:24:12Z</time>
      </trkpt>
      <trkpt lat="43.99248" lon="0.22901">
        <ele>71.2</ele>
        <time>2022-09-20T07:24:16Z</time>
      </trkpt>
      <trkpt lat="43.99244" lon="0.22906">
        <ele>71.2</ele>
        <time>2022-09-20T07:24:21Z</time>
      </trkpt>
      <trkpt lat="43.9924" lon="0.2291">
        <ele>70.6</ele>
        <time>2022-09-20T07:24:28Z</time>
      </trkpt>
      <trkpt lat="43.99237" lon="0.22917">
        <ele>67.3</ele>
        <time>2022-09-20T07:24:58Z</time>
      </trkpt>
      <trkpt lat="43.99236" lon="0.22923">
        <ele>66.6</ele>
        <time>2022-09-20T07:25:03Z</time>
      </trkpt>
      <trkpt lat="43.99237" lon="0.22929">
        <ele>64.4</ele>
        <time>2022-09-20T07:25:09Z</time>
      </trkpt>
      <trkpt lat="43.99238" lon="0.22935">
        <ele>62.9</ele>
        <time>2022-09-20T07:25:13Z</time>
      </trkpt>
      <trkpt lat="43.9924" lon="0.22942">
        <ele>61.4</ele>
        <time>2022-09-20T07:25:18Z</time>
      </trkpt>
      <trkpt lat="43.99241" lon="0.22949">
        <ele>59.8</ele>
        <time>2022-09-20T07:25:24Z</time>
      </trkpt>
      <trkpt lat="43.99241" lon="0.22956">
        <ele>58.8</ele>
        <time>2022-09-20T07:25:28Z</time>
      </trkpt>
      <trkpt lat="43.99242" lon="0.22963">
        <ele>58.5</ele>
        <time>2022-09-20T07:25:31Z</time>
      </trkpt>
      <trkpt lat="43.99239" lon="0.22967">
        <ele>58</ele>
        <time>2022-09-20T07:25:41Z</time>
      </trkpt>
      <trkpt lat="43.99235" lon="0.22964">
        <ele>57.7</ele>
        <time>2022-09-20T07:25:48Z</time>
      </trkpt>
      <trkpt lat="43.9923" lon="0.22961">
        <ele>57.5</ele>
        <time>2022-09-20T07:25:53Z</time>
      </trkpt>
      <trkpt lat="43.99219" lon="0.2299">
        <ele>58.9</ele>
        <time>2022-09-20T07:26:17Z</time>
      </trkpt>
      <trkpt lat="43.99222" lon="0.22997">
        <ele>59.9</ele>
        <time>2022-09-20T07:26:20Z</time>
      </trkpt>
      <trkpt lat="43.99227" lon="0.23001">
        <ele>62.3</ele>
        <time>2022-09-20T07:26:23Z</time>
      </trkpt>
      <trkpt lat="43.99231" lon="0.23004">
        <ele>65.9</ele>
        <time>2022-09-20T07:26:27Z</time>
      </trkpt>
      <trkpt lat="43.99234" lon="0.23011">
        <ele>70.5</ele>
        <time>2022-09-20T07:26:35Z</time>
      </trkpt>
      <trkpt lat="43.99231" lon="0.23018">
        <ele>72</ele>
        <time>2022-09-20T07:26:39Z</time>
      </trkpt>
      <trkpt lat="43.99231" lon="0.23025">
        <ele>73.6</ele>
        <time>2022-09-20T07:26:44Z</time>
      </trkpt>
      <trkpt lat="43.99229" lon="0.23031">
        <ele>75.2</ele>
        <time>2022-09-20T07:26:48Z</time>
      </trkpt>
      <trkpt lat="43.99225" lon="0.23037">
        <ele>76</ele>
        <time>2022-09-20T07:26:52Z</time>
      </trkpt>
      <trkpt lat="43.99224" lon="0.23043">
        <ele>75.9</ele>
        <time>2022-09-20T07:26:57Z</time>
      </trkpt>
      <trkpt lat="43.99227" lon="0.23048">
        <ele>75.1</ele>
        <time>2022-09-20T07:27:05Z</time>
      </trkpt>
      <trkpt lat="43.99229" lon="0.23054">
        <ele>74.3</ele>
        <time>2022-09-20T07:27:10Z</time>
      </trkpt>
      <trkpt lat="43.99229" lon="0.23061">
        <ele>72.6</ele>
        <time>2022-09-20T07:27:15Z</time>
      </trkpt>
      <trkpt lat="43.99228" lon="0.23067">
        <ele>70.3</ele>
        <time>2022-09-20T07:27:24Z</time>
      </trkpt>
      <trkpt lat="43.9923" lon="0.23075">
        <ele>68.7</ele>
        <time>2022-09-20T07:28:31Z</time>
      </trkpt>
      <trkpt lat="43.99233" lon="0.23079">
        <ele>67</ele>
        <time>2022-09-20T07:28:37Z</time>
      </trkpt>
      <trkpt lat="43.99238" lon="0.23079">
        <ele>67.3</ele>
        <time>2022-09-20T07:28:50Z</time>
      </trkpt>
      <trkpt lat="43.99242" lon="0.23083">
        <ele>68</ele>
        <time>2022-09-20T07:28:55Z</time>
      </trkpt>
      <trkpt lat="43.99245" lon="0.23089">
        <ele>68.5</ele>
        <time>2022-09-20T07:29:00Z</time>
      </trkpt>
      <trkpt lat="43.99247" lon="0.23096">
        <ele>69</ele>
        <time>2022-09-20T07:29:05Z</time>
      </trkpt>
      <trkpt lat="43.99249" lon="0.23102">
        <ele>69.1</ele>
        <time>2022-09-20T07:29:09Z</time>
      </trkpt>
      <trkpt lat="43.99248" lon="0.23108">
        <ele>69.2</ele>
        <time>2022-09-20T07:29:13Z</time>
      </trkpt>
      <trkpt lat="43.99247" lon="0.23115">
        <ele>69</ele>
        <time>2022-09-20T07:29:18Z</time>
      </trkpt>
      <trkpt lat="43.99245" lon="0.23121">
        <ele>69.2</ele>
        <time>2022-09-20T07:29:23Z</time>
      </trkpt>
      <trkpt lat="43.99245" lon="0.23128">
        <ele>69.8</ele>
        <time>2022-09-20T07:29:27Z</time>
      </trkpt>
      <trkpt lat="43.99244" lon="0.23136">
        <ele>70.3</ele>
        <time>2022-09-20T07:29:32Z</time>
      </trkpt>
      <trkpt lat="43.99245" lon="0.23143">
        <ele>70.6</ele>
        <time>2022-09-20T07:29:36Z</time>
      </trkpt>
      <trkpt lat="43.99243" lon="0.23149">
        <ele>70.7</ele>
        <time>2022-09-20T07:29:40Z</time>
      </trkpt>
      <trkpt lat="43.99243" lon="0.23156">
        <ele>70.3</ele>
        <time>2022-09-20T07:29:46Z</time>
      </trkpt>
      <trkpt lat="43.99242" lon="0.23163">
        <ele>69.8</ele>
        <time>2022-09-20T07:29:51Z</time>
      </trkpt>
      <trkpt lat="43.9924" lon="0.23169">
        <ele>69.4</ele>
        <time>2022-09-20T07:29:55Z</time>
      </trkpt>
      <trkpt lat="43.99236" lon="0.23174">
        <ele>68.8</ele>
        <time>2022-09-20T07:30:00Z</time>
      </trkpt>
      <trkpt lat="43.99231" lon="0.23175">
        <ele>68.2</ele>
        <time>2022-09-20T07:30:06Z</time>
      </trkpt>
      <trkpt lat="43.99228" lon="0.23179">
        <ele>67.9</ele>
        <time>2022-09-20T07:30:15Z</time>
      </trkpt>
      <trkpt lat="43.99223" lon="0.23176">
        <ele>67.1</ele>
        <time>2022-09-20T07:30:24Z</time>
      </trkpt>
      <trkpt lat="43.99218" lon="0.23174">
        <ele>66.5</ele>
        <time>2022-09-20T07:30:29Z</time>
      </trkpt>
      <trkpt lat="43.99213" lon="0.23172">
        <ele>66</ele>
        <time>2022-09-20T07:30:34Z</time>
      </trkpt>
      <trkpt lat="43.99209" lon="0.23171">
        <ele>66.2</ele>
        <time>2022-09-20T07:30:40Z</time>
      </trkpt>
      <trkpt lat="43.99204" lon="0.23168">
        <ele>66.7</ele>
        <time>2022-09-20T07:30:46Z</time>
      </trkpt>
      <trkpt lat="43.992" lon="0.23171">
        <ele>67.4</ele>
        <time>2022-09-20T07:30:51Z</time>
      </trkpt>
      <trkpt lat="43.99196" lon="0.23175">
        <ele>67.9</ele>
        <time>2022-09-20T07:30:55Z</time>
      </trkpt>
      <trkpt lat="43.99194" lon="0.23181">
        <ele>68.8</ele>
        <time>2022-09-20T07:30:59Z</time>
      </trkpt>
      <trkpt lat="43.99191" lon="0.23187">
        <ele>69.5</ele>
        <time>2022-09-20T07:31:04Z</time>
      </trkpt>
      <trkpt lat="43.99188" lon="0.23193">
        <ele>69.5</ele>
        <time>2022-09-20T07:31:10Z</time>
      </trkpt>
      <trkpt lat="43.99184" lon="0.23195">
        <ele>68.8</ele>
        <time>2022-09-20T07:31:15Z</time>
      </trkpt>
      <trkpt lat="43.99179" lon="0.23197">
        <ele>68.6</ele>
        <time>2022-09-20T07:31:19Z</time>
      </trkpt>
      <trkpt lat="43.99174" lon="0.232">
        <ele>68.6</ele>
        <time>2022-09-20T07:31:23Z</time>
      </trkpt>
      <trkpt lat="43.99169" lon="0.23202">
        <ele>69.1</ele>
        <time>2022-09-20T07:31:28Z</time>
      </trkpt>
      <trkpt lat="43.99164" lon="0.23203">
        <ele>68.8</ele>
        <time>2022-09-20T07:31:32Z</time>
      </trkpt>
      <trkpt lat="43.99159" lon="0.23205">
        <ele>68.5</ele>
        <time>2022-09-20T07:31:36Z</time>
      </trkpt>
      <trkpt lat="43.99155" lon="0.23207">
        <ele>68.5</ele>
        <time>2022-09-20T07:31:39Z</time>
      </trkpt>
      <trkpt lat="43.9915" lon="0.23208">
        <ele>68.3</ele>
        <time>2022-09-20T07:31:43Z</time>
      </trkpt>
      <trkpt lat="43.99146" lon="0.2321">
        <ele>68.2</ele>
        <time>2022-09-20T07:31:47Z</time>
      </trkpt>
      <trkpt lat="43.99141" lon="0.23213">
        <ele>68</ele>
        <time>2022-09-20T07:31:52Z</time>
      </trkpt>
      <trkpt lat="43.99136" lon="0.23214">
        <ele>67.9</ele>
        <time>2022-09-20T07:31:56Z</time>
      </trkpt>
      <trkpt lat="43.99132" lon="0.23216">
        <ele>68.2</ele>
        <time>2022-09-20T07:32:00Z</time>
      </trkpt>
      <trkpt lat="43.99126" lon="0.23217">
        <ele>69</ele>
        <time>2022-09-20T07:32:05Z</time>
      </trkpt>
      <trkpt lat="43.99121" lon="0.23218">
        <ele>69.6</ele>
        <time>2022-09-20T07:32:09Z</time>
      </trkpt>
      <trkpt lat="43.99117" lon="0.23219">
        <ele>70.1</ele>
        <time>2022-09-20T07:32:13Z</time>
      </trkpt>
      <trkpt lat="43.99112" lon="0.2322">
        <ele>71</ele>
        <time>2022-09-20T07:32:17Z</time>
      </trkpt>
      <trkpt lat="43.99107" lon="0.2322">
        <ele>71.9</ele>
        <time>2022-09-20T07:32:21Z</time>
      </trkpt>
      <trkpt lat="43.99101" lon="0.2322">
        <ele>72.6</ele>
        <time>2022-09-20T07:32:26Z</time>
      </trkpt>
      <trkpt lat="43.99097" lon="0.2322">
        <ele>72.9</ele>
        <time>2022-09-20T07:32:30Z</time>
      </trkpt>
      <trkpt lat="43.99091" lon="0.2322">
        <ele>72.9</ele>
        <time>2022-09-20T07:32:34Z</time>
      </trkpt>
      <trkpt lat="43.99086" lon="0.2322">
        <ele>72.6</ele>
        <time>2022-09-20T07:32:37Z</time>
      </trkpt>
      <trkpt lat="43.99081" lon="0.2322">
        <ele>71.9</ele>
        <time>2022-09-20T07:32:41Z</time>
      </trkpt>
      <trkpt lat="43.99075" lon="0.2322">
        <ele>70.9</ele>
        <time>2022-09-20T07:32:46Z</time>
      </trkpt>
      <trkpt lat="43.9907" lon="0.23218">
        <ele>69.8</ele>
        <time>2022-09-20T07:32:51Z</time>
      </trkpt>
      <trkpt lat="43.99066" lon="0.23217">
        <ele>69</ele>
        <time>2022-09-20T07:32:55Z</time>
      </trkpt>
      <trkpt lat="43.99061" lon="0.23216">
        <ele>68.4</ele>
        <time>2022-09-20T07:32:59Z</time>
      </trkpt>
      <trkpt lat="43.99056" lon="0.23215">
        <ele>68.1</ele>
        <time>2022-09-20T07:33:03Z</time>
      </trkpt>
      <trkpt lat="43.9905" lon="0.23213">
        <ele>67.9</ele>
        <time>2022-09-20T07:33:08Z</time>
      </trkpt>
      <trkpt lat="43.99045" lon="0.23212">
        <ele>68.2</ele>
        <time>2022-09-20T07:33:13Z</time>
      </trkpt>
      <trkpt lat="43.9904" lon="0.23212">
        <ele>68.8</ele>
        <time>2022-09-20T07:33:17Z</time>
      </trkpt>
      <trkpt lat="43.99035" lon="0.23209">
        <ele>69</ele>
        <time>2022-09-20T07:33:20Z</time>
      </trkpt>
      <trkpt lat="43.9903" lon="0.23207">
        <ele>68.9</ele>
        <time>2022-09-20T07:33:24Z</time>
      </trkpt>
      <trkpt lat="43.99025" lon="0.23205">
        <ele>68.7</ele>
        <time>2022-09-20T07:33:28Z</time>
      </trkpt>
      <trkpt lat="43.9902" lon="0.23204">
        <ele>68.4</ele>
        <time>2022-09-20T07:33:32Z</time>
      </trkpt>
      <trkpt lat="43.99015" lon="0.23203">
        <ele>67.9</ele>
        <time>2022-09-20T07:33:36Z</time>
      </trkpt>
      <trkpt lat="43.9901" lon="0.23201">
        <ele>67.6</ele>
        <time>2022-09-20T07:33:40Z</time>
      </trkpt>
      <trkpt lat="43.99005" lon="0.23199">
        <ele>67.5</ele>
        <time>2022-09-20T07:33:45Z</time>
      </trkpt>
      <trkpt lat="43.99" lon="0.23197">
        <ele>67.1</ele>
        <time>2022-09-20T07:33:49Z</time>
      </trkpt>
      <trkpt lat="43.98995" lon="0.23196">
        <ele>66.2</ele>
        <time>2022-09-20T07:33:53Z</time>
      </trkpt>
      <trkpt lat="43.9899" lon="0.23195">
        <ele>65.3</ele>
        <time>2022-09-20T07:33:57Z</time>
      </trkpt>
      <trkpt lat="43.98985" lon="0.23194">
        <ele>65.1</ele>
        <time>2022-09-20T07:34:01Z</time>
      </trkpt>
      <trkpt lat="43.9898" lon="0.23194">
        <ele>65</ele>
        <time>2022-09-20T07:34:05Z</time>
      </trkpt>
      <trkpt lat="43.98974" lon="0.23191">
        <ele>66.7</ele>
        <time>2022-09-20T07:34:51Z</time>
      </trkpt>
      <trkpt lat="43.98969" lon="0.23193">
        <ele>67.9</ele>
        <time>2022-09-20T07:34:58Z</time>
      </trkpt>
      <trkpt lat="43.98964" lon="0.23194">
        <ele>68.6</ele>
        <time>2022-09-20T07:35:04Z</time>
      </trkpt>
      <trkpt lat="43.9896" lon="0.23195">
        <ele>69.3</ele>
        <time>2022-09-20T07:35:09Z</time>
      </trkpt>
      <trkpt lat="43.98955" lon="0.23196">
        <ele>70.3</ele>
        <time>2022-09-20T07:35:16Z</time>
      </trkpt>
      <trkpt lat="43.9895" lon="0.23196">
        <ele>70.9</ele>
        <time>2022-09-20T07:35:23Z</time>
      </trkpt>
      <trkpt lat="43.98945" lon="0.23196">
        <ele>71.1</ele>
        <time>2022-09-20T07:35:29Z</time>
      </trkpt>
      <trkpt lat="43.9894" lon="0.23195">
        <ele>71.1</ele>
        <time>2022-09-20T07:35:34Z</time>
      </trkpt>
      <trkpt lat="43.98935" lon="0.23194">
        <ele>71.4</ele>
        <time>2022-09-20T07:35:39Z</time>
      </trkpt>
      <trkpt lat="43.9893" lon="0.23195">
        <ele>71.7</ele>
        <time>2022-09-20T07:35:46Z</time>
      </trkpt>
      <trkpt lat="43.98925" lon="0.23197">
        <ele>72.2</ele>
        <time>2022-09-20T07:35:52Z</time>
      </trkpt>
      <trkpt lat="43.98921" lon="0.23202">
        <ele>72.7</ele>
        <time>2022-09-20T07:35:57Z</time>
      </trkpt>
      <trkpt lat="43.98919" lon="0.23208">
        <ele>73.9</ele>
        <time>2022-09-20T07:36:04Z</time>
      </trkpt>
      <trkpt lat="43.98919" lon="0.23214">
        <ele>74.8</ele>
        <time>2022-09-20T07:36:09Z</time>
      </trkpt>
      <trkpt lat="43.98918" lon="0.23221">
        <ele>75.7</ele>
        <time>2022-09-20T07:36:13Z</time>
      </trkpt>
      <trkpt lat="43.98916" lon="0.23227">
        <ele>76.3</ele>
        <time>2022-09-20T07:36:17Z</time>
      </trkpt>
      <trkpt lat="43.98915" lon="0.23233">
        <ele>76.2</ele>
        <time>2022-09-20T07:36:23Z</time>
      </trkpt>
      <trkpt lat="43.98913" lon="0.23241">
        <ele>75.9</ele>
        <time>2022-09-20T07:36:29Z</time>
      </trkpt>
      <trkpt lat="43.9891" lon="0.23247">
        <ele>76.1</ele>
        <time>2022-09-20T07:36:33Z</time>
      </trkpt>
      <trkpt lat="43.98908" lon="0.23253">
        <ele>76.8</ele>
        <time>2022-09-20T07:36:38Z</time>
      </trkpt>
      <trkpt lat="43.98906" lon="0.23259">
        <ele>77.6</ele>
        <time>2022-09-20T07:36:44Z</time>
      </trkpt>
      <trkpt lat="43.98905" lon="0.23266">
        <ele>78.3</ele>
        <time>2022-09-20T07:36:50Z</time>
      </trkpt>
      <trkpt lat="43.98903" lon="0.23273">
        <ele>79.2</ele>
        <time>2022-09-20T07:36:56Z</time>
      </trkpt>
      <trkpt lat="43.989" lon="0.2328">
        <ele>79.7</ele>
        <time>2022-09-20T07:37:02Z</time>
      </trkpt>
      <trkpt lat="43.989" lon="0.23287">
        <ele>80.3</ele>
        <time>2022-09-20T07:37:07Z</time>
      </trkpt>
      <trkpt lat="43.98897" lon="0.23292">
        <ele>80.7</ele>
        <time>2022-09-20T07:37:12Z</time>
      </trkpt>
      <trkpt lat="43.98895" lon="0.23298">
        <ele>80.8</ele>
        <time>2022-09-20T07:37:17Z</time>
      </trkpt>
      <trkpt lat="43.98892" lon="0.23303">
        <ele>81.1</ele>
        <time>2022-09-20T07:37:24Z</time>
      </trkpt>
      <trkpt lat="43.98887" lon="0.23306">
        <ele>82.3</ele>
        <time>2022-09-20T07:37:34Z</time>
      </trkpt>
      <trkpt lat="43.98881" lon="0.23308">
        <ele>83.4</ele>
        <time>2022-09-20T07:37:39Z</time>
      </trkpt>
      <trkpt lat="43.98877" lon="0.23309">
        <ele>84.5</ele>
        <time>2022-09-20T07:37:44Z</time>
      </trkpt>
      <trkpt lat="43.98871" lon="0.23308">
        <ele>85.9</ele>
        <time>2022-09-20T07:37:50Z</time>
      </trkpt>
      <trkpt lat="43.98866" lon="0.23309">
        <ele>87.4</ele>
        <time>2022-09-20T07:37:55Z</time>
      </trkpt>
      <trkpt lat="43.9886" lon="0.2331">
        <ele>88.9</ele>
        <time>2022-09-20T07:38:00Z</time>
      </trkpt>
      <trkpt lat="43.98855" lon="0.2331">
        <ele>89.8</ele>
        <time>2022-09-20T07:38:04Z</time>
      </trkpt>
      <trkpt lat="43.9885" lon="0.23311">
        <ele>90.7</ele>
        <time>2022-09-20T07:38:08Z</time>
      </trkpt>
      <trkpt lat="43.98845" lon="0.23313">
        <ele>91.4</ele>
        <time>2022-09-20T07:38:13Z</time>
      </trkpt>
      <trkpt lat="43.98841" lon="0.23317">
        <ele>91.7</ele>
        <time>2022-09-20T07:38:17Z</time>
      </trkpt>
      <trkpt lat="43.98837" lon="0.2332">
        <ele>91.6</ele>
        <time>2022-09-20T07:38:22Z</time>
      </trkpt>
      <trkpt lat="43.98831" lon="0.23322">
        <ele>91.5</ele>
        <time>2022-09-20T07:38:27Z</time>
      </trkpt>
      <trkpt lat="43.98827" lon="0.23324">
        <ele>91.9</ele>
        <time>2022-09-20T07:38:31Z</time>
      </trkpt>
      <trkpt lat="43.98821" lon="0.23325">
        <ele>92.2</ele>
        <time>2022-09-20T07:38:37Z</time>
      </trkpt>
      <trkpt lat="43.98817" lon="0.23328">
        <ele>92.1</ele>
        <time>2022-09-20T07:38:41Z</time>
      </trkpt>
      <trkpt lat="43.98812" lon="0.23331">
        <ele>92.2</ele>
        <time>2022-09-20T07:38:46Z</time>
      </trkpt>
      <trkpt lat="43.98807" lon="0.23333">
        <ele>92.4</ele>
        <time>2022-09-20T07:38:51Z</time>
      </trkpt>
      <trkpt lat="43.98803" lon="0.23333">
        <ele>92.2</ele>
        <time>2022-09-20T07:38:56Z</time>
      </trkpt>
      <trkpt lat="43.98797" lon="0.23334">
        <ele>92.1</ele>
        <time>2022-09-20T07:39:01Z</time>
      </trkpt>
      <trkpt lat="43.98792" lon="0.23335">
        <ele>92.3</ele>
        <time>2022-09-20T07:39:06Z</time>
      </trkpt>
      <trkpt lat="43.98787" lon="0.23337">
        <ele>92.3</ele>
        <time>2022-09-20T07:39:10Z</time>
      </trkpt>
      <trkpt lat="43.98782" lon="0.23337">
        <ele>92.8</ele>
        <time>2022-09-20T07:39:15Z</time>
      </trkpt>
      <trkpt lat="43.98777" lon="0.23337">
        <ele>93</ele>
        <time>2022-09-20T07:39:19Z</time>
      </trkpt>
      <trkpt lat="43.98773" lon="0.23335">
        <ele>92.9</ele>
        <time>2022-09-20T07:39:24Z</time>
      </trkpt>
      <trkpt lat="43.98768" lon="0.23332">
        <ele>92.4</ele>
        <time>2022-09-20T07:39:28Z</time>
      </trkpt>
      <trkpt lat="43.98763" lon="0.2333">
        <ele>92.1</ele>
        <time>2022-09-20T07:39:32Z</time>
      </trkpt>
      <trkpt lat="43.98757" lon="0.23329">
        <ele>91.7</ele>
        <time>2022-09-20T07:39:36Z</time>
      </trkpt>
      <trkpt lat="43.98752" lon="0.23328">
        <ele>91.2</ele>
        <time>2022-09-20T07:39:40Z</time>
      </trkpt>
      <trkpt lat="43.98746" lon="0.23327">
        <ele>91</ele>
        <time>2022-09-20T07:39:45Z</time>
      </trkpt>
      <trkpt lat="43.98741" lon="0.23326">
        <ele>91.2</ele>
        <time>2022-09-20T07:39:50Z</time>
      </trkpt>
      <trkpt lat="43.98736" lon="0.23327">
        <ele>91.4</ele>
        <time>2022-09-20T07:39:54Z</time>
      </trkpt>
      <trkpt lat="43.98731" lon="0.23327">
        <ele>91.2</ele>
        <time>2022-09-20T07:39:58Z</time>
      </trkpt>
      <trkpt lat="43.98725" lon="0.23326">
        <ele>91.2</ele>
        <time>2022-09-20T07:40:03Z</time>
      </trkpt>
      <trkpt lat="43.98721" lon="0.23324">
        <ele>90.9</ele>
        <time>2022-09-20T07:40:08Z</time>
      </trkpt>
      <trkpt lat="43.98715" lon="0.23323">
        <ele>90.5</ele>
        <time>2022-09-20T07:40:13Z</time>
      </trkpt>
      <trkpt lat="43.98711" lon="0.23323">
        <ele>90.3</ele>
        <time>2022-09-20T07:40:17Z</time>
      </trkpt>
      <trkpt lat="43.98706" lon="0.23326">
        <ele>90.2</ele>
        <time>2022-09-20T07:40:21Z</time>
      </trkpt>
      <trkpt lat="43.98702" lon="0.2333">
        <ele>89.8</ele>
        <time>2022-09-20T07:40:26Z</time>
      </trkpt>
      <trkpt lat="43.98698" lon="0.23335">
        <ele>89.3</ele>
        <time>2022-09-20T07:40:30Z</time>
      </trkpt>
      <trkpt lat="43.98695" lon="0.23343">
        <ele>89.1</ele>
        <time>2022-09-20T07:40:34Z</time>
      </trkpt>
      <trkpt lat="43.98694" lon="0.2335">
        <ele>89.4</ele>
        <time>2022-09-20T07:40:38Z</time>
      </trkpt>
      <trkpt lat="43.98693" lon="0.23356">
        <ele>89.9</ele>
        <time>2022-09-20T07:40:42Z</time>
      </trkpt>
      <trkpt lat="43.98691" lon="0.23362">
        <ele>90.2</ele>
        <time>2022-09-20T07:40:47Z</time>
      </trkpt>
      <trkpt lat="43.98687" lon="0.23367">
        <ele>90.3</ele>
        <time>2022-09-20T07:40:53Z</time>
      </trkpt>
      <trkpt lat="43.98683" lon="0.23371">
        <ele>90.1</ele>
        <time>2022-09-20T07:40:59Z</time>
      </trkpt>
      <trkpt lat="43.98679" lon="0.23376">
        <ele>90.1</ele>
        <time>2022-09-20T07:41:05Z</time>
      </trkpt>
      <trkpt lat="43.98675" lon="0.23379">
        <ele>89.6</ele>
        <time>2022-09-20T07:41:11Z</time>
      </trkpt>
      <trkpt lat="43.9867" lon="0.23382">
        <ele>88.8</ele>
        <time>2022-09-20T07:41:16Z</time>
      </trkpt>
      <trkpt lat="43.98665" lon="0.23385">
        <ele>88.5</ele>
        <time>2022-09-20T07:41:21Z</time>
      </trkpt>
      <trkpt lat="43.9866" lon="0.23388">
        <ele>88.7</ele>
        <time>2022-09-20T07:41:25Z</time>
      </trkpt>
      <trkpt lat="43.98655" lon="0.2339">
        <ele>88.8</ele>
        <time>2022-09-20T07:41:29Z</time>
      </trkpt>
      <trkpt lat="43.9865" lon="0.2339">
        <ele>89</ele>
        <time>2022-09-20T07:41:33Z</time>
      </trkpt>
      <trkpt lat="43.98645" lon="0.23389">
        <ele>89.1</ele>
        <time>2022-09-20T07:41:39Z</time>
      </trkpt>
      <trkpt lat="43.9864" lon="0.23388">
        <ele>89.4</ele>
        <time>2022-09-20T07:41:45Z</time>
      </trkpt>
      <trkpt lat="43.98635" lon="0.23388">
        <ele>89.8</ele>
        <time>2022-09-20T07:41:49Z</time>
      </trkpt>
      <trkpt lat="43.9863" lon="0.23389">
        <ele>90.4</ele>
        <time>2022-09-20T07:41:53Z</time>
      </trkpt>
      <trkpt lat="43.98625" lon="0.23389">
        <ele>90.9</ele>
        <time>2022-09-20T07:41:57Z</time>
      </trkpt>
      <trkpt lat="43.9862" lon="0.23389">
        <ele>91.4</ele>
        <time>2022-09-20T07:42:01Z</time>
      </trkpt>
      <trkpt lat="43.98616" lon="0.23387">
        <ele>92</ele>
        <time>2022-09-20T07:42:06Z</time>
      </trkpt>
      <trkpt lat="43.9861" lon="0.23386">
        <ele>92.7</ele>
        <time>2022-09-20T07:42:11Z</time>
      </trkpt>
      <trkpt lat="43.98606" lon="0.23387">
        <ele>93.5</ele>
        <time>2022-09-20T07:42:15Z</time>
      </trkpt>
      <trkpt lat="43.98601" lon="0.23387">
        <ele>95.1</ele>
        <time>2022-09-20T07:42:22Z</time>
      </trkpt>
      <trkpt lat="43.98596" lon="0.23386">
        <ele>96.1</ele>
        <time>2022-09-20T07:42:28Z</time>
      </trkpt>
      <trkpt lat="43.98591" lon="0.23388">
        <ele>96.7</ele>
        <time>2022-09-20T07:42:33Z</time>
      </trkpt>
      <trkpt lat="43.98586" lon="0.23388">
        <ele>96.9</ele>
        <time>2022-09-20T07:42:37Z</time>
      </trkpt>
      <trkpt lat="43.98581" lon="0.23389">
        <ele>96.8</ele>
        <time>2022-09-20T07:42:43Z</time>
      </trkpt>
      <trkpt lat="43.98576" lon="0.23391">
        <ele>96.7</ele>
        <time>2022-09-20T07:42:51Z</time>
      </trkpt>
      <trkpt lat="43.98572" lon="0.23393">
        <ele>96.4</ele>
        <time>2022-09-20T07:42:56Z</time>
      </trkpt>
      <trkpt lat="43.98567" lon="0.23394">
        <ele>96.7</ele>
        <time>2022-09-20T07:43:02Z</time>
      </trkpt>
      <trkpt lat="43.98562" lon="0.23394">
        <ele>97.3</ele>
        <time>2022-09-20T07:43:08Z</time>
      </trkpt>
      <trkpt lat="43.98558" lon="0.23399">
        <ele>98</ele>
        <time>2022-09-20T07:43:12Z</time>
      </trkpt>
      <trkpt lat="43.98555" lon="0.23403">
        <ele>98.7</ele>
        <time>2022-09-20T07:43:15Z</time>
      </trkpt>
      <trkpt lat="43.98551" lon="0.23408">
        <ele>100.1</ele>
        <time>2022-09-20T07:43:19Z</time>
      </trkpt>
      <trkpt lat="43.98547" lon="0.23411">
        <ele>102.7</ele>
        <time>2022-09-20T07:43:26Z</time>
      </trkpt>
      <trkpt lat="43.98543" lon="0.23415">
        <ele>105.8</ele>
        <time>2022-09-20T07:43:34Z</time>
      </trkpt>
      <trkpt lat="43.98539" lon="0.23419">
        <ele>107.7</ele>
        <time>2022-09-20T07:43:41Z</time>
      </trkpt>
      <trkpt lat="43.98535" lon="0.23424">
        <ele>108.9</ele>
        <time>2022-09-20T07:43:47Z</time>
      </trkpt>
      <trkpt lat="43.98531" lon="0.23428">
        <ele>110.3</ele>
        <time>2022-09-20T07:43:54Z</time>
      </trkpt>
      <trkpt lat="43.98526" lon="0.23432">
        <ele>111.3</ele>
        <time>2022-09-20T07:44:00Z</time>
      </trkpt>
      <trkpt lat="43.98522" lon="0.23436">
        <ele>112</ele>
        <time>2022-09-20T07:44:06Z</time>
      </trkpt>
      <trkpt lat="43.98518" lon="0.23438">
        <ele>111.9</ele>
        <time>2022-09-20T07:44:11Z</time>
      </trkpt>
      <trkpt lat="43.98513" lon="0.23439">
        <ele>111.6</ele>
        <time>2022-09-20T07:44:17Z</time>
      </trkpt>
      <trkpt lat="43.98509" lon="0.23442">
        <ele>111.1</ele>
        <time>2022-09-20T07:44:22Z</time>
      </trkpt>
      <trkpt lat="43.98503" lon="0.23443">
        <ele>111</ele>
        <time>2022-09-20T07:44:27Z</time>
      </trkpt>
      <trkpt lat="43.98499" lon="0.23445">
        <ele>111.3</ele>
        <time>2022-09-20T07:44:32Z</time>
      </trkpt>
      <trkpt lat="43.98494" lon="0.23447">
        <ele>112</ele>
        <time>2022-09-20T07:44:38Z</time>
      </trkpt>
      <trkpt lat="43.98489" lon="0.23446">
        <ele>112.8</ele>
        <time>2022-09-20T07:44:45Z</time>
      </trkpt>
      <trkpt lat="43.98485" lon="0.23444">
        <ele>112.9</ele>
        <time>2022-09-20T07:44:51Z</time>
      </trkpt>
      <trkpt lat="43.98479" lon="0.23442">
        <ele>112.8</ele>
        <time>2022-09-20T07:44:56Z</time>
      </trkpt>
      <trkpt lat="43.98474" lon="0.23441">
        <ele>112.7</ele>
        <time>2022-09-20T07:45:00Z</time>
      </trkpt>
      <trkpt lat="43.98469" lon="0.2344">
        <ele>112.8</ele>
        <time>2022-09-20T07:45:04Z</time>
      </trkpt>
      <trkpt lat="43.98464" lon="0.2344">
        <ele>112.9</ele>
        <time>2022-09-20T07:45:08Z</time>
      </trkpt>
      <trkpt lat="43.98459" lon="0.2344">
        <ele>113.7</ele>
        <time>2022-09-20T07:45:12Z</time>
      </trkpt>
      <trkpt lat="43.98455" lon="0.23444">
        <ele>115.2</ele>
        <time>2022-09-20T07:45:17Z</time>
      </trkpt>
      <trkpt lat="43.98453" lon="0.23451">
        <ele>116.4</ele>
        <time>2022-09-20T07:45:23Z</time>
      </trkpt>
      <trkpt lat="43.98451" lon="0.23458">
        <ele>116.5</ele>
        <time>2022-09-20T07:45:27Z</time>
      </trkpt>
      <trkpt lat="43.98451" lon="0.23466">
        <ele>116.2</ele>
        <time>2022-09-20T07:45:31Z</time>
      </trkpt>
      <trkpt lat="43.98451" lon="0.23473">
        <ele>115.8</ele>
        <time>2022-09-20T07:45:36Z</time>
      </trkpt>
      <trkpt lat="43.98451" lon="0.23479">
        <ele>115.4</ele>
        <time>2022-09-20T07:45:42Z</time>
      </trkpt>
      <trkpt lat="43.98451" lon="0.23486">
        <ele>115.4</ele>
        <time>2022-09-20T07:45:49Z</time>
      </trkpt>
      <trkpt lat="43.98451" lon="0.23494">
        <ele>115.7</ele>
        <time>2022-09-20T07:45:55Z</time>
      </trkpt>
      <trkpt lat="43.9845" lon="0.23501">
        <ele>115.9</ele>
        <time>2022-09-20T07:46:00Z</time>
      </trkpt>
      <trkpt lat="43.98449" lon="0.23507">
        <ele>116</ele>
        <time>2022-09-20T07:46:05Z</time>
      </trkpt>
      <trkpt lat="43.98448" lon="0.23513">
        <ele>116</ele>
        <time>2022-09-20T07:46:12Z</time>
      </trkpt>
      <trkpt lat="43.98447" lon="0.2352">
        <ele>115.9</ele>
        <time>2022-09-20T07:46:18Z</time>
      </trkpt>
      <trkpt lat="43.98446" lon="0.23526">
        <ele>115.5</ele>
        <time>2022-09-20T07:46:23Z</time>
      </trkpt>
      <trkpt lat="43.98444" lon="0.23532">
        <ele>115.6</ele>
        <time>2022-09-20T07:46:29Z</time>
      </trkpt>
      <trkpt lat="43.98442" lon="0.23539">
        <ele>116.3</ele>
        <time>2022-09-20T07:46:36Z</time>
      </trkpt>
      <trkpt lat="43.98441" lon="0.23545">
        <ele>117.4</ele>
        <time>2022-09-20T07:46:42Z</time>
      </trkpt>
      <trkpt lat="43.9844" lon="0.23552">
        <ele>119</ele>
        <time>2022-09-20T07:46:47Z</time>
      </trkpt>
      <trkpt lat="43.98437" lon="0.23558">
        <ele>121.1</ele>
        <time>2022-09-20T07:46:52Z</time>
      </trkpt>
      <trkpt lat="43.98435" lon="0.23564">
        <ele>123.3</ele>
        <time>2022-09-20T07:47:01Z</time>
      </trkpt>
      <trkpt lat="43.98433" lon="0.23571">
        <ele>123.9</ele>
        <time>2022-09-20T07:47:06Z</time>
      </trkpt>
      <trkpt lat="43.98432" lon="0.23577">
        <ele>124.3</ele>
        <time>2022-09-20T07:47:09Z</time>
      </trkpt>
      <trkpt lat="43.9843" lon="0.23583">
        <ele>124.6</ele>
        <time>2022-09-20T07:47:12Z</time>
      </trkpt>
      <trkpt lat="43.98428" lon="0.2359">
        <ele>125.1</ele>
        <time>2022-09-20T07:47:16Z</time>
      </trkpt>
      <trkpt lat="43.98427" lon="0.23597">
        <ele>125.9</ele>
        <time>2022-09-20T07:47:21Z</time>
      </trkpt>
      <trkpt lat="43.98425" lon="0.23603">
        <ele>126.3</ele>
        <time>2022-09-20T07:47:25Z</time>
      </trkpt>
      <trkpt lat="43.98423" lon="0.23609">
        <ele>127.3</ele>
        <time>2022-09-20T07:47:30Z</time>
      </trkpt>
      <trkpt lat="43.9842" lon="0.23615">
        <ele>128</ele>
        <time>2022-09-20T07:47:34Z</time>
      </trkpt>
      <trkpt lat="43.98417" lon="0.2362">
        <ele>128.8</ele>
        <time>2022-09-20T07:47:39Z</time>
      </trkpt>
      <trkpt lat="43.98413" lon="0.23623">
        <ele>129.9</ele>
        <time>2022-09-20T07:47:46Z</time>
      </trkpt>
      <trkpt lat="43.98408" lon="0.23626">
        <ele>130.5</ele>
        <time>2022-09-20T07:47:51Z</time>
      </trkpt>
      <trkpt lat="43.98403" lon="0.23628">
        <ele>130.8</ele>
        <time>2022-09-20T07:47:55Z</time>
      </trkpt>
      <trkpt lat="43.98398" lon="0.2363">
        <ele>130.9</ele>
        <time>2022-09-20T07:47:59Z</time>
      </trkpt>
      <trkpt lat="43.98393" lon="0.23633">
        <ele>130.9</ele>
        <time>2022-09-20T07:48:03Z</time>
      </trkpt>
      <trkpt lat="43.98388" lon="0.23637">
        <ele>131.3</ele>
        <time>2022-09-20T07:48:07Z</time>
      </trkpt>
      <trkpt lat="43.98384" lon="0.2364">
        <ele>131.8</ele>
        <time>2022-09-20T07:48:11Z</time>
      </trkpt>
      <trkpt lat="43.98381" lon="0.23644">
        <ele>132.9</ele>
        <time>2022-09-20T07:48:17Z</time>
      </trkpt>
      <trkpt lat="43.98377" lon="0.23649">
        <ele>133.2</ele>
        <time>2022-09-20T07:48:22Z</time>
      </trkpt>
      <trkpt lat="43.98374" lon="0.23654">
        <ele>133</ele>
        <time>2022-09-20T07:48:26Z</time>
      </trkpt>
      <trkpt lat="43.98369" lon="0.23657">
        <ele>133</ele>
        <time>2022-09-20T07:48:32Z</time>
      </trkpt>
      <trkpt lat="43.98365" lon="0.2366">
        <ele>132.9</ele>
        <time>2022-09-20T07:48:37Z</time>
      </trkpt>
      <trkpt lat="43.98361" lon="0.23664">
        <ele>132.6</ele>
        <time>2022-09-20T07:48:42Z</time>
      </trkpt>
      <trkpt lat="43.98357" lon="0.23669">
        <ele>132.2</ele>
        <time>2022-09-20T07:48:47Z</time>
      </trkpt>
      <trkpt lat="43.98354" lon="0.23674">
        <ele>131.9</ele>
        <time>2022-09-20T07:48:50Z</time>
      </trkpt>
      <trkpt lat="43.98351" lon="0.23679">
        <ele>131.6</ele>
        <time>2022-09-20T07:48:54Z</time>
      </trkpt>
      <trkpt lat="43.98348" lon="0.23685">
        <ele>131.6</ele>
        <time>2022-09-20T07:48:59Z</time>
      </trkpt>
      <trkpt lat="43.98346" lon="0.23691">
        <ele>132</ele>
        <time>2022-09-20T07:49:05Z</time>
      </trkpt>
      <trkpt lat="43.98344" lon="0.23698">
        <ele>132.4</ele>
        <time>2022-09-20T07:49:10Z</time>
      </trkpt>
      <trkpt lat="43.98343" lon="0.23705">
        <ele>133.8</ele>
        <time>2022-09-20T07:49:16Z</time>
      </trkpt>
      <trkpt lat="43.98342" lon="0.23712">
        <ele>134.9</ele>
        <time>2022-09-20T07:49:21Z</time>
      </trkpt>
      <trkpt lat="43.9834" lon="0.23718">
        <ele>136.1</ele>
        <time>2022-09-20T07:49:25Z</time>
      </trkpt>
      <trkpt lat="43.9834" lon="0.23725">
        <ele>137.7</ele>
        <time>2022-09-20T07:49:29Z</time>
      </trkpt>
      <trkpt lat="43.98339" lon="0.23732">
        <ele>139.8</ele>
        <time>2022-09-20T07:49:34Z</time>
      </trkpt>
      <trkpt lat="43.98338" lon="0.23739">
        <ele>141.1</ele>
        <time>2022-09-20T07:49:38Z</time>
      </trkpt>
      <trkpt lat="43.98336" lon="0.23745">
        <ele>141.9</ele>
        <time>2022-09-20T07:49:42Z</time>
      </trkpt>
      <trkpt lat="43.98335" lon="0.23752">
        <ele>142.8</ele>
        <time>2022-09-20T07:49:47Z</time>
      </trkpt>
      <trkpt lat="43.98333" lon="0.23758">
        <ele>143.7</ele>
        <time>2022-09-20T07:49:51Z</time>
      </trkpt>
      <trkpt lat="43.98332" lon="0.23765">
        <ele>144.8</ele>
        <time>2022-09-20T07:49:56Z</time>
      </trkpt>
      <trkpt lat="43.98332" lon="0.23772">
        <ele>145.7</ele>
        <time>2022-09-20T07:50:01Z</time>
      </trkpt>
      <trkpt lat="43.98331" lon="0.23779">
        <ele>146.4</ele>
        <time>2022-09-20T07:50:05Z</time>
      </trkpt>
      <trkpt lat="43.9833" lon="0.23786">
        <ele>146.8</ele>
        <time>2022-09-20T07:50:09Z</time>
      </trkpt>
      <trkpt lat="43.98329" lon="0.23793">
        <ele>146.2</ele>
        <time>2022-09-20T07:50:19Z</time>
      </trkpt>
      <trkpt lat="43.98325" lon="0.23797">
        <ele>145.8</ele>
        <time>2022-09-20T07:50:26Z</time>
      </trkpt>
      <trkpt lat="43.98323" lon="0.23803">
        <ele>145.7</ele>
        <time>2022-09-20T07:50:32Z</time>
      </trkpt>
      <trkpt lat="43.98321" lon="0.23809">
        <ele>145.9</ele>
        <time>2022-09-20T07:50:40Z</time>
      </trkpt>
      <trkpt lat="43.98318" lon="0.23814">
        <ele>146.2</ele>
        <time>2022-09-20T07:50:49Z</time>
      </trkpt>
      <trkpt lat="43.98316" lon="0.23822">
        <ele>146.2</ele>
        <time>2022-09-20T07:50:52Z</time>
      </trkpt>
      <trkpt lat="43.98314" lon="0.23827">
        <ele>146</ele>
        <time>2022-09-20T07:50:56Z</time>
      </trkpt>
      <trkpt lat="43.98308" lon="0.23832">
        <ele>145.6</ele>
        <time>2022-09-20T07:51:13Z</time>
      </trkpt>
      <trkpt lat="43.98307" lon="0.23838">
        <ele>150.7</ele>
        <time>2022-09-20T07:52:23Z</time>
      </trkpt>
      <trkpt lat="43.98304" lon="0.23834">
        <ele>151.6</ele>
        <time>2022-09-20T07:52:38Z</time>
      </trkpt>
      <trkpt lat="43.98308" lon="0.23826">
        <ele>153</ele>
        <time>2022-09-20T07:54:32Z</time>
      </trkpt>
      <trkpt lat="43.98312" lon="0.23831">
        <ele>152.7</ele>
        <time>2022-09-20T07:55:04Z</time>
      </trkpt>
      <trkpt lat="43.98307" lon="0.23828">
        <ele>152.8</ele>
        <time>2022-09-20T07:57:38Z</time>
      </trkpt>
      <trkpt lat="43.98303" lon="0.23823">
        <ele>151.7</ele>
        <time>2022-09-20T07:57:43Z</time>
      </trkpt>
      <trkpt lat="43.98304" lon="0.23831">
        <ele>150.1</ele>
        <time>2022-09-20T07:59:22Z</time>
      </trkpt>
      <trkpt lat="43.98306" lon="0.23837">
        <ele>148.7</ele>
        <time>2022-09-20T07:59:35Z</time>
      </trkpt>
      <trkpt lat="43.9831" lon="0.23837">
        <ele>149.1</ele>
        <time>2022-09-20T08:01:08Z</time>
      </trkpt>
      <trkpt lat="43.98307" lon="0.23843">
        <ele>148.9</ele>
        <time>2022-09-20T08:01:23Z</time>
      </trkpt>
      <trkpt lat="43.98307" lon="0.23849">
        <ele>148.5</ele>
        <time>2022-09-20T08:01:28Z</time>
      </trkpt>
      <trkpt lat="43.98306" lon="0.23856">
        <ele>147.1</ele>
        <time>2022-09-20T08:01:35Z</time>
      </trkpt>
      <trkpt lat="43.98304" lon="0.23862">
        <ele>145.9</ele>
        <time>2022-09-20T08:01:40Z</time>
      </trkpt>
      <trkpt lat="43.98304" lon="0.23869">
        <ele>145.1</ele>
        <time>2022-09-20T08:01:54Z</time>
      </trkpt>
      <trkpt lat="43.98302" lon="0.23875">
        <ele>145.1</ele>
        <time>2022-09-20T08:01:58Z</time>
      </trkpt>
      <trkpt lat="43.98299" lon="0.23881">
        <ele>144.9</ele>
        <time>2022-09-20T08:02:07Z</time>
      </trkpt>
      <trkpt lat="43.98297" lon="0.23886">
        <ele>145.7</ele>
        <time>2022-09-20T08:02:16Z</time>
      </trkpt>
      <trkpt lat="43.98296" lon="0.23892">
        <ele>146.5</ele>
        <time>2022-09-20T08:02:28Z</time>
      </trkpt>
      <trkpt lat="43.98294" lon="0.23899">
        <ele>146.4</ele>
        <time>2022-09-20T08:02:31Z</time>
      </trkpt>
      <trkpt lat="43.98292" lon="0.23905">
        <ele>146.3</ele>
        <time>2022-09-20T08:02:34Z</time>
      </trkpt>
      <trkpt lat="43.98291" lon="0.23912">
        <ele>146</ele>
        <time>2022-09-20T08:02:38Z</time>
      </trkpt>
      <trkpt lat="43.98289" lon="0.23918">
        <ele>145.8</ele>
        <time>2022-09-20T08:02:42Z</time>
      </trkpt>
      <trkpt lat="43.98287" lon="0.23925">
        <ele>145.4</ele>
        <time>2022-09-20T08:02:47Z</time>
      </trkpt>
      <trkpt lat="43.98284" lon="0.23931">
        <ele>144.6</ele>
        <time>2022-09-20T08:02:53Z</time>
      </trkpt>
      <trkpt lat="43.98282" lon="0.23939">
        <ele>144.4</ele>
        <time>2022-09-20T08:02:57Z</time>
      </trkpt>
      <trkpt lat="43.9828" lon="0.23946">
        <ele>143.9</ele>
        <time>2022-09-20T08:03:01Z</time>
      </trkpt>
      <trkpt lat="43.98278" lon="0.23953">
        <ele>143.9</ele>
        <time>2022-09-20T08:03:04Z</time>
      </trkpt>
      <trkpt lat="43.98276" lon="0.2396">
        <ele>144.3</ele>
        <time>2022-09-20T08:03:08Z</time>
      </trkpt>
      <trkpt lat="43.98274" lon="0.23966">
        <ele>144.7</ele>
        <time>2022-09-20T08:03:13Z</time>
      </trkpt>
      <trkpt lat="43.98274" lon="0.23974">
        <ele>145</ele>
        <time>2022-09-20T08:03:18Z</time>
      </trkpt>
      <trkpt lat="43.98272" lon="0.2398">
        <ele>145.6</ele>
        <time>2022-09-20T08:03:25Z</time>
      </trkpt>
      <trkpt lat="43.98271" lon="0.23987">
        <ele>145.7</ele>
        <time>2022-09-20T08:03:36Z</time>
      </trkpt>
      <trkpt lat="43.9827" lon="0.23994">
        <ele>146.1</ele>
        <time>2022-09-20T08:03:40Z</time>
      </trkpt>
      <trkpt lat="43.98269" lon="0.24">
        <ele>146.4</ele>
        <time>2022-09-20T08:03:44Z</time>
      </trkpt>
      <trkpt lat="43.98266" lon="0.24006">
        <ele>146</ele>
        <time>2022-09-20T08:03:49Z</time>
      </trkpt>
      <trkpt lat="43.98264" lon="0.24012">
        <ele>145.3</ele>
        <time>2022-09-20T08:03:56Z</time>
      </trkpt>
      <trkpt lat="43.98263" lon="0.24018">
        <ele>144.9</ele>
        <time>2022-09-20T08:04:01Z</time>
      </trkpt>
      <trkpt lat="43.98261" lon="0.24025">
        <ele>144.1</ele>
        <time>2022-09-20T08:04:06Z</time>
      </trkpt>
      <trkpt lat="43.9826" lon="0.24033">
        <ele>143.8</ele>
        <time>2022-09-20T08:04:11Z</time>
      </trkpt>
      <trkpt lat="43.98258" lon="0.24039">
        <ele>143.9</ele>
        <time>2022-09-20T08:04:15Z</time>
      </trkpt>
      <trkpt lat="43.98257" lon="0.24045">
        <ele>144.2</ele>
        <time>2022-09-20T08:04:19Z</time>
      </trkpt>
      <trkpt lat="43.98256" lon="0.24051">
        <ele>144.2</ele>
        <time>2022-09-20T08:04:23Z</time>
      </trkpt>
      <trkpt lat="43.98256" lon="0.24058">
        <ele>144.4</ele>
        <time>2022-09-20T08:04:28Z</time>
      </trkpt>
      <trkpt lat="43.98254" lon="0.24064">
        <ele>144.6</ele>
        <time>2022-09-20T08:04:33Z</time>
      </trkpt>
      <trkpt lat="43.98251" lon="0.24071">
        <ele>144.7</ele>
        <time>2022-09-20T08:04:38Z</time>
      </trkpt>
      <trkpt lat="43.98249" lon="0.24078">
        <ele>144.9</ele>
        <time>2022-09-20T08:04:43Z</time>
      </trkpt>
      <trkpt lat="43.98248" lon="0.24085">
        <ele>145.7</ele>
        <time>2022-09-20T08:04:48Z</time>
      </trkpt>
      <trkpt lat="43.98246" lon="0.24092">
        <ele>146.4</ele>
        <time>2022-09-20T08:04:52Z</time>
      </trkpt>
      <trkpt lat="43.98244" lon="0.24099">
        <ele>147.2</ele>
        <time>2022-09-20T08:04:57Z</time>
      </trkpt>
      <trkpt lat="43.98242" lon="0.24105">
        <ele>147.9</ele>
        <time>2022-09-20T08:05:01Z</time>
      </trkpt>
      <trkpt lat="43.9824" lon="0.24112">
        <ele>148.3</ele>
        <time>2022-09-20T08:05:05Z</time>
      </trkpt>
      <trkpt lat="43.9824" lon="0.2412">
        <ele>149.2</ele>
        <time>2022-09-20T08:05:09Z</time>
      </trkpt>
      <trkpt lat="43.98239" lon="0.24127">
        <ele>150.1</ele>
        <time>2022-09-20T08:05:14Z</time>
      </trkpt>
      <trkpt lat="43.98238" lon="0.24134">
        <ele>150.6</ele>
        <time>2022-09-20T08:05:19Z</time>
      </trkpt>
      <trkpt lat="43.98237" lon="0.24141">
        <ele>151.7</ele>
        <time>2022-09-20T08:05:24Z</time>
      </trkpt>
      <trkpt lat="43.98235" lon="0.24147">
        <ele>149.7</ele>
        <time>2022-09-20T08:05:46Z</time>
      </trkpt>
      <trkpt lat="43.98232" lon="0.24154">
        <ele>149.4</ele>
        <time>2022-09-20T08:05:51Z</time>
      </trkpt>
      <trkpt lat="43.9823" lon="0.2416">
        <ele>149.8</ele>
        <time>2022-09-20T08:05:56Z</time>
      </trkpt>
      <trkpt lat="43.98226" lon="0.24167">
        <ele>150.3</ele>
        <time>2022-09-20T08:06:01Z</time>
      </trkpt>
      <trkpt lat="43.98223" lon="0.24172">
        <ele>150.8</ele>
        <time>2022-09-20T08:06:05Z</time>
      </trkpt>
      <trkpt lat="43.9822" lon="0.24177">
        <ele>151.9</ele>
        <time>2022-09-20T08:06:10Z</time>
      </trkpt>
      <trkpt lat="43.98217" lon="0.24183">
        <ele>152.7</ele>
        <time>2022-09-20T08:06:16Z</time>
      </trkpt>
      <trkpt lat="43.98213" lon="0.24189">
        <ele>153.2</ele>
        <time>2022-09-20T08:06:21Z</time>
      </trkpt>
      <trkpt lat="43.9821" lon="0.24194">
        <ele>153.5</ele>
        <time>2022-09-20T08:06:26Z</time>
      </trkpt>
      <trkpt lat="43.98207" lon="0.24199">
        <ele>153.6</ele>
        <time>2022-09-20T08:06:30Z</time>
      </trkpt>
      <trkpt lat="43.98204" lon="0.24205">
        <ele>153.6</ele>
        <time>2022-09-20T08:06:34Z</time>
      </trkpt>
      <trkpt lat="43.98201" lon="0.2421">
        <ele>153.8</ele>
        <time>2022-09-20T08:06:39Z</time>
      </trkpt>
      <trkpt lat="43.98196" lon="0.24213">
        <ele>154.1</ele>
        <time>2022-09-20T08:06:46Z</time>
      </trkpt>
      <trkpt lat="43.98192" lon="0.24218">
        <ele>154.6</ele>
        <time>2022-09-20T08:06:52Z</time>
      </trkpt>
      <trkpt lat="43.98189" lon="0.24224">
        <ele>155</ele>
        <time>2022-09-20T08:06:57Z</time>
      </trkpt>
      <trkpt lat="43.98185" lon="0.2423">
        <ele>155.6</ele>
        <time>2022-09-20T08:07:02Z</time>
      </trkpt>
      <trkpt lat="43.98182" lon="0.24235">
        <ele>156</ele>
        <time>2022-09-20T08:07:06Z</time>
      </trkpt>
      <trkpt lat="43.98179" lon="0.24241">
        <ele>156.2</ele>
        <time>2022-09-20T08:07:10Z</time>
      </trkpt>
      <trkpt lat="43.98177" lon="0.24247">
        <ele>156.4</ele>
        <time>2022-09-20T08:07:16Z</time>
      </trkpt>
      <trkpt lat="43.98174" lon="0.24253">
        <ele>156.2</ele>
        <time>2022-09-20T08:07:21Z</time>
      </trkpt>
      <trkpt lat="43.98172" lon="0.2426">
        <ele>156.7</ele>
        <time>2022-09-20T08:07:25Z</time>
      </trkpt>
      <trkpt lat="43.98171" lon="0.24267">
        <ele>157.4</ele>
        <time>2022-09-20T08:07:29Z</time>
      </trkpt>
      <trkpt lat="43.98172" lon="0.24273">
        <ele>157.8</ele>
        <time>2022-09-20T08:07:34Z</time>
      </trkpt>
      <trkpt lat="43.98175" lon="0.24279">
        <ele>161.1</ele>
        <time>2022-09-20T08:08:07Z</time>
      </trkpt>
      <trkpt lat="43.98179" lon="0.24284">
        <ele>162.1</ele>
        <time>2022-09-20T08:08:11Z</time>
      </trkpt>
      <trkpt lat="43.98181" lon="0.2429">
        <ele>163.2</ele>
        <time>2022-09-20T08:08:16Z</time>
      </trkpt>
      <trkpt lat="43.98183" lon="0.24296">
        <ele>163</ele>
        <time>2022-09-20T08:08:20Z</time>
      </trkpt>
      <trkpt lat="43.98184" lon="0.24303">
        <ele>162.2</ele>
        <time>2022-09-20T08:08:24Z</time>
      </trkpt>
      <trkpt lat="43.98185" lon="0.24309">
        <ele>161.1</ele>
        <time>2022-09-20T08:08:27Z</time>
      </trkpt>
      <trkpt lat="43.98187" lon="0.24317">
        <ele>159.4</ele>
        <time>2022-09-20T08:08:31Z</time>
      </trkpt>
      <trkpt lat="43.98187" lon="0.24323">
        <ele>158.5</ele>
        <time>2022-09-20T08:08:35Z</time>
      </trkpt>
      <trkpt lat="43.98188" lon="0.24329">
        <ele>157.6</ele>
        <time>2022-09-20T08:08:38Z</time>
      </trkpt>
      <trkpt lat="43.98189" lon="0.24335">
        <ele>157</ele>
        <time>2022-09-20T08:08:41Z</time>
      </trkpt>
      <trkpt lat="43.9819" lon="0.24342">
        <ele>156.4</ele>
        <time>2022-09-20T08:08:44Z</time>
      </trkpt>
      <trkpt lat="43.9819" lon="0.24349">
        <ele>155.9</ele>
        <time>2022-09-20T08:08:47Z</time>
      </trkpt>
      <trkpt lat="43.98191" lon="0.24357">
        <ele>155.3</ele>
        <time>2022-09-20T08:08:51Z</time>
      </trkpt>
      <trkpt lat="43.98192" lon="0.24364">
        <ele>155.6</ele>
        <time>2022-09-20T08:08:54Z</time>
      </trkpt>
      <trkpt lat="43.98193" lon="0.24371">
        <ele>156.3</ele>
        <time>2022-09-20T08:08:58Z</time>
      </trkpt>
      <trkpt lat="43.98194" lon="0.24379">
        <ele>157.3</ele>
        <time>2022-09-20T08:09:02Z</time>
      </trkpt>
      <trkpt lat="43.98193" lon="0.24387">
        <ele>157.8</ele>
        <time>2022-09-20T08:09:06Z</time>
      </trkpt>
      <trkpt lat="43.98193" lon="0.24394">
        <ele>158.2</ele>
        <time>2022-09-20T08:09:10Z</time>
      </trkpt>
      <trkpt lat="43.98192" lon="0.24401">
        <ele>158.5</ele>
        <time>2022-09-20T08:09:14Z</time>
      </trkpt>
      <trkpt lat="43.98192" lon="0.24409">
        <ele>158.7</ele>
        <time>2022-09-20T08:09:19Z</time>
      </trkpt>
      <trkpt lat="43.9819" lon="0.24415">
        <ele>158.2</ele>
        <time>2022-09-20T08:09:24Z</time>
      </trkpt>
      <trkpt lat="43.98189" lon="0.24422">
        <ele>157.9</ele>
        <time>2022-09-20T08:09:28Z</time>
      </trkpt>
      <trkpt lat="43.98188" lon="0.24429">
        <ele>157.7</ele>
        <time>2022-09-20T08:09:33Z</time>
      </trkpt>
      <trkpt lat="43.98187" lon="0.24435">
        <ele>157.4</ele>
        <time>2022-09-20T08:09:38Z</time>
      </trkpt>
      <trkpt lat="43.98186" lon="0.24442">
        <ele>157.1</ele>
        <time>2022-09-20T08:09:43Z</time>
      </trkpt>
      <trkpt lat="43.98186" lon="0.24449">
        <ele>157</ele>
        <time>2022-09-20T08:09:48Z</time>
      </trkpt>
      <trkpt lat="43.98186" lon="0.24456">
        <ele>156.8</ele>
        <time>2022-09-20T08:09:52Z</time>
      </trkpt>
      <trkpt lat="43.98186" lon="0.24462">
        <ele>156.3</ele>
        <time>2022-09-20T08:09:57Z</time>
      </trkpt>
      <trkpt lat="43.98186" lon="0.24469">
        <ele>155.5</ele>
        <time>2022-09-20T08:10:04Z</time>
      </trkpt>
      <trkpt lat="43.98187" lon="0.24476">
        <ele>154.3</ele>
        <time>2022-09-20T08:10:24Z</time>
      </trkpt>
      <trkpt lat="43.98187" lon="0.24483">
        <ele>153.5</ele>
        <time>2022-09-20T08:10:32Z</time>
      </trkpt>
      <trkpt lat="43.98183" lon="0.24487">
        <ele>159.5</ele>
        <time>2022-09-20T08:12:05Z</time>
      </trkpt>
      <trkpt lat="43.9818" lon="0.24492">
        <ele>159.6</ele>
        <time>2022-09-20T08:12:09Z</time>
      </trkpt>
      <trkpt lat="43.98177" lon="0.24498">
        <ele>159.2</ele>
        <time>2022-09-20T08:12:14Z</time>
      </trkpt>
      <trkpt lat="43.98175" lon="0.24505">
        <ele>156.7</ele>
        <time>2022-09-20T08:12:30Z</time>
      </trkpt>
      <trkpt lat="43.98178" lon="0.24498">
        <ele>154.7</ele>
        <time>2022-09-20T08:12:41Z</time>
      </trkpt>
      <trkpt lat="43.98181" lon="0.24493">
        <ele>154.6</ele>
        <time>2022-09-20T08:12:46Z</time>
      </trkpt>
      <trkpt lat="43.98186" lon="0.24493">
        <ele>154.9</ele>
        <time>2022-09-20T08:12:51Z</time>
      </trkpt>
      <trkpt lat="43.9819" lon="0.24491">
        <ele>155</ele>
        <time>2022-09-20T08:12:57Z</time>
      </trkpt>
      <trkpt lat="43.98194" lon="0.24488">
        <ele>155.3</ele>
        <time>2022-09-20T08:13:04Z</time>
      </trkpt>
      <trkpt lat="43.98199" lon="0.24488">
        <ele>155</ele>
        <time>2022-09-20T08:13:16Z</time>
      </trkpt>
      <trkpt lat="43.98203" lon="0.24485">
        <ele>154.3</ele>
        <time>2022-09-20T08:13:49Z</time>
      </trkpt>
      <trkpt lat="43.98208" lon="0.24486">
        <ele>155.3</ele>
        <time>2022-09-20T08:13:55Z</time>
      </trkpt>
      <trkpt lat="43.98213" lon="0.24486">
        <ele>157.4</ele>
        <time>2022-09-20T08:14:02Z</time>
      </trkpt>
      <trkpt lat="43.98218" lon="0.24487">
        <ele>158.5</ele>
        <time>2022-09-20T08:14:07Z</time>
      </trkpt>
      <trkpt lat="43.98223" lon="0.24487">
        <ele>159.2</ele>
        <time>2022-09-20T08:14:11Z</time>
      </trkpt>
      <trkpt lat="43.98227" lon="0.24484">
        <ele>159.8</ele>
        <time>2022-09-20T08:14:15Z</time>
      </trkpt>
      <trkpt lat="43.98232" lon="0.24483">
        <ele>160.5</ele>
        <time>2022-09-20T08:14:19Z</time>
      </trkpt>
      <trkpt lat="43.98237" lon="0.24483">
        <ele>160</ele>
        <time>2022-09-20T08:14:23Z</time>
      </trkpt>
      <trkpt lat="43.98241" lon="0.24485">
        <ele>159.1</ele>
        <time>2022-09-20T08:14:27Z</time>
      </trkpt>
      <trkpt lat="43.98246" lon="0.24488">
        <ele>158.2</ele>
        <time>2022-09-20T08:14:32Z</time>
      </trkpt>
      <trkpt lat="43.98251" lon="0.24489">
        <ele>156.8</ele>
        <time>2022-09-20T08:14:38Z</time>
      </trkpt>
      <trkpt lat="43.98257" lon="0.24489">
        <ele>155.5</ele>
        <time>2022-09-20T08:14:43Z</time>
      </trkpt>
      <trkpt lat="43.98261" lon="0.24487">
        <ele>154.1</ele>
        <time>2022-09-20T08:14:48Z</time>
      </trkpt>
      <trkpt lat="43.98266" lon="0.24488">
        <ele>152.2</ele>
        <time>2022-09-20T08:14:59Z</time>
      </trkpt>
      <trkpt lat="43.98271" lon="0.24486">
        <ele>151.1</ele>
        <time>2022-09-20T08:15:05Z</time>
      </trkpt>
      <trkpt lat="43.98276" lon="0.24487">
        <ele>150.5</ele>
        <time>2022-09-20T08:15:09Z</time>
      </trkpt>
      <trkpt lat="43.98281" lon="0.24487">
        <ele>150.5</ele>
        <time>2022-09-20T08:15:14Z</time>
      </trkpt>
      <trkpt lat="43.98287" lon="0.24487">
        <ele>151</ele>
        <time>2022-09-20T08:15:19Z</time>
      </trkpt>
      <trkpt lat="43.98291" lon="0.24487">
        <ele>151.4</ele>
        <time>2022-09-20T08:15:24Z</time>
      </trkpt>
      <trkpt lat="43.98296" lon="0.24487">
        <ele>151.6</ele>
        <time>2022-09-20T08:15:29Z</time>
      </trkpt>
      <trkpt lat="43.98301" lon="0.24486">
        <ele>151.1</ele>
        <time>2022-09-20T08:15:34Z</time>
      </trkpt>
      <trkpt lat="43.98306" lon="0.24485">
        <ele>149.8</ele>
        <time>2022-09-20T08:15:40Z</time>
      </trkpt>
      <trkpt lat="43.9831" lon="0.24483">
        <ele>148.9</ele>
        <time>2022-09-20T08:15:45Z</time>
      </trkpt>
      <trkpt lat="43.98315" lon="0.24481">
        <ele>148.1</ele>
        <time>2022-09-20T08:15:52Z</time>
      </trkpt>
      <trkpt lat="43.98319" lon="0.24477">
        <ele>146.6</ele>
        <time>2022-09-20T08:15:59Z</time>
      </trkpt>
      <trkpt lat="43.98324" lon="0.24475">
        <ele>145.2</ele>
        <time>2022-09-20T08:16:04Z</time>
      </trkpt>
      <trkpt lat="43.98329" lon="0.24474">
        <ele>143.8</ele>
        <time>2022-09-20T08:16:09Z</time>
      </trkpt>
      <trkpt lat="43.98333" lon="0.24472">
        <ele>142.7</ele>
        <time>2022-09-20T08:16:14Z</time>
      </trkpt>
      <trkpt lat="43.98338" lon="0.2447">
        <ele>140.9</ele>
        <time>2022-09-20T08:16:20Z</time>
      </trkpt>
      <trkpt lat="43.98343" lon="0.24467">
        <ele>139.3</ele>
        <time>2022-09-20T08:16:25Z</time>
      </trkpt>
      <trkpt lat="43.98348" lon="0.24465">
        <ele>137.7</ele>
        <time>2022-09-20T08:16:31Z</time>
      </trkpt>
      <trkpt lat="43.98352" lon="0.24462">
        <ele>137.2</ele>
        <time>2022-09-20T08:16:36Z</time>
      </trkpt>
      <trkpt lat="43.98356" lon="0.24461">
        <ele>136.7</ele>
        <time>2022-09-20T08:16:40Z</time>
      </trkpt>
      <trkpt lat="43.98361" lon="0.24457">
        <ele>136.1</ele>
        <time>2022-09-20T08:16:45Z</time>
      </trkpt>
      <trkpt lat="43.98366" lon="0.24455">
        <ele>135.2</ele>
        <time>2022-09-20T08:16:51Z</time>
      </trkpt>
      <trkpt lat="43.98371" lon="0.24454">
        <ele>134.4</ele>
        <time>2022-09-20T08:16:55Z</time>
      </trkpt>
      <trkpt lat="43.98376" lon="0.24453">
        <ele>133.9</ele>
        <time>2022-09-20T08:17:00Z</time>
      </trkpt>
      <trkpt lat="43.98381" lon="0.24453">
        <ele>133.1</ele>
        <time>2022-09-20T08:17:05Z</time>
      </trkpt>
      <trkpt lat="43.98387" lon="0.24453">
        <ele>132.7</ele>
        <time>2022-09-20T08:17:10Z</time>
      </trkpt>
      <trkpt lat="43.98392" lon="0.24454">
        <ele>132.6</ele>
        <time>2022-09-20T08:17:15Z</time>
      </trkpt>
      <trkpt lat="43.98397" lon="0.24455">
        <ele>132.4</ele>
        <time>2022-09-20T08:17:20Z</time>
      </trkpt>
      <trkpt lat="43.98402" lon="0.24457">
        <ele>131.9</ele>
        <time>2022-09-20T08:17:25Z</time>
      </trkpt>
      <trkpt lat="43.98407" lon="0.24459">
        <ele>131.7</ele>
        <time>2022-09-20T08:17:29Z</time>
      </trkpt>
      <trkpt lat="43.98411" lon="0.24461">
        <ele>131.9</ele>
        <time>2022-09-20T08:17:33Z</time>
      </trkpt>
      <trkpt lat="43.98416" lon="0.24465">
        <ele>132.3</ele>
        <time>2022-09-20T08:17:38Z</time>
      </trkpt>
      <trkpt lat="43.98421" lon="0.24467">
        <ele>132.5</ele>
        <time>2022-09-20T08:17:42Z</time>
      </trkpt>
      <trkpt lat="43.98426" lon="0.24469">
        <ele>132.5</ele>
        <time>2022-09-20T08:17:46Z</time>
      </trkpt>
      <trkpt lat="43.98431" lon="0.24471">
        <ele>132.6</ele>
        <time>2022-09-20T08:17:50Z</time>
      </trkpt>
      <trkpt lat="43.98436" lon="0.24473">
        <ele>132.7</ele>
        <time>2022-09-20T08:17:54Z</time>
      </trkpt>
      <trkpt lat="43.98441" lon="0.24477">
        <ele>132.5</ele>
        <time>2022-09-20T08:17:59Z</time>
      </trkpt>
      <trkpt lat="43.98446" lon="0.24479">
        <ele>131.7</ele>
        <time>2022-09-20T08:18:04Z</time>
      </trkpt>
      <trkpt lat="43.9845" lon="0.24482">
        <ele>131.6</ele>
        <time>2022-09-20T08:18:08Z</time>
      </trkpt>
      <trkpt lat="43.98454" lon="0.24485">
        <ele>131.5</ele>
        <time>2022-09-20T08:18:12Z</time>
      </trkpt>
      <trkpt lat="43.98458" lon="0.24488">
        <ele>131</ele>
        <time>2022-09-20T08:18:16Z</time>
      </trkpt>
      <trkpt lat="43.98463" lon="0.2449">
        <ele>130.6</ele>
        <time>2022-09-20T08:18:21Z</time>
      </trkpt>
      <trkpt lat="43.98467" lon="0.24494">
        <ele>131.5</ele>
        <time>2022-09-20T08:18:28Z</time>
      </trkpt>
      <trkpt lat="43.98468" lon="0.245">
        <ele>133.1</ele>
        <time>2022-09-20T08:19:05Z</time>
      </trkpt>
      <trkpt lat="43.98472" lon="0.24503">
        <ele>133.4</ele>
        <time>2022-09-20T08:19:09Z</time>
      </trkpt>
      <trkpt lat="43.98477" lon="0.24506">
        <ele>133.2</ele>
        <time>2022-09-20T08:19:12Z</time>
      </trkpt>
      <trkpt lat="43.98481" lon="0.2451">
        <ele>133</ele>
        <time>2022-09-20T08:19:15Z</time>
      </trkpt>
      <trkpt lat="43.98486" lon="0.24514">
        <ele>132.6</ele>
        <time>2022-09-20T08:19:18Z</time>
      </trkpt>
      <trkpt lat="43.98491" lon="0.24517">
        <ele>132</ele>
        <time>2022-09-20T08:19:21Z</time>
      </trkpt>
      <trkpt lat="43.98496" lon="0.24521">
        <ele>131.2</ele>
        <time>2022-09-20T08:19:25Z</time>
      </trkpt>
      <trkpt lat="43.985" lon="0.24526">
        <ele>130.5</ele>
        <time>2022-09-20T08:19:29Z</time>
      </trkpt>
      <trkpt lat="43.98504" lon="0.2453">
        <ele>129.6</ele>
        <time>2022-09-20T08:19:33Z</time>
      </trkpt>
      <trkpt lat="43.98508" lon="0.24534">
        <ele>129.2</ele>
        <time>2022-09-20T08:19:37Z</time>
      </trkpt>
      <trkpt lat="43.98513" lon="0.24539">
        <ele>128.7</ele>
        <time>2022-09-20T08:19:41Z</time>
      </trkpt>
      <trkpt lat="43.98517" lon="0.24542">
        <ele>128.2</ele>
        <time>2022-09-20T08:19:44Z</time>
      </trkpt>
      <trkpt lat="43.9852" lon="0.24548">
        <ele>127.2</ele>
        <time>2022-09-20T08:19:48Z</time>
      </trkpt>
      <trkpt lat="43.98524" lon="0.24554">
        <ele>125.8</ele>
        <time>2022-09-20T08:19:53Z</time>
      </trkpt>
      <trkpt lat="43.98528" lon="0.24558">
        <ele>125.4</ele>
        <time>2022-09-20T08:19:57Z</time>
      </trkpt>
      <trkpt lat="43.98532" lon="0.24563">
        <ele>124.9</ele>
        <time>2022-09-20T08:20:02Z</time>
      </trkpt>
      <trkpt lat="43.98536" lon="0.24568">
        <ele>124</ele>
        <time>2022-09-20T08:20:07Z</time>
      </trkpt>
      <trkpt lat="43.98539" lon="0.24572">
        <ele>122.6</ele>
        <time>2022-09-20T08:20:13Z</time>
      </trkpt>
      <trkpt lat="43.98544" lon="0.24575">
        <ele>121.5</ele>
        <time>2022-09-20T08:20:18Z</time>
      </trkpt>
      <trkpt lat="43.98549" lon="0.24579">
        <ele>120.3</ele>
        <time>2022-09-20T08:20:23Z</time>
      </trkpt>
      <trkpt lat="43.98553" lon="0.24583">
        <ele>119.3</ele>
        <time>2022-09-20T08:20:27Z</time>
      </trkpt>
      <trkpt lat="43.98557" lon="0.24587">
        <ele>118.8</ele>
        <time>2022-09-20T08:20:31Z</time>
      </trkpt>
      <trkpt lat="43.98562" lon="0.24591">
        <ele>118.6</ele>
        <time>2022-09-20T08:20:35Z</time>
      </trkpt>
      <trkpt lat="43.98569" lon="0.24595">
        <ele>118.4</ele>
        <time>2022-09-20T08:21:14Z</time>
      </trkpt>
      <trkpt lat="43.98573" lon="0.24597">
        <ele>118.6</ele>
        <time>2022-09-20T08:21:18Z</time>
      </trkpt>
      <trkpt lat="43.98577" lon="0.24601">
        <ele>118.5</ele>
        <time>2022-09-20T08:21:22Z</time>
      </trkpt>
      <trkpt lat="43.98581" lon="0.24605">
        <ele>118.2</ele>
        <time>2022-09-20T08:21:26Z</time>
      </trkpt>
      <trkpt lat="43.98585" lon="0.24609">
        <ele>118.1</ele>
        <time>2022-09-20T08:21:30Z</time>
      </trkpt>
      <trkpt lat="43.98589" lon="0.24613">
        <ele>118</ele>
        <time>2022-09-20T08:21:35Z</time>
      </trkpt>
      <trkpt lat="43.98593" lon="0.24615">
        <ele>118</ele>
        <time>2022-09-20T08:21:40Z</time>
      </trkpt>
      <trkpt lat="43.98597" lon="0.24617">
        <ele>118.1</ele>
        <time>2022-09-20T08:21:46Z</time>
      </trkpt>
      <trkpt lat="43.98602" lon="0.2462">
        <ele>117.8</ele>
        <time>2022-09-20T08:21:51Z</time>
      </trkpt>
      <trkpt lat="43.98606" lon="0.24624">
        <ele>117.3</ele>
        <time>2022-09-20T08:21:56Z</time>
      </trkpt>
      <trkpt lat="43.9861" lon="0.24627">
        <ele>116.9</ele>
        <time>2022-09-20T08:22:00Z</time>
      </trkpt>
      <trkpt lat="43.98614" lon="0.2463">
        <ele>116.5</ele>
        <time>2022-09-20T08:22:04Z</time>
      </trkpt>
      <trkpt lat="43.98618" lon="0.24633">
        <ele>116</ele>
        <time>2022-09-20T08:22:08Z</time>
      </trkpt>
      <trkpt lat="43.98623" lon="0.24637">
        <ele>115.3</ele>
        <time>2022-09-20T08:22:13Z</time>
      </trkpt>
      <trkpt lat="43.98628" lon="0.2464">
        <ele>115.2</ele>
        <time>2022-09-20T08:22:18Z</time>
      </trkpt>
      <trkpt lat="43.98632" lon="0.24644">
        <ele>115.2</ele>
        <time>2022-09-20T08:22:23Z</time>
      </trkpt>
      <trkpt lat="43.98637" lon="0.24646">
        <ele>115.2</ele>
        <time>2022-09-20T08:22:28Z</time>
      </trkpt>
      <trkpt lat="43.98642" lon="0.24649">
        <ele>115.5</ele>
        <time>2022-09-20T08:22:33Z</time>
      </trkpt>
      <trkpt lat="43.98647" lon="0.24654">
        <ele>115.8</ele>
        <time>2022-09-20T08:22:38Z</time>
      </trkpt>
      <trkpt lat="43.98651" lon="0.24658">
        <ele>116.2</ele>
        <time>2022-09-20T08:22:42Z</time>
      </trkpt>
      <trkpt lat="43.98655" lon="0.24662">
        <ele>116.2</ele>
        <time>2022-09-20T08:22:46Z</time>
      </trkpt>
      <trkpt lat="43.98661" lon="0.24664">
        <ele>115.8</ele>
        <time>2022-09-20T08:22:51Z</time>
      </trkpt>
      <trkpt lat="43.98665" lon="0.24668">
        <ele>115.2</ele>
        <time>2022-09-20T08:22:56Z</time>
      </trkpt>
      <trkpt lat="43.98669" lon="0.24671">
        <ele>114.4</ele>
        <time>2022-09-20T08:23:01Z</time>
      </trkpt>
      <trkpt lat="43.98673" lon="0.24675">
        <ele>113.3</ele>
        <time>2022-09-20T08:23:06Z</time>
      </trkpt>
      <trkpt lat="43.98678" lon="0.24678">
        <ele>111.7</ele>
        <time>2022-09-20T08:23:11Z</time>
      </trkpt>
      <trkpt lat="43.98683" lon="0.24682">
        <ele>110.1</ele>
        <time>2022-09-20T08:23:15Z</time>
      </trkpt>
      <trkpt lat="43.98687" lon="0.24685">
        <ele>109</ele>
        <time>2022-09-20T08:23:19Z</time>
      </trkpt>
      <trkpt lat="43.98692" lon="0.24689">
        <ele>108</ele>
        <time>2022-09-20T08:23:24Z</time>
      </trkpt>
      <trkpt lat="43.98696" lon="0.24693">
        <ele>107.2</ele>
        <time>2022-09-20T08:23:29Z</time>
      </trkpt>
      <trkpt lat="43.987" lon="0.24698">
        <ele>106.7</ele>
        <time>2022-09-20T08:23:33Z</time>
      </trkpt>
      <trkpt lat="43.98703" lon="0.24703">
        <ele>106.2</ele>
        <time>2022-09-20T08:23:37Z</time>
      </trkpt>
      <trkpt lat="43.98706" lon="0.24708">
        <ele>105.4</ele>
        <time>2022-09-20T08:23:41Z</time>
      </trkpt>
      <trkpt lat="43.98709" lon="0.24713">
        <ele>104.7</ele>
        <time>2022-09-20T08:23:45Z</time>
      </trkpt>
      <trkpt lat="43.9871" lon="0.2472">
        <ele>103.7</ele>
        <time>2022-09-20T08:23:50Z</time>
      </trkpt>
      <trkpt lat="43.98711" lon="0.24727">
        <ele>103.1</ele>
        <time>2022-09-20T08:23:54Z</time>
      </trkpt>
      <trkpt lat="43.98713" lon="0.24735">
        <ele>102.4</ele>
        <time>2022-09-20T08:23:59Z</time>
      </trkpt>
      <trkpt lat="43.98714" lon="0.24741">
        <ele>101.9</ele>
        <time>2022-09-20T08:24:03Z</time>
      </trkpt>
      <trkpt lat="43.98714" lon="0.24747">
        <ele>101.6</ele>
        <time>2022-09-20T08:24:07Z</time>
      </trkpt>
      <trkpt lat="43.98716" lon="0.24754">
        <ele>101.3</ele>
        <time>2022-09-20T08:24:12Z</time>
      </trkpt>
      <trkpt lat="43.98718" lon="0.2476">
        <ele>101</ele>
        <time>2022-09-20T08:24:17Z</time>
      </trkpt>
      <trkpt lat="43.9872" lon="0.24766">
        <ele>100.3</ele>
        <time>2022-09-20T08:24:22Z</time>
      </trkpt>
      <trkpt lat="43.98722" lon="0.24773">
        <ele>99.9</ele>
        <time>2022-09-20T08:24:27Z</time>
      </trkpt>
      <trkpt lat="43.98724" lon="0.24779">
        <ele>99.8</ele>
        <time>2022-09-20T08:24:32Z</time>
      </trkpt>
      <trkpt lat="43.98726" lon="0.24786">
        <ele>99.9</ele>
        <time>2022-09-20T08:24:37Z</time>
      </trkpt>
      <trkpt lat="43.98728" lon="0.24793">
        <ele>100.3</ele>
        <time>2022-09-20T08:24:41Z</time>
      </trkpt>
      <trkpt lat="43.9873" lon="0.24799">
        <ele>100.8</ele>
        <time>2022-09-20T08:24:45Z</time>
      </trkpt>
      <trkpt lat="43.98734" lon="0.24805">
        <ele>101.1</ele>
        <time>2022-09-20T08:24:50Z</time>
      </trkpt>
      <trkpt lat="43.98737" lon="0.2481">
        <ele>101.5</ele>
        <time>2022-09-20T08:24:54Z</time>
      </trkpt>
      <trkpt lat="43.98741" lon="0.24815">
        <ele>102.5</ele>
        <time>2022-09-20T08:24:58Z</time>
      </trkpt>
      <trkpt lat="43.98745" lon="0.24819">
        <ele>104</ele>
        <time>2022-09-20T08:25:02Z</time>
      </trkpt>
      <trkpt lat="43.9875" lon="0.24821">
        <ele>105</ele>
        <time>2022-09-20T08:25:07Z</time>
      </trkpt>
      <trkpt lat="43.98755" lon="0.24819">
        <ele>105.2</ele>
        <time>2022-09-20T08:25:12Z</time>
      </trkpt>
      <trkpt lat="43.9876" lon="0.24817">
        <ele>105.1</ele>
        <time>2022-09-20T08:25:17Z</time>
      </trkpt>
      <trkpt lat="43.98765" lon="0.24814">
        <ele>105</ele>
        <time>2022-09-20T08:25:22Z</time>
      </trkpt>
      <trkpt lat="43.9877" lon="0.24811">
        <ele>104.6</ele>
        <time>2022-09-20T08:25:28Z</time>
      </trkpt>
      <trkpt lat="43.98775" lon="0.2481">
        <ele>104.1</ele>
        <time>2022-09-20T08:25:33Z</time>
      </trkpt>
      <trkpt lat="43.9878" lon="0.24807">
        <ele>103.6</ele>
        <time>2022-09-20T08:25:38Z</time>
      </trkpt>
      <trkpt lat="43.98785" lon="0.24804">
        <ele>103.7</ele>
        <time>2022-09-20T08:25:43Z</time>
      </trkpt>
      <trkpt lat="43.98789" lon="0.248">
        <ele>104.4</ele>
        <time>2022-09-20T08:25:49Z</time>
      </trkpt>
      <trkpt lat="43.98792" lon="0.24795">
        <ele>105.1</ele>
        <time>2022-09-20T08:25:54Z</time>
      </trkpt>
      <trkpt lat="43.98796" lon="0.24793">
        <ele>106.1</ele>
        <time>2022-09-20T08:25:59Z</time>
      </trkpt>
      <trkpt lat="43.98801" lon="0.24792">
        <ele>107.1</ele>
        <time>2022-09-20T08:26:03Z</time>
      </trkpt>
      <trkpt lat="43.98805" lon="0.2479">
        <ele>108.1</ele>
        <time>2022-09-20T08:26:07Z</time>
      </trkpt>
      <trkpt lat="43.9881" lon="0.24789">
        <ele>109.2</ele>
        <time>2022-09-20T08:26:12Z</time>
      </trkpt>
      <trkpt lat="43.98815" lon="0.24788">
        <ele>110.3</ele>
        <time>2022-09-20T08:26:16Z</time>
      </trkpt>
      <trkpt lat="43.9882" lon="0.24789">
        <ele>110.6</ele>
        <time>2022-09-20T08:26:20Z</time>
      </trkpt>
      <trkpt lat="43.98825" lon="0.24789">
        <ele>110.8</ele>
        <time>2022-09-20T08:26:24Z</time>
      </trkpt>
      <trkpt lat="43.9883" lon="0.24789">
        <ele>110.9</ele>
        <time>2022-09-20T08:26:28Z</time>
      </trkpt>
      <trkpt lat="43.98834" lon="0.2479">
        <ele>111.2</ele>
        <time>2022-09-20T08:26:32Z</time>
      </trkpt>
      <trkpt lat="43.98839" lon="0.24793">
        <ele>111.3</ele>
        <time>2022-09-20T08:26:37Z</time>
      </trkpt>
      <trkpt lat="43.98844" lon="0.24796">
        <ele>111.3</ele>
        <time>2022-09-20T08:26:42Z</time>
      </trkpt>
      <trkpt lat="43.98848" lon="0.24799">
        <ele>111.2</ele>
        <time>2022-09-20T08:26:46Z</time>
      </trkpt>
      <trkpt lat="43.98853" lon="0.24801">
        <ele>111.4</ele>
        <time>2022-09-20T08:26:50Z</time>
      </trkpt>
      <trkpt lat="43.98857" lon="0.24803">
        <ele>111.7</ele>
        <time>2022-09-20T08:26:54Z</time>
      </trkpt>
      <trkpt lat="43.98862" lon="0.24805">
        <ele>111.6</ele>
        <time>2022-09-20T08:26:59Z</time>
      </trkpt>
      <trkpt lat="43.98866" lon="0.24809">
        <ele>111.3</ele>
        <time>2022-09-20T08:27:04Z</time>
      </trkpt>
      <trkpt lat="43.9887" lon="0.24813">
        <ele>111.4</ele>
        <time>2022-09-20T08:27:09Z</time>
      </trkpt>
      <trkpt lat="43.98876" lon="0.24815">
        <ele>111.5</ele>
        <time>2022-09-20T08:27:14Z</time>
      </trkpt>
      <trkpt lat="43.9888" lon="0.24817">
        <ele>112</ele>
        <time>2022-09-20T08:27:18Z</time>
      </trkpt>
      <trkpt lat="43.98884" lon="0.24821">
        <ele>112.7</ele>
        <time>2022-09-20T08:27:23Z</time>
      </trkpt>
      <trkpt lat="43.98889" lon="0.24822">
        <ele>113.3</ele>
        <time>2022-09-20T08:27:27Z</time>
      </trkpt>
      <trkpt lat="43.98893" lon="0.24825">
        <ele>113.9</ele>
        <time>2022-09-20T08:27:32Z</time>
      </trkpt>
      <trkpt lat="43.98898" lon="0.24827">
        <ele>114</ele>
        <time>2022-09-20T08:27:36Z</time>
      </trkpt>
      <trkpt lat="43.98902" lon="0.24831">
        <ele>114</ele>
        <time>2022-09-20T08:27:40Z</time>
      </trkpt>
      <trkpt lat="43.98906" lon="0.24834">
        <ele>114.2</ele>
        <time>2022-09-20T08:27:44Z</time>
      </trkpt>
      <trkpt lat="43.9891" lon="0.24838">
        <ele>114.9</ele>
        <time>2022-09-20T08:27:50Z</time>
      </trkpt>
      <trkpt lat="43.98914" lon="0.24842">
        <ele>115.1</ele>
        <time>2022-09-20T08:27:56Z</time>
      </trkpt>
      <trkpt lat="43.98918" lon="0.24847">
        <ele>115.1</ele>
        <time>2022-09-20T08:28:01Z</time>
      </trkpt>
      <trkpt lat="43.98922" lon="0.24854">
        <ele>115.4</ele>
        <time>2022-09-20T08:28:05Z</time>
      </trkpt>
      <trkpt lat="43.98922" lon="0.24861">
        <ele>116.1</ele>
        <time>2022-09-20T08:28:10Z</time>
      </trkpt>
      <trkpt lat="43.98919" lon="0.24866">
        <ele>116.9</ele>
        <time>2022-09-20T08:28:16Z</time>
      </trkpt>
      <trkpt lat="43.98915" lon="0.24872">
        <ele>117.3</ele>
        <time>2022-09-20T08:28:22Z</time>
      </trkpt>
      <trkpt lat="43.98912" lon="0.24877">
        <ele>116.9</ele>
        <time>2022-09-20T08:28:27Z</time>
      </trkpt>
      <trkpt lat="43.98909" lon="0.24883">
        <ele>116.9</ele>
        <time>2022-09-20T08:28:31Z</time>
      </trkpt>
      <trkpt lat="43.98906" lon="0.2489">
        <ele>116.9</ele>
        <time>2022-09-20T08:28:36Z</time>
      </trkpt>
      <trkpt lat="43.98904" lon="0.24896">
        <ele>117.1</ele>
        <time>2022-09-20T08:28:41Z</time>
      </trkpt>
      <trkpt lat="43.98901" lon="0.24901">
        <ele>116.8</ele>
        <time>2022-09-20T08:28:46Z</time>
      </trkpt>
      <trkpt lat="43.98899" lon="0.24908">
        <ele>116.5</ele>
        <time>2022-09-20T08:28:52Z</time>
      </trkpt>
      <trkpt lat="43.98897" lon="0.24915">
        <ele>116.6</ele>
        <time>2022-09-20T08:28:57Z</time>
      </trkpt>
      <trkpt lat="43.98894" lon="0.24921">
        <ele>116.3</ele>
        <time>2022-09-20T08:29:02Z</time>
      </trkpt>
      <trkpt lat="43.98892" lon="0.24928">
        <ele>116.4</ele>
        <time>2022-09-20T08:29:07Z</time>
      </trkpt>
      <trkpt lat="43.98889" lon="0.24934">
        <ele>116.3</ele>
        <time>2022-09-20T08:29:11Z</time>
      </trkpt>
      <trkpt lat="43.98886" lon="0.24939">
        <ele>115.7</ele>
        <time>2022-09-20T08:29:15Z</time>
      </trkpt>
      <trkpt lat="43.98884" lon="0.24945">
        <ele>115.1</ele>
        <time>2022-09-20T08:29:21Z</time>
      </trkpt>
      <trkpt lat="43.9888" lon="0.24951">
        <ele>114</ele>
        <time>2022-09-20T08:29:26Z</time>
      </trkpt>
      <trkpt lat="43.98877" lon="0.24957">
        <ele>113.1</ele>
        <time>2022-09-20T08:29:30Z</time>
      </trkpt>
      <trkpt lat="43.98873" lon="0.24963">
        <ele>112.9</ele>
        <time>2022-09-20T08:29:34Z</time>
      </trkpt>
      <trkpt lat="43.98872" lon="0.2497">
        <ele>113.4</ele>
        <time>2022-09-20T08:29:39Z</time>
      </trkpt>
      <trkpt lat="43.98876" lon="0.24975">
        <ele>114.2</ele>
        <time>2022-09-20T08:29:45Z</time>
      </trkpt>
      <trkpt lat="43.98881" lon="0.24978">
        <ele>115.9</ele>
        <time>2022-09-20T08:29:53Z</time>
      </trkpt>
      <trkpt lat="43.98884" lon="0.24982">
        <ele>117.1</ele>
        <time>2022-09-20T08:29:58Z</time>
      </trkpt>
      <trkpt lat="43.98888" lon="0.24982">
        <ele>118.5</ele>
        <time>2022-09-20T08:30:38Z</time>
      </trkpt>
      <trkpt lat="43.98892" lon="0.24986">
        <ele>120</ele>
        <time>2022-09-20T08:30:55Z</time>
      </trkpt>
      <trkpt lat="43.98896" lon="0.24989">
        <ele>121.2</ele>
        <time>2022-09-20T08:31:01Z</time>
      </trkpt>
      <trkpt lat="43.98902" lon="0.24989">
        <ele>122.5</ele>
        <time>2022-09-20T08:31:06Z</time>
      </trkpt>
      <trkpt lat="43.98898" lon="0.24994">
        <ele>123.8</ele>
        <time>2022-09-20T08:31:32Z</time>
      </trkpt>
      <trkpt lat="43.98894" lon="0.24993">
        <ele>122.2</ele>
        <time>2022-09-20T08:31:41Z</time>
      </trkpt>
      <trkpt lat="43.98895" lon="0.25">
        <ele>119.9</ele>
        <time>2022-09-20T08:32:02Z</time>
      </trkpt>
      <trkpt lat="43.98893" lon="0.25005">
        <ele>119.7</ele>
        <time>2022-09-20T08:33:05Z</time>
      </trkpt>
      <trkpt lat="43.98888" lon="0.25006">
        <ele>119</ele>
        <time>2022-09-20T08:33:21Z</time>
      </trkpt>
      <trkpt lat="43.98888" lon="0.24999">
        <ele>114.2</ele>
        <time>2022-09-20T08:35:46Z</time>
      </trkpt>
      <trkpt lat="43.9889" lon="0.24993">
        <ele>113.2</ele>
        <time>2022-09-20T08:35:53Z</time>
      </trkpt>
      <trkpt lat="43.98887" lon="0.24998">
        <ele>117.8</ele>
        <time>2022-09-20T08:37:15Z</time>
      </trkpt>
      <trkpt lat="43.98889" lon="0.25005">
        <ele>117</ele>
        <time>2022-09-20T08:39:11Z</time>
      </trkpt>
      <trkpt lat="43.98885" lon="0.25007">
        <ele>115.2</ele>
        <time>2022-09-20T08:40:00Z</time>
      </trkpt>
      <trkpt lat="43.98889" lon="0.25006">
        <ele>115.8</ele>
        <time>2022-09-20T08:40:10Z</time>
      </trkpt>
      <trkpt lat="43.98887" lon="0.24999">
        <ele>117.1</ele>
        <time>2022-09-20T08:40:31Z</time>
      </trkpt>
      <trkpt lat="43.98888" lon="0.24993">
        <ele>116.4</ele>
        <time>2022-09-20T08:40:35Z</time>
      </trkpt>
      <trkpt lat="43.98893" lon="0.24996">
        <ele>114.9</ele>
        <time>2022-09-20T08:40:46Z</time>
      </trkpt>
      <trkpt lat="43.98896" lon="0.24991">
        <ele>115.1</ele>
        <time>2022-09-20T08:41:05Z</time>
      </trkpt>
      <trkpt lat="43.98891" lon="0.24992">
        <ele>118.4</ele>
        <time>2022-09-20T08:43:13Z</time>
      </trkpt>
      <trkpt lat="43.98887" lon="0.24988">
        <ele>118.5</ele>
        <time>2022-09-20T08:43:18Z</time>
      </trkpt>
      <trkpt lat="43.98884" lon="0.24983">
        <ele>118.9</ele>
        <time>2022-09-20T08:43:25Z</time>
      </trkpt>
      <trkpt lat="43.98881" lon="0.24987">
        <ele>119.8</ele>
        <time>2022-09-20T08:43:33Z</time>
      </trkpt>
      <trkpt lat="43.98877" lon="0.24991">
        <ele>120.1</ele>
        <time>2022-09-20T08:43:38Z</time>
      </trkpt>
      <trkpt lat="43.98874" lon="0.24996">
        <ele>120.1</ele>
        <time>2022-09-20T08:43:42Z</time>
      </trkpt>
      <trkpt lat="43.9887" lon="0.25">
        <ele>120.1</ele>
        <time>2022-09-20T08:43:51Z</time>
      </trkpt>
      <trkpt lat="43.98866" lon="0.25002">
        <ele>119.6</ele>
        <time>2022-09-20T08:44:19Z</time>
      </trkpt>
      <trkpt lat="43.98864" lon="0.25009">
        <ele>120.4</ele>
        <time>2022-09-20T08:44:25Z</time>
      </trkpt>
      <trkpt lat="43.98863" lon="0.25015">
        <ele>121.4</ele>
        <time>2022-09-20T08:44:29Z</time>
      </trkpt>
      <trkpt lat="43.98862" lon="0.25022">
        <ele>122.5</ele>
        <time>2022-09-20T08:44:33Z</time>
      </trkpt>
      <trkpt lat="43.98862" lon="0.25029">
        <ele>123.5</ele>
        <time>2022-09-20T08:44:41Z</time>
      </trkpt>
      <trkpt lat="43.98861" lon="0.25036">
        <ele>123.6</ele>
        <time>2022-09-20T08:44:47Z</time>
      </trkpt>
      <trkpt lat="43.9886" lon="0.25043">
        <ele>123</ele>
        <time>2022-09-20T08:44:53Z</time>
      </trkpt>
      <trkpt lat="43.9886" lon="0.2505">
        <ele>121.9</ele>
        <time>2022-09-20T08:44:59Z</time>
      </trkpt>
      <trkpt lat="43.98859" lon="0.25057">
        <ele>120.5</ele>
        <time>2022-09-20T08:45:08Z</time>
      </trkpt>
      <trkpt lat="43.98858" lon="0.25064">
        <ele>119.9</ele>
        <time>2022-09-20T08:45:13Z</time>
      </trkpt>
      <trkpt lat="43.98858" lon="0.2507">
        <ele>120.1</ele>
        <time>2022-09-20T08:45:17Z</time>
      </trkpt>
      <trkpt lat="43.98858" lon="0.25077">
        <ele>120.5</ele>
        <time>2022-09-20T08:45:25Z</time>
      </trkpt>
      <trkpt lat="43.98857" lon="0.25084">
        <ele>120.5</ele>
        <time>2022-09-20T08:45:30Z</time>
      </trkpt>
      <trkpt lat="43.98856" lon="0.25092">
        <ele>120.5</ele>
        <time>2022-09-20T08:45:34Z</time>
      </trkpt>
      <trkpt lat="43.98855" lon="0.25099">
        <ele>120.4</ele>
        <time>2022-09-20T08:45:38Z</time>
      </trkpt>
      <trkpt lat="43.98855" lon="0.25106">
        <ele>120.6</ele>
        <time>2022-09-20T08:45:43Z</time>
      </trkpt>
      <trkpt lat="43.98854" lon="0.25114">
        <ele>121.2</ele>
        <time>2022-09-20T08:45:48Z</time>
      </trkpt>
      <trkpt lat="43.98853" lon="0.2512">
        <ele>121.5</ele>
        <time>2022-09-20T08:45:53Z</time>
      </trkpt>
      <trkpt lat="43.98852" lon="0.25127">
        <ele>121.7</ele>
        <time>2022-09-20T08:45:58Z</time>
      </trkpt>
      <trkpt lat="43.98851" lon="0.25134">
        <ele>121.5</ele>
        <time>2022-09-20T08:46:04Z</time>
      </trkpt>
      <trkpt lat="43.9885" lon="0.25142">
        <ele>121.3</ele>
        <time>2022-09-20T08:46:08Z</time>
      </trkpt>
      <trkpt lat="43.98848" lon="0.25149">
        <ele>121.1</ele>
        <time>2022-09-20T08:46:11Z</time>
      </trkpt>
      <trkpt lat="43.98847" lon="0.25155">
        <ele>120.9</ele>
        <time>2022-09-20T08:46:14Z</time>
      </trkpt>
      <trkpt lat="43.98845" lon="0.25163">
        <ele>120.7</ele>
        <time>2022-09-20T08:46:18Z</time>
      </trkpt>
      <trkpt lat="43.98843" lon="0.2517">
        <ele>120.6</ele>
        <time>2022-09-20T08:46:22Z</time>
      </trkpt>
      <trkpt lat="43.98841" lon="0.25177">
        <ele>120.6</ele>
        <time>2022-09-20T08:46:25Z</time>
      </trkpt>
      <trkpt lat="43.98839" lon="0.25182">
        <ele>120.7</ele>
        <time>2022-09-20T08:46:28Z</time>
      </trkpt>
      <trkpt lat="43.98836" lon="0.25188">
        <ele>121</ele>
        <time>2022-09-20T08:46:32Z</time>
      </trkpt>
      <trkpt lat="43.98833" lon="0.25194">
        <ele>121.9</ele>
        <time>2022-09-20T08:46:38Z</time>
      </trkpt>
      <trkpt lat="43.98832" lon="0.25201">
        <ele>122.7</ele>
        <time>2022-09-20T08:46:42Z</time>
      </trkpt>
      <trkpt lat="43.98832" lon="0.25208">
        <ele>123.7</ele>
        <time>2022-09-20T08:46:46Z</time>
      </trkpt>
      <trkpt lat="43.98831" lon="0.25216">
        <ele>123.8</ele>
        <time>2022-09-20T08:46:50Z</time>
      </trkpt>
      <trkpt lat="43.98832" lon="0.25222">
        <ele>123.3</ele>
        <time>2022-09-20T08:46:54Z</time>
      </trkpt>
      <trkpt lat="43.98831" lon="0.25229">
        <ele>123.1</ele>
        <time>2022-09-20T08:46:58Z</time>
      </trkpt>
      <trkpt lat="43.9883" lon="0.25235">
        <ele>122.9</ele>
        <time>2022-09-20T08:47:03Z</time>
      </trkpt>
      <trkpt lat="43.98829" lon="0.25241">
        <ele>122.5</ele>
        <time>2022-09-20T08:47:07Z</time>
      </trkpt>
      <trkpt lat="43.98827" lon="0.25248">
        <ele>122.1</ele>
        <time>2022-09-20T08:47:11Z</time>
      </trkpt>
      <trkpt lat="43.98826" lon="0.25254">
        <ele>121.7</ele>
        <time>2022-09-20T08:47:15Z</time>
      </trkpt>
      <trkpt lat="43.98825" lon="0.25261">
        <ele>121.5</ele>
        <time>2022-09-20T08:47:20Z</time>
      </trkpt>
      <trkpt lat="43.98823" lon="0.25267">
        <ele>121.3</ele>
        <time>2022-09-20T08:47:24Z</time>
      </trkpt>
      <trkpt lat="43.98822" lon="0.25274">
        <ele>121.4</ele>
        <time>2022-09-20T08:47:29Z</time>
      </trkpt>
      <trkpt lat="43.98823" lon="0.2528">
        <ele>121.3</ele>
        <time>2022-09-20T08:47:38Z</time>
      </trkpt>
      <trkpt lat="43.98821" lon="0.25286">
        <ele>121.3</ele>
        <time>2022-09-20T08:47:44Z</time>
      </trkpt>
      <trkpt lat="43.98817" lon="0.2529">
        <ele>122.3</ele>
        <time>2022-09-20T08:47:53Z</time>
      </trkpt>
      <trkpt lat="43.98814" lon="0.25295">
        <ele>122.7</ele>
        <time>2022-09-20T08:47:59Z</time>
      </trkpt>
      <trkpt lat="43.98812" lon="0.25303">
        <ele>123.4</ele>
        <time>2022-09-20T08:48:03Z</time>
      </trkpt>
      <trkpt lat="43.98811" lon="0.2531">
        <ele>124.3</ele>
        <time>2022-09-20T08:48:06Z</time>
      </trkpt>
      <trkpt lat="43.98808" lon="0.25316">
        <ele>124.8</ele>
        <time>2022-09-20T08:48:09Z</time>
      </trkpt>
      <trkpt lat="43.98805" lon="0.25322">
        <ele>125.6</ele>
        <time>2022-09-20T08:48:13Z</time>
      </trkpt>
      <trkpt lat="43.98802" lon="0.25328">
        <ele>126.7</ele>
        <time>2022-09-20T08:48:18Z</time>
      </trkpt>
      <trkpt lat="43.988" lon="0.25335">
        <ele>127.5</ele>
        <time>2022-09-20T08:48:22Z</time>
      </trkpt>
      <trkpt lat="43.98799" lon="0.25342">
        <ele>128.2</ele>
        <time>2022-09-20T08:48:26Z</time>
      </trkpt>
      <trkpt lat="43.98797" lon="0.25347">
        <ele>128.3</ele>
        <time>2022-09-20T08:48:33Z</time>
      </trkpt>
      <trkpt lat="43.98794" lon="0.25354">
        <ele>128.2</ele>
        <time>2022-09-20T08:48:40Z</time>
      </trkpt>
      <trkpt lat="43.98793" lon="0.25361">
        <ele>128.1</ele>
        <time>2022-09-20T08:48:44Z</time>
      </trkpt>
      <trkpt lat="43.98792" lon="0.25367">
        <ele>128.2</ele>
        <time>2022-09-20T08:48:48Z</time>
      </trkpt>
      <trkpt lat="43.9879" lon="0.25373">
        <ele>128</ele>
        <time>2022-09-20T08:48:52Z</time>
      </trkpt>
      <trkpt lat="43.98789" lon="0.2538">
        <ele>128</ele>
        <time>2022-09-20T08:48:56Z</time>
      </trkpt>
      <trkpt lat="43.98787" lon="0.25387">
        <ele>127.9</ele>
        <time>2022-09-20T08:49:00Z</time>
      </trkpt>
      <trkpt lat="43.98787" lon="0.25393">
        <ele>128</ele>
        <time>2022-09-20T08:49:04Z</time>
      </trkpt>
      <trkpt lat="43.98785" lon="0.254">
        <ele>127.8</ele>
        <time>2022-09-20T08:49:08Z</time>
      </trkpt>
      <trkpt lat="43.98783" lon="0.25407">
        <ele>127.4</ele>
        <time>2022-09-20T08:49:13Z</time>
      </trkpt>
      <trkpt lat="43.98782" lon="0.25413">
        <ele>127.2</ele>
        <time>2022-09-20T08:49:17Z</time>
      </trkpt>
      <trkpt lat="43.9878" lon="0.2542">
        <ele>127.5</ele>
        <time>2022-09-20T08:49:21Z</time>
      </trkpt>
      <trkpt lat="43.98778" lon="0.25426">
        <ele>127.8</ele>
        <time>2022-09-20T08:49:25Z</time>
      </trkpt>
      <trkpt lat="43.98777" lon="0.25433">
        <ele>128.1</ele>
        <time>2022-09-20T08:49:29Z</time>
      </trkpt>
      <trkpt lat="43.98775" lon="0.2544">
        <ele>128.2</ele>
        <time>2022-09-20T08:49:33Z</time>
      </trkpt>
      <trkpt lat="43.98772" lon="0.25446">
        <ele>128.3</ele>
        <time>2022-09-20T08:49:38Z</time>
      </trkpt>
      <trkpt lat="43.98771" lon="0.25453">
        <ele>128.1</ele>
        <time>2022-09-20T08:49:43Z</time>
      </trkpt>
      <trkpt lat="43.98768" lon="0.25459">
        <ele>127.7</ele>
        <time>2022-09-20T08:49:47Z</time>
      </trkpt>
      <trkpt lat="43.98766" lon="0.25464">
        <ele>127.5</ele>
        <time>2022-09-20T08:49:50Z</time>
      </trkpt>
      <trkpt lat="43.98764" lon="0.25471">
        <ele>127.3</ele>
        <time>2022-09-20T08:49:54Z</time>
      </trkpt>
      <trkpt lat="43.98763" lon="0.25478">
        <ele>127.1</ele>
        <time>2022-09-20T08:49:58Z</time>
      </trkpt>
      <trkpt lat="43.98761" lon="0.25484">
        <ele>127.1</ele>
        <time>2022-09-20T08:50:02Z</time>
      </trkpt>
      <trkpt lat="43.98759" lon="0.2549">
        <ele>127.4</ele>
        <time>2022-09-20T08:50:06Z</time>
      </trkpt>
      <trkpt lat="43.98757" lon="0.25497">
        <ele>127.9</ele>
        <time>2022-09-20T08:50:10Z</time>
      </trkpt>
      <trkpt lat="43.98755" lon="0.25503">
        <ele>128.5</ele>
        <time>2022-09-20T08:50:14Z</time>
      </trkpt>
      <trkpt lat="43.98753" lon="0.25509">
        <ele>128.8</ele>
        <time>2022-09-20T08:50:18Z</time>
      </trkpt>
      <trkpt lat="43.98751" lon="0.25516">
        <ele>128.9</ele>
        <time>2022-09-20T08:50:22Z</time>
      </trkpt>
      <trkpt lat="43.98749" lon="0.25523">
        <ele>129.3</ele>
        <time>2022-09-20T08:50:26Z</time>
      </trkpt>
      <trkpt lat="43.98747" lon="0.25529">
        <ele>129.6</ele>
        <time>2022-09-20T08:50:30Z</time>
      </trkpt>
      <trkpt lat="43.98745" lon="0.25536">
        <ele>129.8</ele>
        <time>2022-09-20T08:50:34Z</time>
      </trkpt>
      <trkpt lat="43.98743" lon="0.25543">
        <ele>130</ele>
        <time>2022-09-20T08:50:38Z</time>
      </trkpt>
      <trkpt lat="43.98742" lon="0.25549">
        <ele>130.4</ele>
        <time>2022-09-20T08:50:42Z</time>
      </trkpt>
      <trkpt lat="43.98739" lon="0.25557">
        <ele>131</ele>
        <time>2022-09-20T08:50:46Z</time>
      </trkpt>
      <trkpt lat="43.98738" lon="0.25563">
        <ele>131.5</ele>
        <time>2022-09-20T08:50:50Z</time>
      </trkpt>
      <trkpt lat="43.98737" lon="0.2557">
        <ele>131.8</ele>
        <time>2022-09-20T08:50:54Z</time>
      </trkpt>
      <trkpt lat="43.98735" lon="0.25576">
        <ele>132</ele>
        <time>2022-09-20T08:50:58Z</time>
      </trkpt>
      <trkpt lat="43.98734" lon="0.25582">
        <ele>131.9</ele>
        <time>2022-09-20T08:51:02Z</time>
      </trkpt>
      <trkpt lat="43.98732" lon="0.25588">
        <ele>131.1</ele>
        <time>2022-09-20T08:51:07Z</time>
      </trkpt>
      <trkpt lat="43.98731" lon="0.25595">
        <ele>130.7</ele>
        <time>2022-09-20T08:51:11Z</time>
      </trkpt>
      <trkpt lat="43.98729" lon="0.25602">
        <ele>131</ele>
        <time>2022-09-20T08:51:15Z</time>
      </trkpt>
      <trkpt lat="43.98727" lon="0.2561">
        <ele>131.3</ele>
        <time>2022-09-20T08:51:19Z</time>
      </trkpt>
      <trkpt lat="43.98725" lon="0.25617">
        <ele>131.6</ele>
        <time>2022-09-20T08:51:23Z</time>
      </trkpt>
      <trkpt lat="43.98724" lon="0.25625">
        <ele>131.7</ele>
        <time>2022-09-20T08:51:28Z</time>
      </trkpt>
      <trkpt lat="43.98723" lon="0.25633">
        <ele>131.8</ele>
        <time>2022-09-20T08:51:32Z</time>
      </trkpt>
      <trkpt lat="43.98724" lon="0.2564">
        <ele>131.5</ele>
        <time>2022-09-20T08:51:36Z</time>
      </trkpt>
      <trkpt lat="43.98724" lon="0.25647">
        <ele>131.4</ele>
        <time>2022-09-20T08:51:40Z</time>
      </trkpt>
      <trkpt lat="43.98723" lon="0.25654">
        <ele>131.1</ele>
        <time>2022-09-20T08:51:45Z</time>
      </trkpt>
      <trkpt lat="43.98722" lon="0.2566">
        <ele>130.8</ele>
        <time>2022-09-20T08:51:49Z</time>
      </trkpt>
      <trkpt lat="43.98721" lon="0.25667">
        <ele>130.5</ele>
        <time>2022-09-20T08:51:53Z</time>
      </trkpt>
      <trkpt lat="43.9872" lon="0.25673">
        <ele>130.3</ele>
        <time>2022-09-20T08:51:57Z</time>
      </trkpt>
      <trkpt lat="43.9872" lon="0.25679">
        <ele>130.3</ele>
        <time>2022-09-20T08:52:00Z</time>
      </trkpt>
      <trkpt lat="43.98719" lon="0.25686">
        <ele>130.2</ele>
        <time>2022-09-20T08:52:04Z</time>
      </trkpt>
      <trkpt lat="43.98716" lon="0.25692">
        <ele>130.1</ele>
        <time>2022-09-20T08:52:09Z</time>
      </trkpt>
      <trkpt lat="43.98715" lon="0.25699">
        <ele>130.4</ele>
        <time>2022-09-20T08:52:13Z</time>
      </trkpt>
      <trkpt lat="43.98715" lon="0.25706">
        <ele>130.7</ele>
        <time>2022-09-20T08:52:18Z</time>
      </trkpt>
      <trkpt lat="43.98714" lon="0.25713">
        <ele>131</ele>
        <time>2022-09-20T08:52:23Z</time>
      </trkpt>
      <trkpt lat="43.98714" lon="0.25721">
        <ele>130.8</ele>
        <time>2022-09-20T08:52:27Z</time>
      </trkpt>
      <trkpt lat="43.98713" lon="0.25728">
        <ele>130.9</ele>
        <time>2022-09-20T08:52:31Z</time>
      </trkpt>
      <trkpt lat="43.98713" lon="0.25736">
        <ele>131.2</ele>
        <time>2022-09-20T08:52:35Z</time>
      </trkpt>
      <trkpt lat="43.98712" lon="0.25744">
        <ele>131.6</ele>
        <time>2022-09-20T08:52:39Z</time>
      </trkpt>
      <trkpt lat="43.9871" lon="0.25751">
        <ele>131.9</ele>
        <time>2022-09-20T08:52:43Z</time>
      </trkpt>
      <trkpt lat="43.98708" lon="0.25757">
        <ele>132.1</ele>
        <time>2022-09-20T08:52:47Z</time>
      </trkpt>
      <trkpt lat="43.98707" lon="0.25763">
        <ele>132.4</ele>
        <time>2022-09-20T08:52:51Z</time>
      </trkpt>
      <trkpt lat="43.98706" lon="0.2577">
        <ele>133</ele>
        <time>2022-09-20T08:52:55Z</time>
      </trkpt>
      <trkpt lat="43.98705" lon="0.25776">
        <ele>133.5</ele>
        <time>2022-09-20T08:52:59Z</time>
      </trkpt>
      <trkpt lat="43.98703" lon="0.25784">
        <ele>133.5</ele>
        <time>2022-09-20T08:53:03Z</time>
      </trkpt>
      <trkpt lat="43.98701" lon="0.25791">
        <ele>133.3</ele>
        <time>2022-09-20T08:53:07Z</time>
      </trkpt>
      <trkpt lat="43.98699" lon="0.25798">
        <ele>132.9</ele>
        <time>2022-09-20T08:53:11Z</time>
      </trkpt>
      <trkpt lat="43.98697" lon="0.25805">
        <ele>132.7</ele>
        <time>2022-09-20T08:53:15Z</time>
      </trkpt>
      <trkpt lat="43.98695" lon="0.25811">
        <ele>132.8</ele>
        <time>2022-09-20T08:53:20Z</time>
      </trkpt>
      <trkpt lat="43.98692" lon="0.25817">
        <ele>133.2</ele>
        <time>2022-09-20T08:53:24Z</time>
      </trkpt>
      <trkpt lat="43.98688" lon="0.25822">
        <ele>133.5</ele>
        <time>2022-09-20T08:53:28Z</time>
      </trkpt>
      <trkpt lat="43.98684" lon="0.25827">
        <ele>134.2</ele>
        <time>2022-09-20T08:53:32Z</time>
      </trkpt>
      <trkpt lat="43.9868" lon="0.25831">
        <ele>134.7</ele>
        <time>2022-09-20T08:53:35Z</time>
      </trkpt>
      <trkpt lat="43.98676" lon="0.25836">
        <ele>135.3</ele>
        <time>2022-09-20T08:53:39Z</time>
      </trkpt>
      <trkpt lat="43.98672" lon="0.25841">
        <ele>135.9</ele>
        <time>2022-09-20T08:53:43Z</time>
      </trkpt>
      <trkpt lat="43.98667" lon="0.25845">
        <ele>136.5</ele>
        <time>2022-09-20T08:53:47Z</time>
      </trkpt>
      <trkpt lat="43.98663" lon="0.25848">
        <ele>137.2</ele>
        <time>2022-09-20T08:53:52Z</time>
      </trkpt>
      <trkpt lat="43.98658" lon="0.25853">
        <ele>137.8</ele>
        <time>2022-09-20T08:53:56Z</time>
      </trkpt>
      <trkpt lat="43.98653" lon="0.25858">
        <ele>138.6</ele>
        <time>2022-09-20T08:54:00Z</time>
      </trkpt>
      <trkpt lat="43.98649" lon="0.25862">
        <ele>138.9</ele>
        <time>2022-09-20T08:54:03Z</time>
      </trkpt>
      <trkpt lat="43.98645" lon="0.25865">
        <ele>139.3</ele>
        <time>2022-09-20T08:54:07Z</time>
      </trkpt>
      <trkpt lat="43.98641" lon="0.2587">
        <ele>139.6</ele>
        <time>2022-09-20T08:54:11Z</time>
      </trkpt>
      <trkpt lat="43.98637" lon="0.25874">
        <ele>139.4</ele>
        <time>2022-09-20T08:54:14Z</time>
      </trkpt>
      <trkpt lat="43.98633" lon="0.25879">
        <ele>139.3</ele>
        <time>2022-09-20T08:54:18Z</time>
      </trkpt>
      <trkpt lat="43.98628" lon="0.25884">
        <ele>138.9</ele>
        <time>2022-09-20T08:54:23Z</time>
      </trkpt>
      <trkpt lat="43.98624" lon="0.25887">
        <ele>138.5</ele>
        <time>2022-09-20T08:54:27Z</time>
      </trkpt>
      <trkpt lat="43.9862" lon="0.25892">
        <ele>138.2</ele>
        <time>2022-09-20T08:54:31Z</time>
      </trkpt>
      <trkpt lat="43.98616" lon="0.25896">
        <ele>137.9</ele>
        <time>2022-09-20T08:54:34Z</time>
      </trkpt>
      <trkpt lat="43.98612" lon="0.25901">
        <ele>137.4</ele>
        <time>2022-09-20T08:54:38Z</time>
      </trkpt>
      <trkpt lat="43.98608" lon="0.25905">
        <ele>137.2</ele>
        <time>2022-09-20T08:54:42Z</time>
      </trkpt>
      <trkpt lat="43.98604" lon="0.25909">
        <ele>137.3</ele>
        <time>2022-09-20T08:54:46Z</time>
      </trkpt>
      <trkpt lat="43.98602" lon="0.25915">
        <ele>137.6</ele>
        <time>2022-09-20T08:54:50Z</time>
      </trkpt>
      <trkpt lat="43.98599" lon="0.25921">
        <ele>137.1</ele>
        <time>2022-09-20T08:54:55Z</time>
      </trkpt>
      <trkpt lat="43.98596" lon="0.25927">
        <ele>136.6</ele>
        <time>2022-09-20T08:55:00Z</time>
      </trkpt>
      <trkpt lat="43.98593" lon="0.25932">
        <ele>136.5</ele>
        <time>2022-09-20T08:55:03Z</time>
      </trkpt>
      <trkpt lat="43.9859" lon="0.25939">
        <ele>136.3</ele>
        <time>2022-09-20T08:55:06Z</time>
      </trkpt>
      <trkpt lat="43.98588" lon="0.25946">
        <ele>136.3</ele>
        <time>2022-09-20T08:55:09Z</time>
      </trkpt>
      <trkpt lat="43.98585" lon="0.25951">
        <ele>137.5</ele>
        <time>2022-09-20T08:55:13Z</time>
      </trkpt>
      <trkpt lat="43.98582" lon="0.25956">
        <ele>138.7</ele>
        <time>2022-09-20T08:55:19Z</time>
      </trkpt>
      <trkpt lat="43.98579" lon="0.25961">
        <ele>139.3</ele>
        <time>2022-09-20T08:55:23Z</time>
      </trkpt>
      <trkpt lat="43.98576" lon="0.25966">
        <ele>139.2</ele>
        <time>2022-09-20T08:55:26Z</time>
      </trkpt>
      <trkpt lat="43.98573" lon="0.25972">
        <ele>139</ele>
        <time>2022-09-20T08:55:29Z</time>
      </trkpt>
      <trkpt lat="43.9857" lon="0.25978">
        <ele>138.4</ele>
        <time>2022-09-20T08:55:33Z</time>
      </trkpt>
      <trkpt lat="43.98567" lon="0.25984">
        <ele>138.1</ele>
        <time>2022-09-20T08:55:39Z</time>
      </trkpt>
      <trkpt lat="43.98564" lon="0.25989">
        <ele>138.3</ele>
        <time>2022-09-20T08:55:43Z</time>
      </trkpt>
      <trkpt lat="43.98561" lon="0.25995">
        <ele>138.2</ele>
        <time>2022-09-20T08:55:47Z</time>
      </trkpt>
      <trkpt lat="43.98559" lon="0.26002">
        <ele>138.2</ele>
        <time>2022-09-20T08:55:51Z</time>
      </trkpt>
      <trkpt lat="43.98556" lon="0.26008">
        <ele>138.2</ele>
        <time>2022-09-20T08:55:55Z</time>
      </trkpt>
      <trkpt lat="43.98553" lon="0.26013">
        <ele>138.1</ele>
        <time>2022-09-20T08:55:59Z</time>
      </trkpt>
      <trkpt lat="43.9855" lon="0.2602">
        <ele>138.2</ele>
        <time>2022-09-20T08:56:04Z</time>
      </trkpt>
      <trkpt lat="43.98548" lon="0.26025">
        <ele>138.4</ele>
        <time>2022-09-20T08:56:08Z</time>
      </trkpt>
      <trkpt lat="43.98546" lon="0.26032">
        <ele>138.3</ele>
        <time>2022-09-20T08:56:13Z</time>
      </trkpt>
      <trkpt lat="43.98544" lon="0.26039">
        <ele>137.9</ele>
        <time>2022-09-20T08:56:19Z</time>
      </trkpt>
      <trkpt lat="43.98541" lon="0.26046">
        <ele>138.1</ele>
        <time>2022-09-20T08:56:23Z</time>
      </trkpt>
      <trkpt lat="43.98539" lon="0.26051">
        <ele>138.6</ele>
        <time>2022-09-20T08:56:27Z</time>
      </trkpt>
      <trkpt lat="43.98536" lon="0.26058">
        <ele>139</ele>
        <time>2022-09-20T08:56:32Z</time>
      </trkpt>
      <trkpt lat="43.98533" lon="0.26065">
        <ele>139.2</ele>
        <time>2022-09-20T08:56:37Z</time>
      </trkpt>
      <trkpt lat="43.9853" lon="0.26072">
        <ele>139.3</ele>
        <time>2022-09-20T08:56:41Z</time>
      </trkpt>
      <trkpt lat="43.98528" lon="0.26077">
        <ele>139.4</ele>
        <time>2022-09-20T08:56:44Z</time>
      </trkpt>
      <trkpt lat="43.98526" lon="0.26084">
        <ele>139.5</ele>
        <time>2022-09-20T08:56:48Z</time>
      </trkpt>
      <trkpt lat="43.98523" lon="0.2609">
        <ele>139.6</ele>
        <time>2022-09-20T08:56:54Z</time>
      </trkpt>
      <trkpt lat="43.98521" lon="0.26096">
        <ele>139.9</ele>
        <time>2022-09-20T08:56:59Z</time>
      </trkpt>
      <trkpt lat="43.98518" lon="0.26103">
        <ele>140.1</ele>
        <time>2022-09-20T08:57:03Z</time>
      </trkpt>
      <trkpt lat="43.98516" lon="0.2611">
        <ele>140.2</ele>
        <time>2022-09-20T08:57:06Z</time>
      </trkpt>
      <trkpt lat="43.98514" lon="0.26117">
        <ele>140.1</ele>
        <time>2022-09-20T08:57:09Z</time>
      </trkpt>
      <trkpt lat="43.98513" lon="0.26124">
        <ele>139.9</ele>
        <time>2022-09-20T08:57:13Z</time>
      </trkpt>
      <trkpt lat="43.98511" lon="0.26131">
        <ele>139.4</ele>
        <time>2022-09-20T08:57:18Z</time>
      </trkpt>
      <trkpt lat="43.98511" lon="0.26138">
        <ele>139.1</ele>
        <time>2022-09-20T08:57:23Z</time>
      </trkpt>
      <trkpt lat="43.98509" lon="0.26145">
        <ele>138.9</ele>
        <time>2022-09-20T08:57:27Z</time>
      </trkpt>
      <trkpt lat="43.98509" lon="0.26152">
        <ele>138.8</ele>
        <time>2022-09-20T08:57:31Z</time>
      </trkpt>
      <trkpt lat="43.98509" lon="0.26159">
        <ele>138.9</ele>
        <time>2022-09-20T08:57:36Z</time>
      </trkpt>
      <trkpt lat="43.98509" lon="0.26167">
        <ele>139.3</ele>
        <time>2022-09-20T08:57:42Z</time>
      </trkpt>
      <trkpt lat="43.98509" lon="0.26173">
        <ele>139.7</ele>
        <time>2022-09-20T08:57:47Z</time>
      </trkpt>
      <trkpt lat="43.9851" lon="0.2618">
        <ele>139.9</ele>
        <time>2022-09-20T08:58:46Z</time>
      </trkpt>
      <trkpt lat="43.98508" lon="0.26184">
        <ele>139.8</ele>
        <time>2022-09-20T08:59:10Z</time>
      </trkpt>
      <trkpt lat="43.98506" lon="0.26189">
        <ele>138.6</ele>
        <time>2022-09-20T09:05:58Z</time>
      </trkpt>
      <trkpt lat="43.98506" lon="0.26196">
        <ele>138.8</ele>
        <time>2022-09-20T09:06:03Z</time>
      </trkpt>
      <trkpt lat="43.98506" lon="0.26203">
        <ele>139.3</ele>
        <time>2022-09-20T09:06:11Z</time>
      </trkpt>
      <trkpt lat="43.98507" lon="0.26209">
        <ele>139.8</ele>
        <time>2022-09-20T09:06:29Z</time>
      </trkpt>
      <trkpt lat="43.98507" lon="0.26216">
        <ele>139.9</ele>
        <time>2022-09-20T09:06:35Z</time>
      </trkpt>
      <trkpt lat="43.98506" lon="0.26222">
        <ele>139.5</ele>
        <time>2022-09-20T09:06:47Z</time>
      </trkpt>
      <trkpt lat="43.98506" lon="0.2623">
        <ele>139.5</ele>
        <time>2022-09-20T09:06:53Z</time>
      </trkpt>
      <trkpt lat="43.98505" lon="0.26236">
        <ele>139.4</ele>
        <time>2022-09-20T09:06:58Z</time>
      </trkpt>
      <trkpt lat="43.98505" lon="0.26243">
        <ele>139.6</ele>
        <time>2022-09-20T09:07:04Z</time>
      </trkpt>
      <trkpt lat="43.98505" lon="0.2625">
        <ele>139.7</ele>
        <time>2022-09-20T09:07:08Z</time>
      </trkpt>
      <trkpt lat="43.98504" lon="0.26258">
        <ele>140.4</ele>
        <time>2022-09-20T09:07:13Z</time>
      </trkpt>
      <trkpt lat="43.98504" lon="0.26264">
        <ele>141.1</ele>
        <time>2022-09-20T09:07:19Z</time>
      </trkpt>
      <trkpt lat="43.98503" lon="0.26272">
        <ele>142.5</ele>
        <time>2022-09-20T09:07:26Z</time>
      </trkpt>
      <trkpt lat="43.98503" lon="0.26278">
        <ele>142.6</ele>
        <time>2022-09-20T09:07:30Z</time>
      </trkpt>
      <trkpt lat="43.98503" lon="0.26284">
        <ele>142.5</ele>
        <time>2022-09-20T09:07:34Z</time>
      </trkpt>
      <trkpt lat="43.98503" lon="0.26291">
        <ele>141.8</ele>
        <time>2022-09-20T09:07:38Z</time>
      </trkpt>
      <trkpt lat="43.98502" lon="0.26298">
        <ele>140.9</ele>
        <time>2022-09-20T09:07:42Z</time>
      </trkpt>
      <trkpt lat="43.98502" lon="0.26305">
        <ele>140.4</ele>
        <time>2022-09-20T09:07:46Z</time>
      </trkpt>
      <trkpt lat="43.98502" lon="0.26312">
        <ele>139.8</ele>
        <time>2022-09-20T09:07:50Z</time>
      </trkpt>
      <trkpt lat="43.98501" lon="0.26318">
        <ele>139.2</ele>
        <time>2022-09-20T09:07:55Z</time>
      </trkpt>
      <trkpt lat="43.98501" lon="0.26325">
        <ele>139</ele>
        <time>2022-09-20T09:08:00Z</time>
      </trkpt>
      <trkpt lat="43.98501" lon="0.26332">
        <ele>139.2</ele>
        <time>2022-09-20T09:08:04Z</time>
      </trkpt>
      <trkpt lat="43.985" lon="0.26339">
        <ele>139.3</ele>
        <time>2022-09-20T09:08:09Z</time>
      </trkpt>
      <trkpt lat="43.985" lon="0.26346">
        <ele>139.1</ele>
        <time>2022-09-20T09:08:14Z</time>
      </trkpt>
      <trkpt lat="43.98499" lon="0.26354">
        <ele>138.5</ele>
        <time>2022-09-20T09:08:19Z</time>
      </trkpt>
      <trkpt lat="43.98498" lon="0.26361">
        <ele>138.1</ele>
        <time>2022-09-20T09:08:23Z</time>
      </trkpt>
      <trkpt lat="43.98498" lon="0.26368">
        <ele>138.1</ele>
        <time>2022-09-20T09:08:27Z</time>
      </trkpt>
      <trkpt lat="43.98497" lon="0.26375">
        <ele>138.9</ele>
        <time>2022-09-20T09:08:32Z</time>
      </trkpt>
      <trkpt lat="43.98497" lon="0.26382">
        <ele>138.8</ele>
        <time>2022-09-20T09:08:37Z</time>
      </trkpt>
      <trkpt lat="43.98497" lon="0.26389">
        <ele>138.7</ele>
        <time>2022-09-20T09:08:42Z</time>
      </trkpt>
      <trkpt lat="43.98496" lon="0.26395">
        <ele>138.8</ele>
        <time>2022-09-20T09:08:47Z</time>
      </trkpt>
      <trkpt lat="43.98496" lon="0.26402">
        <ele>139.2</ele>
        <time>2022-09-20T09:08:53Z</time>
      </trkpt>
      <trkpt lat="43.98492" lon="0.26407">
        <ele>139.6</ele>
        <time>2022-09-20T09:08:58Z</time>
      </trkpt>
      <trkpt lat="43.98488" lon="0.26411">
        <ele>140.1</ele>
        <time>2022-09-20T09:09:02Z</time>
      </trkpt>
      <trkpt lat="43.98483" lon="0.26414">
        <ele>140.2</ele>
        <time>2022-09-20T09:09:06Z</time>
      </trkpt>
      <trkpt lat="43.98478" lon="0.26416">
        <ele>140.1</ele>
        <time>2022-09-20T09:09:10Z</time>
      </trkpt>
      <trkpt lat="43.98474" lon="0.26418">
        <ele>139.7</ele>
        <time>2022-09-20T09:09:15Z</time>
      </trkpt>
      <trkpt lat="43.98469" lon="0.2642">
        <ele>139.4</ele>
        <time>2022-09-20T09:09:19Z</time>
      </trkpt>
      <trkpt lat="43.98464" lon="0.26421">
        <ele>139.3</ele>
        <time>2022-09-20T09:09:23Z</time>
      </trkpt>
      <trkpt lat="43.98459" lon="0.26424">
        <ele>139.3</ele>
        <time>2022-09-20T09:09:27Z</time>
      </trkpt>
      <trkpt lat="43.98455" lon="0.26426">
        <ele>139.7</ele>
        <time>2022-09-20T09:09:31Z</time>
      </trkpt>
      <trkpt lat="43.9845" lon="0.26428">
        <ele>140</ele>
        <time>2022-09-20T09:09:35Z</time>
      </trkpt>
      <trkpt lat="43.98445" lon="0.2643">
        <ele>140</ele>
        <time>2022-09-20T09:09:40Z</time>
      </trkpt>
      <trkpt lat="43.9844" lon="0.26432">
        <ele>140.3</ele>
        <time>2022-09-20T09:09:45Z</time>
      </trkpt>
      <trkpt lat="43.98435" lon="0.26433">
        <ele>140.9</ele>
        <time>2022-09-20T09:09:50Z</time>
      </trkpt>
      <trkpt lat="43.9843" lon="0.26434">
        <ele>141.6</ele>
        <time>2022-09-20T09:09:55Z</time>
      </trkpt>
      <trkpt lat="43.98425" lon="0.26436">
        <ele>142.2</ele>
        <time>2022-09-20T09:10:00Z</time>
      </trkpt>
      <trkpt lat="43.9842" lon="0.26438">
        <ele>142.7</ele>
        <time>2022-09-20T09:10:05Z</time>
      </trkpt>
      <trkpt lat="43.98415" lon="0.26439">
        <ele>143.1</ele>
        <time>2022-09-20T09:10:10Z</time>
      </trkpt>
      <trkpt lat="43.9841" lon="0.26441">
        <ele>143.4</ele>
        <time>2022-09-20T09:10:15Z</time>
      </trkpt>
      <trkpt lat="43.98405" lon="0.26443">
        <ele>143.5</ele>
        <time>2022-09-20T09:10:20Z</time>
      </trkpt>
      <trkpt lat="43.984" lon="0.26444">
        <ele>144</ele>
        <time>2022-09-20T09:10:24Z</time>
      </trkpt>
      <trkpt lat="43.98396" lon="0.26445">
        <ele>144.5</ele>
        <time>2022-09-20T09:10:29Z</time>
      </trkpt>
      <trkpt lat="43.9839" lon="0.26445">
        <ele>145</ele>
        <time>2022-09-20T09:10:35Z</time>
      </trkpt>
      <trkpt lat="43.98386" lon="0.26444">
        <ele>146.1</ele>
        <time>2022-09-20T09:10:41Z</time>
      </trkpt>
      <trkpt lat="43.98381" lon="0.26445">
        <ele>146.9</ele>
        <time>2022-09-20T09:10:46Z</time>
      </trkpt>
      <trkpt lat="43.98376" lon="0.26446">
        <ele>147.8</ele>
        <time>2022-09-20T09:10:51Z</time>
      </trkpt>
      <trkpt lat="43.98371" lon="0.26448">
        <ele>148.5</ele>
        <time>2022-09-20T09:10:56Z</time>
      </trkpt>
      <trkpt lat="43.98366" lon="0.26448">
        <ele>148.6</ele>
        <time>2022-09-20T09:11:00Z</time>
      </trkpt>
      <trkpt lat="43.98361" lon="0.26448">
        <ele>148.3</ele>
        <time>2022-09-20T09:11:05Z</time>
      </trkpt>
      <trkpt lat="43.98356" lon="0.26448">
        <ele>147.9</ele>
        <time>2022-09-20T09:11:10Z</time>
      </trkpt>
      <trkpt lat="43.98352" lon="0.26449">
        <ele>147.6</ele>
        <time>2022-09-20T09:11:14Z</time>
      </trkpt>
      <trkpt lat="43.98347" lon="0.2645">
        <ele>147.4</ele>
        <time>2022-09-20T09:11:18Z</time>
      </trkpt>
      <trkpt lat="43.98342" lon="0.2645">
        <ele>147.3</ele>
        <time>2022-09-20T09:11:21Z</time>
      </trkpt>
      <trkpt lat="43.98337" lon="0.26452">
        <ele>147.7</ele>
        <time>2022-09-20T09:11:25Z</time>
      </trkpt>
      <trkpt lat="43.98332" lon="0.26452">
        <ele>148.4</ele>
        <time>2022-09-20T09:11:29Z</time>
      </trkpt>
      <trkpt lat="43.98327" lon="0.26451">
        <ele>148.8</ele>
        <time>2022-09-20T09:11:33Z</time>
      </trkpt>
      <trkpt lat="43.98321" lon="0.26449">
        <ele>148.7</ele>
        <time>2022-09-20T09:11:38Z</time>
      </trkpt>
      <trkpt lat="43.98316" lon="0.26449">
        <ele>148.2</ele>
        <time>2022-09-20T09:11:42Z</time>
      </trkpt>
      <trkpt lat="43.98312" lon="0.26449">
        <ele>147.6</ele>
        <time>2022-09-20T09:11:46Z</time>
      </trkpt>
      <trkpt lat="43.98307" lon="0.26448">
        <ele>146.9</ele>
        <time>2022-09-20T09:11:51Z</time>
      </trkpt>
      <trkpt lat="43.98302" lon="0.26448">
        <ele>146.5</ele>
        <time>2022-09-20T09:11:55Z</time>
      </trkpt>
      <trkpt lat="43.98297" lon="0.26448">
        <ele>146.5</ele>
        <time>2022-09-20T09:11:59Z</time>
      </trkpt>
      <trkpt lat="43.98291" lon="0.26447">
        <ele>146.7</ele>
        <time>2022-09-20T09:12:04Z</time>
      </trkpt>
      <trkpt lat="43.98287" lon="0.26446">
        <ele>147</ele>
        <time>2022-09-20T09:12:08Z</time>
      </trkpt>
      <trkpt lat="43.98282" lon="0.26446">
        <ele>147.6</ele>
        <time>2022-09-20T09:12:12Z</time>
      </trkpt>
      <trkpt lat="43.98277" lon="0.26446">
        <ele>148.4</ele>
        <time>2022-09-20T09:12:16Z</time>
      </trkpt>
      <trkpt lat="43.98272" lon="0.26447">
        <ele>149.6</ele>
        <time>2022-09-20T09:12:21Z</time>
      </trkpt>
      <trkpt lat="43.98266" lon="0.26446">
        <ele>150.1</ele>
        <time>2022-09-20T09:12:25Z</time>
      </trkpt>
      <trkpt lat="43.98261" lon="0.26446">
        <ele>150.2</ele>
        <time>2022-09-20T09:12:29Z</time>
      </trkpt>
      <trkpt lat="43.98256" lon="0.26446">
        <ele>149.6</ele>
        <time>2022-09-20T09:12:33Z</time>
      </trkpt>
      <trkpt lat="43.98251" lon="0.26446">
        <ele>149</ele>
        <time>2022-09-20T09:12:37Z</time>
      </trkpt>
      <trkpt lat="43.98246" lon="0.26445">
        <ele>148.3</ele>
        <time>2022-09-20T09:12:41Z</time>
      </trkpt>
      <trkpt lat="43.98241" lon="0.26445">
        <ele>148.1</ele>
        <time>2022-09-20T09:12:45Z</time>
      </trkpt>
      <trkpt lat="43.98236" lon="0.26443">
        <ele>148.4</ele>
        <time>2022-09-20T09:12:50Z</time>
      </trkpt>
      <trkpt lat="43.98231" lon="0.26443">
        <ele>148.9</ele>
        <time>2022-09-20T09:12:57Z</time>
      </trkpt>
      <trkpt lat="43.98226" lon="0.26443">
        <ele>149.3</ele>
        <time>2022-09-20T09:13:03Z</time>
      </trkpt>
      <trkpt lat="43.98221" lon="0.26447">
        <ele>149.5</ele>
        <time>2022-09-20T09:13:08Z</time>
      </trkpt>
      <trkpt lat="43.98217" lon="0.26452">
        <ele>149</ele>
        <time>2022-09-20T09:13:13Z</time>
      </trkpt>
      <trkpt lat="43.98213" lon="0.26456">
        <ele>147.8</ele>
        <time>2022-09-20T09:13:18Z</time>
      </trkpt>
      <trkpt lat="43.98209" lon="0.26459">
        <ele>147.2</ele>
        <time>2022-09-20T09:13:22Z</time>
      </trkpt>
      <trkpt lat="43.98205" lon="0.26464">
        <ele>146.9</ele>
        <time>2022-09-20T09:13:27Z</time>
      </trkpt>
      <trkpt lat="43.98202" lon="0.26469">
        <ele>146.9</ele>
        <time>2022-09-20T09:13:32Z</time>
      </trkpt>
      <trkpt lat="43.98199" lon="0.26474">
        <ele>147.1</ele>
        <time>2022-09-20T09:13:38Z</time>
      </trkpt>
      <trkpt lat="43.98195" lon="0.26478">
        <ele>147.2</ele>
        <time>2022-09-20T09:13:43Z</time>
      </trkpt>
      <trkpt lat="43.98191" lon="0.26479">
        <ele>148</ele>
        <time>2022-09-20T09:14:03Z</time>
      </trkpt>
      <trkpt lat="43.98187" lon="0.26483">
        <ele>148.7</ele>
        <time>2022-09-20T09:14:51Z</time>
      </trkpt>
      <trkpt lat="43.98184" lon="0.26489">
        <ele>148.4</ele>
        <time>2022-09-20T09:14:57Z</time>
      </trkpt>
      <trkpt lat="43.98181" lon="0.26494">
        <ele>147.9</ele>
        <time>2022-09-20T09:15:03Z</time>
      </trkpt>
      <trkpt lat="43.98176" lon="0.26496">
        <ele>147.8</ele>
        <time>2022-09-20T09:15:09Z</time>
      </trkpt>
      <trkpt lat="43.9817" lon="0.26497">
        <ele>148.1</ele>
        <time>2022-09-20T09:15:15Z</time>
      </trkpt>
      <trkpt lat="43.98166" lon="0.26493">
        <ele>149.3</ele>
        <time>2022-09-20T09:15:22Z</time>
      </trkpt>
      <trkpt lat="43.98163" lon="0.26489">
        <ele>151.2</ele>
        <time>2022-09-20T09:16:34Z</time>
      </trkpt>
      <trkpt lat="43.98159" lon="0.26484">
        <ele>153</ele>
        <time>2022-09-20T09:16:39Z</time>
      </trkpt>
      <trkpt lat="43.98155" lon="0.2648">
        <ele>154.4</ele>
        <time>2022-09-20T09:16:49Z</time>
      </trkpt>
      <trkpt lat="43.9815" lon="0.26477">
        <ele>153.7</ele>
        <time>2022-09-20T09:16:59Z</time>
      </trkpt>
      <trkpt lat="43.98146" lon="0.26474">
        <ele>152.1</ele>
        <time>2022-09-20T09:17:04Z</time>
      </trkpt>
      <trkpt lat="43.98141" lon="0.26471">
        <ele>150.5</ele>
        <time>2022-09-20T09:17:09Z</time>
      </trkpt>
      <trkpt lat="43.98136" lon="0.26469">
        <ele>149.8</ele>
        <time>2022-09-20T09:17:14Z</time>
      </trkpt>
      <trkpt lat="43.98132" lon="0.26467">
        <ele>149.3</ele>
        <time>2022-09-20T09:17:19Z</time>
      </trkpt>
      <trkpt lat="43.98127" lon="0.26465">
        <ele>149.1</ele>
        <time>2022-09-20T09:17:28Z</time>
      </trkpt>
      <trkpt lat="43.98123" lon="0.26462">
        <ele>149.7</ele>
        <time>2022-09-20T09:17:35Z</time>
      </trkpt>
      <trkpt lat="43.98118" lon="0.2646">
        <ele>150.9</ele>
        <time>2022-09-20T09:17:43Z</time>
      </trkpt>
      <trkpt lat="43.98114" lon="0.26457">
        <ele>151.4</ele>
        <time>2022-09-20T09:17:47Z</time>
      </trkpt>
      <trkpt lat="43.98109" lon="0.26455">
        <ele>151.7</ele>
        <time>2022-09-20T09:17:51Z</time>
      </trkpt>
      <trkpt lat="43.98104" lon="0.26453">
        <ele>151.9</ele>
        <time>2022-09-20T09:17:55Z</time>
      </trkpt>
      <trkpt lat="43.98099" lon="0.2645">
        <ele>152.1</ele>
        <time>2022-09-20T09:17:59Z</time>
      </trkpt>
      <trkpt lat="43.98095" lon="0.26447">
        <ele>152.5</ele>
        <time>2022-09-20T09:18:03Z</time>
      </trkpt>
      <trkpt lat="43.98091" lon="0.26444">
        <ele>152.9</ele>
        <time>2022-09-20T09:18:07Z</time>
      </trkpt>
      <trkpt lat="43.98086" lon="0.26441">
        <ele>153.4</ele>
        <time>2022-09-20T09:18:11Z</time>
      </trkpt>
      <trkpt lat="43.9808" lon="0.26438">
        <ele>153.8</ele>
        <time>2022-09-20T09:18:15Z</time>
      </trkpt>
      <trkpt lat="43.98076" lon="0.26435">
        <ele>153.9</ele>
        <time>2022-09-20T09:18:19Z</time>
      </trkpt>
      <trkpt lat="43.98071" lon="0.26433">
        <ele>154</ele>
        <time>2022-09-20T09:18:23Z</time>
      </trkpt>
      <trkpt lat="43.98067" lon="0.26431">
        <ele>153.9</ele>
        <time>2022-09-20T09:18:27Z</time>
      </trkpt>
      <trkpt lat="43.98062" lon="0.26427">
        <ele>153.9</ele>
        <time>2022-09-20T09:18:32Z</time>
      </trkpt>
      <trkpt lat="43.98057" lon="0.26425">
        <ele>154</ele>
        <time>2022-09-20T09:18:36Z</time>
      </trkpt>
      <trkpt lat="43.98052" lon="0.26422">
        <ele>154.8</ele>
        <time>2022-09-20T09:18:40Z</time>
      </trkpt>
      <trkpt lat="43.98047" lon="0.26421">
        <ele>155.9</ele>
        <time>2022-09-20T09:18:44Z</time>
      </trkpt>
      <trkpt lat="43.98041" lon="0.2642">
        <ele>157.3</ele>
        <time>2022-09-20T09:18:48Z</time>
      </trkpt>
      <trkpt lat="43.98035" lon="0.26419">
        <ele>158.3</ele>
        <time>2022-09-20T09:18:52Z</time>
      </trkpt>
      <trkpt lat="43.9803" lon="0.26419">
        <ele>159.3</ele>
        <time>2022-09-20T09:18:56Z</time>
      </trkpt>
      <trkpt lat="43.98025" lon="0.26419">
        <ele>160.1</ele>
        <time>2022-09-20T09:19:00Z</time>
      </trkpt>
      <trkpt lat="43.98019" lon="0.26421">
        <ele>160.1</ele>
        <time>2022-09-20T09:19:04Z</time>
      </trkpt>
      <trkpt lat="43.98015" lon="0.26423">
        <ele>159.5</ele>
        <time>2022-09-20T09:19:08Z</time>
      </trkpt>
      <trkpt lat="43.9801" lon="0.26426">
        <ele>158.4</ele>
        <time>2022-09-20T09:19:12Z</time>
      </trkpt>
      <trkpt lat="43.98006" lon="0.26429">
        <ele>157.3</ele>
        <time>2022-09-20T09:19:16Z</time>
      </trkpt>
      <trkpt lat="43.98001" lon="0.26431">
        <ele>155.9</ele>
        <time>2022-09-20T09:19:21Z</time>
      </trkpt>
      <trkpt lat="43.97996" lon="0.26434">
        <ele>155</ele>
        <time>2022-09-20T09:19:26Z</time>
      </trkpt>
      <trkpt lat="43.97992" lon="0.26437">
        <ele>155.2</ele>
        <time>2022-09-20T09:19:30Z</time>
      </trkpt>
      <trkpt lat="43.97987" lon="0.2644">
        <ele>155.3</ele>
        <time>2022-09-20T09:19:34Z</time>
      </trkpt>
      <trkpt lat="43.97982" lon="0.26443">
        <ele>155.6</ele>
        <time>2022-09-20T09:19:39Z</time>
      </trkpt>
      <trkpt lat="43.97977" lon="0.26446">
        <ele>155.9</ele>
        <time>2022-09-20T09:19:44Z</time>
      </trkpt>
      <trkpt lat="43.97972" lon="0.26448">
        <ele>156.3</ele>
        <time>2022-09-20T09:19:49Z</time>
      </trkpt>
      <trkpt lat="43.97968" lon="0.2645">
        <ele>156.7</ele>
        <time>2022-09-20T09:19:53Z</time>
      </trkpt>
      <trkpt lat="43.97962" lon="0.26453">
        <ele>156.6</ele>
        <time>2022-09-20T09:19:58Z</time>
      </trkpt>
      <trkpt lat="43.97958" lon="0.26456">
        <ele>156.5</ele>
        <time>2022-09-20T09:20:02Z</time>
      </trkpt>
      <trkpt lat="43.97953" lon="0.26458">
        <ele>156</ele>
        <time>2022-09-20T09:20:06Z</time>
      </trkpt>
      <trkpt lat="43.97948" lon="0.26459">
        <ele>155.4</ele>
        <time>2022-09-20T09:20:10Z</time>
      </trkpt>
      <trkpt lat="43.97943" lon="0.26461">
        <ele>154.8</ele>
        <time>2022-09-20T09:20:14Z</time>
      </trkpt>
      <trkpt lat="43.97937" lon="0.26463">
        <ele>154.4</ele>
        <time>2022-09-20T09:20:18Z</time>
      </trkpt>
      <trkpt lat="43.97933" lon="0.26465">
        <ele>153.7</ele>
        <time>2022-09-20T09:20:23Z</time>
      </trkpt>
      <trkpt lat="43.97928" lon="0.26469">
        <ele>153.2</ele>
        <time>2022-09-20T09:20:27Z</time>
      </trkpt>
      <trkpt lat="43.97923" lon="0.26472">
        <ele>152.8</ele>
        <time>2022-09-20T09:20:30Z</time>
      </trkpt>
      <trkpt lat="43.97918" lon="0.26475">
        <ele>152</ele>
        <time>2022-09-20T09:20:34Z</time>
      </trkpt>
      <trkpt lat="43.97913" lon="0.26478">
        <ele>151.1</ele>
        <time>2022-09-20T09:20:38Z</time>
      </trkpt>
      <trkpt lat="43.97908" lon="0.2648">
        <ele>150.5</ele>
        <time>2022-09-20T09:20:42Z</time>
      </trkpt>
      <trkpt lat="43.97903" lon="0.26482">
        <ele>150.4</ele>
        <time>2022-09-20T09:20:46Z</time>
      </trkpt>
      <trkpt lat="43.97898" lon="0.26484">
        <ele>150.8</ele>
        <time>2022-09-20T09:20:50Z</time>
      </trkpt>
      <trkpt lat="43.97893" lon="0.26487">
        <ele>150.6</ele>
        <time>2022-09-20T09:20:54Z</time>
      </trkpt>
      <trkpt lat="43.97888" lon="0.26489">
        <ele>149.7</ele>
        <time>2022-09-20T09:20:59Z</time>
      </trkpt>
      <trkpt lat="43.97883" lon="0.26492">
        <ele>149.1</ele>
        <time>2022-09-20T09:21:03Z</time>
      </trkpt>
      <trkpt lat="43.97878" lon="0.26496">
        <ele>148.4</ele>
        <time>2022-09-20T09:21:07Z</time>
      </trkpt>
      <trkpt lat="43.97875" lon="0.265">
        <ele>147.9</ele>
        <time>2022-09-20T09:21:11Z</time>
      </trkpt>
      <trkpt lat="43.9787" lon="0.26504">
        <ele>146.8</ele>
        <time>2022-09-20T09:21:15Z</time>
      </trkpt>
      <trkpt lat="43.97866" lon="0.26507">
        <ele>146.2</ele>
        <time>2022-09-20T09:21:18Z</time>
      </trkpt>
      <trkpt lat="43.97862" lon="0.2651">
        <ele>145.5</ele>
        <time>2022-09-20T09:21:21Z</time>
      </trkpt>
      <trkpt lat="43.97858" lon="0.26515">
        <ele>144.7</ele>
        <time>2022-09-20T09:21:25Z</time>
      </trkpt>
      <trkpt lat="43.97853" lon="0.26518">
        <ele>144.3</ele>
        <time>2022-09-20T09:21:29Z</time>
      </trkpt>
      <trkpt lat="43.97848" lon="0.2652">
        <ele>144.5</ele>
        <time>2022-09-20T09:21:34Z</time>
      </trkpt>
      <trkpt lat="43.97845" lon="0.26515">
        <ele>144.8</ele>
        <time>2022-09-20T09:21:39Z</time>
      </trkpt>
      <trkpt lat="43.97845" lon="0.26508">
        <ele>146.1</ele>
        <time>2022-09-20T09:21:43Z</time>
      </trkpt>
      <trkpt lat="43.97845" lon="0.26501">
        <ele>148.2</ele>
        <time>2022-09-20T09:21:48Z</time>
      </trkpt>
      <trkpt lat="43.97845" lon="0.26493">
        <ele>150.3</ele>
        <time>2022-09-20T09:21:53Z</time>
      </trkpt>
      <trkpt lat="43.97847" lon="0.26487">
        <ele>152</ele>
        <time>2022-09-20T09:21:58Z</time>
      </trkpt>
      <trkpt lat="43.97848" lon="0.2648">
        <ele>152.6</ele>
        <time>2022-09-20T09:22:02Z</time>
      </trkpt>
      <trkpt lat="43.97848" lon="0.26473">
        <ele>153.3</ele>
        <time>2022-09-20T09:22:05Z</time>
      </trkpt>
      <trkpt lat="43.97848" lon="0.26467">
        <ele>154.3</ele>
        <time>2022-09-20T09:22:09Z</time>
      </trkpt>
      <trkpt lat="43.97849" lon="0.2646">
        <ele>155.6</ele>
        <time>2022-09-20T09:22:16Z</time>
      </trkpt>
      <trkpt lat="43.9785" lon="0.26451">
        <ele>156</ele>
        <time>2022-09-20T09:22:21Z</time>
      </trkpt>
      <trkpt lat="43.9785" lon="0.26445">
        <ele>156.3</ele>
        <time>2022-09-20T09:22:24Z</time>
      </trkpt>
      <trkpt lat="43.97851" lon="0.26438">
        <ele>156.9</ele>
        <time>2022-09-20T09:22:28Z</time>
      </trkpt>
      <trkpt lat="43.97852" lon="0.26431">
        <ele>157.7</ele>
        <time>2022-09-20T09:22:33Z</time>
      </trkpt>
      <trkpt lat="43.97853" lon="0.26423">
        <ele>158.2</ele>
        <time>2022-09-20T09:22:37Z</time>
      </trkpt>
      <trkpt lat="43.97852" lon="0.26416">
        <ele>158.3</ele>
        <time>2022-09-20T09:22:41Z</time>
      </trkpt>
      <trkpt lat="43.97851" lon="0.26408">
        <ele>158.1</ele>
        <time>2022-09-20T09:22:45Z</time>
      </trkpt>
      <trkpt lat="43.9785" lon="0.26402">
        <ele>157.8</ele>
        <time>2022-09-20T09:22:49Z</time>
      </trkpt>
      <trkpt lat="43.97851" lon="0.26395">
        <ele>157.2</ele>
        <time>2022-09-20T09:22:53Z</time>
      </trkpt>
      <trkpt lat="43.97854" lon="0.26389">
        <ele>156.5</ele>
        <time>2022-09-20T09:22:57Z</time>
      </trkpt>
      <trkpt lat="43.97857" lon="0.26382">
        <ele>155.8</ele>
        <time>2022-09-20T09:23:01Z</time>
      </trkpt>
      <trkpt lat="43.97859" lon="0.26376">
        <ele>155.6</ele>
        <time>2022-09-20T09:23:06Z</time>
      </trkpt>
      <trkpt lat="43.97863" lon="0.26371">
        <ele>155.3</ele>
        <time>2022-09-20T09:23:10Z</time>
      </trkpt>
      <trkpt lat="43.97865" lon="0.26365">
        <ele>156</ele>
        <time>2022-09-20T09:23:17Z</time>
      </trkpt>
      <trkpt lat="43.97866" lon="0.26359">
        <ele>156.9</ele>
        <time>2022-09-20T09:23:23Z</time>
      </trkpt>
      <trkpt lat="43.97866" lon="0.26352">
        <ele>157.5</ele>
        <time>2022-09-20T09:23:31Z</time>
      </trkpt>
      <trkpt lat="43.9787" lon="0.26347">
        <ele>157.8</ele>
        <time>2022-09-20T09:23:35Z</time>
      </trkpt>
      <trkpt lat="43.97873" lon="0.26342">
        <ele>158.6</ele>
        <time>2022-09-20T09:23:41Z</time>
      </trkpt>
      <trkpt lat="43.97876" lon="0.26338">
        <ele>159.4</ele>
        <time>2022-09-20T09:23:46Z</time>
      </trkpt>
      <trkpt lat="43.97878" lon="0.26332">
        <ele>160.3</ele>
        <time>2022-09-20T09:23:51Z</time>
      </trkpt>
      <trkpt lat="43.9788" lon="0.26324">
        <ele>161</ele>
        <time>2022-09-20T09:23:56Z</time>
      </trkpt>
      <trkpt lat="43.97884" lon="0.26319">
        <ele>162.1</ele>
        <time>2022-09-20T09:24:01Z</time>
      </trkpt>
      <trkpt lat="43.97885" lon="0.26312">
        <ele>162.2</ele>
        <time>2022-09-20T09:24:16Z</time>
      </trkpt>
      <trkpt lat="43.97883" lon="0.26306">
        <ele>162.1</ele>
        <time>2022-09-20T09:24:24Z</time>
      </trkpt>
      <trkpt lat="43.97887" lon="0.26299">
        <ele>158</ele>
        <time>2022-09-20T09:25:36Z</time>
      </trkpt>
      <trkpt lat="43.97891" lon="0.26295">
        <ele>158.5</ele>
        <time>2022-09-20T09:25:41Z</time>
      </trkpt>
      <trkpt lat="43.97888" lon="0.263">
        <ele>159.4</ele>
        <time>2022-09-20T09:25:49Z</time>
      </trkpt>
      <trkpt lat="43.97889" lon="0.26294">
        <ele>159.6</ele>
        <time>2022-09-20T09:27:33Z</time>
      </trkpt>
      <trkpt lat="43.97885" lon="0.263">
        <ele>160.3</ele>
        <time>2022-09-20T09:27:51Z</time>
      </trkpt>
      <trkpt lat="43.97883" lon="0.26305">
        <ele>160.7</ele>
        <time>2022-09-20T09:27:57Z</time>
      </trkpt>
      <trkpt lat="43.97879" lon="0.263">
        <ele>157.7</ele>
        <time>2022-09-20T09:29:36Z</time>
      </trkpt>
      <trkpt lat="43.97875" lon="0.26295">
        <ele>157.8</ele>
        <time>2022-09-20T09:29:40Z</time>
      </trkpt>
      <trkpt lat="43.97872" lon="0.2629">
        <ele>158.2</ele>
        <time>2022-09-20T09:29:45Z</time>
      </trkpt>
      <trkpt lat="43.9787" lon="0.26283">
        <ele>158.7</ele>
        <time>2022-09-20T09:29:51Z</time>
      </trkpt>
      <trkpt lat="43.97868" lon="0.26277">
        <ele>159.4</ele>
        <time>2022-09-20T09:29:56Z</time>
      </trkpt>
      <trkpt lat="43.97865" lon="0.2627">
        <ele>160.4</ele>
        <time>2022-09-20T09:30:00Z</time>
      </trkpt>
      <trkpt lat="43.97862" lon="0.26264">
        <ele>161.2</ele>
        <time>2022-09-20T09:30:04Z</time>
      </trkpt>
      <trkpt lat="43.97859" lon="0.26259">
        <ele>162</ele>
        <time>2022-09-20T09:30:10Z</time>
      </trkpt>
      <trkpt lat="43.97856" lon="0.26253">
        <ele>162.5</ele>
        <time>2022-09-20T09:30:15Z</time>
      </trkpt>
      <trkpt lat="43.97853" lon="0.26248">
        <ele>164</ele>
        <time>2022-09-20T09:30:22Z</time>
      </trkpt>
      <trkpt lat="43.97851" lon="0.26242">
        <ele>164.5</ele>
        <time>2022-09-20T09:30:30Z</time>
      </trkpt>
      <trkpt lat="43.97847" lon="0.26238">
        <ele>164.8</ele>
        <time>2022-09-20T09:30:40Z</time>
      </trkpt>
      <trkpt lat="43.97846" lon="0.26232">
        <ele>166.2</ele>
        <time>2022-09-20T09:30:52Z</time>
      </trkpt>
      <trkpt lat="43.97846" lon="0.26226">
        <ele>166.2</ele>
        <time>2022-09-20T09:30:58Z</time>
      </trkpt>
      <trkpt lat="43.97847" lon="0.26219">
        <ele>165.6</ele>
        <time>2022-09-20T09:31:03Z</time>
      </trkpt>
      <trkpt lat="43.97848" lon="0.26212">
        <ele>164.6</ele>
        <time>2022-09-20T09:31:07Z</time>
      </trkpt>
      <trkpt lat="43.97847" lon="0.26205">
        <ele>163.8</ele>
        <time>2022-09-20T09:31:10Z</time>
      </trkpt>
      <trkpt lat="43.97846" lon="0.26198">
        <ele>162.5</ele>
        <time>2022-09-20T09:31:15Z</time>
      </trkpt>
      <trkpt lat="43.97844" lon="0.26191">
        <ele>161.8</ele>
        <time>2022-09-20T09:31:21Z</time>
      </trkpt>
      <trkpt lat="43.97842" lon="0.26184">
        <ele>161.7</ele>
        <time>2022-09-20T09:31:24Z</time>
      </trkpt>
      <trkpt lat="43.97841" lon="0.26178">
        <ele>161.3</ele>
        <time>2022-09-20T09:31:28Z</time>
      </trkpt>
      <trkpt lat="43.97838" lon="0.26171">
        <ele>161.1</ele>
        <time>2022-09-20T09:31:32Z</time>
      </trkpt>
      <trkpt lat="43.97836" lon="0.26164">
        <ele>160.9</ele>
        <time>2022-09-20T09:31:37Z</time>
      </trkpt>
      <trkpt lat="43.97834" lon="0.26157">
        <ele>161.3</ele>
        <time>2022-09-20T09:31:42Z</time>
      </trkpt>
      <trkpt lat="43.97833" lon="0.26149">
        <ele>162.2</ele>
        <time>2022-09-20T09:31:46Z</time>
      </trkpt>
      <trkpt lat="43.97831" lon="0.26143">
        <ele>163.6</ele>
        <time>2022-09-20T09:31:51Z</time>
      </trkpt>
      <trkpt lat="43.97829" lon="0.26136">
        <ele>164.7</ele>
        <time>2022-09-20T09:31:56Z</time>
      </trkpt>
      <trkpt lat="43.97827" lon="0.26129">
        <ele>165.6</ele>
        <time>2022-09-20T09:32:00Z</time>
      </trkpt>
      <trkpt lat="43.97826" lon="0.26122">
        <ele>165.8</ele>
        <time>2022-09-20T09:32:07Z</time>
      </trkpt>
      <trkpt lat="43.97824" lon="0.26116">
        <ele>165.6</ele>
        <time>2022-09-20T09:32:11Z</time>
      </trkpt>
      <trkpt lat="43.97821" lon="0.2611">
        <ele>165.9</ele>
        <time>2022-09-20T09:32:14Z</time>
      </trkpt>
      <trkpt lat="43.97817" lon="0.26106">
        <ele>166.6</ele>
        <time>2022-09-20T09:32:18Z</time>
      </trkpt>
      <trkpt lat="43.97815" lon="0.261">
        <ele>168</ele>
        <time>2022-09-20T09:32:24Z</time>
      </trkpt>
      <trkpt lat="43.97811" lon="0.26095">
        <ele>168.6</ele>
        <time>2022-09-20T09:32:29Z</time>
      </trkpt>
      <trkpt lat="43.97807" lon="0.26091">
        <ele>168.8</ele>
        <time>2022-09-20T09:32:34Z</time>
      </trkpt>
      <trkpt lat="43.97804" lon="0.26086">
        <ele>168.8</ele>
        <time>2022-09-20T09:32:39Z</time>
      </trkpt>
      <trkpt lat="43.97801" lon="0.26079">
        <ele>168.6</ele>
        <time>2022-09-20T09:32:43Z</time>
      </trkpt>
      <trkpt lat="43.97798" lon="0.26073">
        <ele>168.2</ele>
        <time>2022-09-20T09:32:47Z</time>
      </trkpt>
      <trkpt lat="43.97798" lon="0.26067">
        <ele>166.8</ele>
        <time>2022-09-20T09:32:55Z</time>
      </trkpt>
      <trkpt lat="43.97794" lon="0.26063">
        <ele>165</ele>
        <time>2022-09-20T09:33:00Z</time>
      </trkpt>
      <trkpt lat="43.97791" lon="0.26058">
        <ele>163.3</ele>
        <time>2022-09-20T09:33:04Z</time>
      </trkpt>
      <trkpt lat="43.97788" lon="0.26053">
        <ele>160.7</ele>
        <time>2022-09-20T09:33:10Z</time>
      </trkpt>
      <trkpt lat="43.97784" lon="0.26047">
        <ele>158.3</ele>
        <time>2022-09-20T09:33:15Z</time>
      </trkpt>
      <trkpt lat="43.9778" lon="0.26039">
        <ele>157.7</ele>
        <time>2022-09-20T09:33:18Z</time>
      </trkpt>
      <trkpt lat="43.97777" lon="0.26031">
        <ele>157.8</ele>
        <time>2022-09-20T09:33:21Z</time>
      </trkpt>
      <trkpt lat="43.97776" lon="0.26023">
        <ele>158.7</ele>
        <time>2022-09-20T09:33:25Z</time>
      </trkpt>
      <trkpt lat="43.97775" lon="0.26017">
        <ele>159.6</ele>
        <time>2022-09-20T09:33:29Z</time>
      </trkpt>
      <trkpt lat="43.97773" lon="0.26011">
        <ele>160.3</ele>
        <time>2022-09-20T09:33:36Z</time>
      </trkpt>
      <trkpt lat="43.9777" lon="0.26005">
        <ele>160.8</ele>
        <time>2022-09-20T09:33:42Z</time>
      </trkpt>
      <trkpt lat="43.97766" lon="0.26">
        <ele>161.3</ele>
        <time>2022-09-20T09:33:46Z</time>
      </trkpt>
      <trkpt lat="43.97761" lon="0.25995">
        <ele>162.1</ele>
        <time>2022-09-20T09:33:50Z</time>
      </trkpt>
      <trkpt lat="43.97756" lon="0.25994">
        <ele>162.7</ele>
        <time>2022-09-20T09:33:53Z</time>
      </trkpt>
      <trkpt lat="43.9775" lon="0.25993">
        <ele>163.3</ele>
        <time>2022-09-20T09:33:56Z</time>
      </trkpt>
      <trkpt lat="43.97746" lon="0.25993">
        <ele>163.7</ele>
        <time>2022-09-20T09:33:59Z</time>
      </trkpt>
      <trkpt lat="43.9774" lon="0.25992">
        <ele>163.9</ele>
        <time>2022-09-20T09:34:03Z</time>
      </trkpt>
      <trkpt lat="43.97735" lon="0.25991">
        <ele>164.2</ele>
        <time>2022-09-20T09:34:07Z</time>
      </trkpt>
      <trkpt lat="43.9773" lon="0.25988">
        <ele>164.7</ele>
        <time>2022-09-20T09:34:11Z</time>
      </trkpt>
      <trkpt lat="43.97726" lon="0.25985">
        <ele>164.8</ele>
        <time>2022-09-20T09:34:15Z</time>
      </trkpt>
      <trkpt lat="43.97722" lon="0.25983">
        <ele>165</ele>
        <time>2022-09-20T09:34:19Z</time>
      </trkpt>
      <trkpt lat="43.97717" lon="0.25982">
        <ele>165.2</ele>
        <time>2022-09-20T09:34:24Z</time>
      </trkpt>
      <trkpt lat="43.97711" lon="0.25981">
        <ele>165.3</ele>
        <time>2022-09-20T09:34:28Z</time>
      </trkpt>
      <trkpt lat="43.97706" lon="0.25978">
        <ele>165.6</ele>
        <time>2022-09-20T09:34:32Z</time>
      </trkpt>
      <trkpt lat="43.97701" lon="0.25975">
        <ele>165.8</ele>
        <time>2022-09-20T09:34:37Z</time>
      </trkpt>
      <trkpt lat="43.97697" lon="0.25972">
        <ele>166.3</ele>
        <time>2022-09-20T09:34:41Z</time>
      </trkpt>
      <trkpt lat="43.97693" lon="0.25969">
        <ele>167.2</ele>
        <time>2022-09-20T09:34:46Z</time>
      </trkpt>
      <trkpt lat="43.97687" lon="0.25967">
        <ele>168.1</ele>
        <time>2022-09-20T09:34:50Z</time>
      </trkpt>
      <trkpt lat="43.97682" lon="0.25966">
        <ele>168.4</ele>
        <time>2022-09-20T09:34:53Z</time>
      </trkpt>
      <trkpt lat="43.97677" lon="0.25964">
        <ele>168.3</ele>
        <time>2022-09-20T09:34:57Z</time>
      </trkpt>
      <trkpt lat="43.97672" lon="0.25961">
        <ele>167.8</ele>
        <time>2022-09-20T09:35:01Z</time>
      </trkpt>
      <trkpt lat="43.97668" lon="0.25958">
        <ele>166.2</ele>
        <time>2022-09-20T09:35:06Z</time>
      </trkpt>
      <trkpt lat="43.97664" lon="0.25955">
        <ele>165</ele>
        <time>2022-09-20T09:35:11Z</time>
      </trkpt>
      <trkpt lat="43.9766" lon="0.2595">
        <ele>164.3</ele>
        <time>2022-09-20T09:35:17Z</time>
      </trkpt>
      <trkpt lat="43.97658" lon="0.25943">
        <ele>163.8</ele>
        <time>2022-09-20T09:35:22Z</time>
      </trkpt>
      <trkpt lat="43.97656" lon="0.25937">
        <ele>163</ele>
        <time>2022-09-20T09:35:26Z</time>
      </trkpt>
      <trkpt lat="43.97655" lon="0.25929">
        <ele>162.1</ele>
        <time>2022-09-20T09:35:31Z</time>
      </trkpt>
      <trkpt lat="43.97654" lon="0.25922">
        <ele>162</ele>
        <time>2022-09-20T09:35:36Z</time>
      </trkpt>
      <trkpt lat="43.97652" lon="0.25915">
        <ele>162.2</ele>
        <time>2022-09-20T09:35:40Z</time>
      </trkpt>
      <trkpt lat="43.9765" lon="0.25909">
        <ele>163</ele>
        <time>2022-09-20T09:35:44Z</time>
      </trkpt>
      <trkpt lat="43.97649" lon="0.25903">
        <ele>163.8</ele>
        <time>2022-09-20T09:35:48Z</time>
      </trkpt>
      <trkpt lat="43.97646" lon="0.25896">
        <ele>164.4</ele>
        <time>2022-09-20T09:35:53Z</time>
      </trkpt>
      <trkpt lat="43.97645" lon="0.25889">
        <ele>164.3</ele>
        <time>2022-09-20T09:35:57Z</time>
      </trkpt>
      <trkpt lat="43.97645" lon="0.25881">
        <ele>164</ele>
        <time>2022-09-20T09:36:01Z</time>
      </trkpt>
      <trkpt lat="43.97644" lon="0.25874">
        <ele>163.8</ele>
        <time>2022-09-20T09:36:05Z</time>
      </trkpt>
      <trkpt lat="43.97642" lon="0.25868">
        <ele>163.1</ele>
        <time>2022-09-20T09:36:10Z</time>
      </trkpt>
      <trkpt lat="43.9764" lon="0.25862">
        <ele>162.4</ele>
        <time>2022-09-20T09:36:14Z</time>
      </trkpt>
      <trkpt lat="43.97638" lon="0.25855">
        <ele>161.5</ele>
        <time>2022-09-20T09:36:19Z</time>
      </trkpt>
      <trkpt lat="43.97637" lon="0.25848">
        <ele>160.7</ele>
        <time>2022-09-20T09:36:24Z</time>
      </trkpt>
      <trkpt lat="43.97636" lon="0.25842">
        <ele>159.9</ele>
        <time>2022-09-20T09:36:29Z</time>
      </trkpt>
      <trkpt lat="43.97635" lon="0.25835">
        <ele>158.8</ele>
        <time>2022-09-20T09:36:34Z</time>
      </trkpt>
      <trkpt lat="43.97634" lon="0.25828">
        <ele>157.7</ele>
        <time>2022-09-20T09:36:38Z</time>
      </trkpt>
      <trkpt lat="43.97632" lon="0.25822">
        <ele>156.8</ele>
        <time>2022-09-20T09:36:42Z</time>
      </trkpt>
      <trkpt lat="43.97632" lon="0.25815">
        <ele>155.6</ele>
        <time>2022-09-20T09:36:48Z</time>
      </trkpt>
      <trkpt lat="43.9763" lon="0.25808">
        <ele>154.9</ele>
        <time>2022-09-20T09:36:54Z</time>
      </trkpt>
      <trkpt lat="43.97629" lon="0.25802">
        <ele>154.8</ele>
        <time>2022-09-20T09:36:58Z</time>
      </trkpt>
      <trkpt lat="43.97627" lon="0.25794">
        <ele>154.8</ele>
        <time>2022-09-20T09:37:02Z</time>
      </trkpt>
      <trkpt lat="43.97625" lon="0.25788">
        <ele>155</ele>
        <time>2022-09-20T09:37:05Z</time>
      </trkpt>
      <trkpt lat="43.97624" lon="0.25781">
        <ele>155.5</ele>
        <time>2022-09-20T09:37:09Z</time>
      </trkpt>
      <trkpt lat="43.97622" lon="0.25774">
        <ele>155.6</ele>
        <time>2022-09-20T09:37:13Z</time>
      </trkpt>
      <trkpt lat="43.9762" lon="0.25767">
        <ele>155.8</ele>
        <time>2022-09-20T09:37:17Z</time>
      </trkpt>
      <trkpt lat="43.97619" lon="0.25759">
        <ele>155.9</ele>
        <time>2022-09-20T09:37:21Z</time>
      </trkpt>
      <trkpt lat="43.97618" lon="0.25753">
        <ele>155.6</ele>
        <time>2022-09-20T09:37:24Z</time>
      </trkpt>
      <trkpt lat="43.97617" lon="0.25746">
        <ele>155</ele>
        <time>2022-09-20T09:37:28Z</time>
      </trkpt>
      <trkpt lat="43.97616" lon="0.2574">
        <ele>154.7</ele>
        <time>2022-09-20T09:37:32Z</time>
      </trkpt>
      <trkpt lat="43.97614" lon="0.25733">
        <ele>154.5</ele>
        <time>2022-09-20T09:37:36Z</time>
      </trkpt>
      <trkpt lat="43.97612" lon="0.25727">
        <ele>154.3</ele>
        <time>2022-09-20T09:37:42Z</time>
      </trkpt>
      <trkpt lat="43.9761" lon="0.2572">
        <ele>154.4</ele>
        <time>2022-09-20T09:37:47Z</time>
      </trkpt>
      <trkpt lat="43.97609" lon="0.25713">
        <ele>154.5</ele>
        <time>2022-09-20T09:37:52Z</time>
      </trkpt>
      <trkpt lat="43.97609" lon="0.25706">
        <ele>154.5</ele>
        <time>2022-09-20T09:37:56Z</time>
      </trkpt>
      <trkpt lat="43.97609" lon="0.25699">
        <ele>154</ele>
        <time>2022-09-20T09:38:01Z</time>
      </trkpt>
      <trkpt lat="43.97608" lon="0.25692">
        <ele>153.5</ele>
        <time>2022-09-20T09:38:06Z</time>
      </trkpt>
      <trkpt lat="43.97606" lon="0.25685">
        <ele>153</ele>
        <time>2022-09-20T09:38:10Z</time>
      </trkpt>
      <trkpt lat="43.97604" lon="0.25677">
        <ele>152.5</ele>
        <time>2022-09-20T09:38:14Z</time>
      </trkpt>
      <trkpt lat="43.97603" lon="0.25671">
        <ele>152.1</ele>
        <time>2022-09-20T09:38:18Z</time>
      </trkpt>
      <trkpt lat="43.97602" lon="0.25665">
        <ele>152</ele>
        <time>2022-09-20T09:38:23Z</time>
      </trkpt>
      <trkpt lat="43.97599" lon="0.25658">
        <ele>152</ele>
        <time>2022-09-20T09:38:28Z</time>
      </trkpt>
      <trkpt lat="43.97598" lon="0.25652">
        <ele>152.2</ele>
        <time>2022-09-20T09:38:34Z</time>
      </trkpt>
      <trkpt lat="43.97597" lon="0.25645">
        <ele>152.2</ele>
        <time>2022-09-20T09:38:38Z</time>
      </trkpt>
      <trkpt lat="43.97596" lon="0.25637">
        <ele>151.8</ele>
        <time>2022-09-20T09:38:42Z</time>
      </trkpt>
      <trkpt lat="43.97595" lon="0.25629">
        <ele>151</ele>
        <time>2022-09-20T09:38:46Z</time>
      </trkpt>
      <trkpt lat="43.97596" lon="0.25622">
        <ele>150.2</ele>
        <time>2022-09-20T09:38:51Z</time>
      </trkpt>
      <trkpt lat="43.97596" lon="0.25615">
        <ele>149.7</ele>
        <time>2022-09-20T09:38:55Z</time>
      </trkpt>
      <trkpt lat="43.97597" lon="0.25609">
        <ele>149.1</ele>
        <time>2022-09-20T09:38:59Z</time>
      </trkpt>
      <trkpt lat="43.97597" lon="0.25602">
        <ele>148.7</ele>
        <time>2022-09-20T09:39:02Z</time>
      </trkpt>
      <trkpt lat="43.97597" lon="0.25595">
        <ele>148.6</ele>
        <time>2022-09-20T09:39:06Z</time>
      </trkpt>
      <trkpt lat="43.97597" lon="0.25589">
        <ele>148.5</ele>
        <time>2022-09-20T09:39:10Z</time>
      </trkpt>
      <trkpt lat="43.97597" lon="0.25582">
        <ele>148.5</ele>
        <time>2022-09-20T09:39:14Z</time>
      </trkpt>
      <trkpt lat="43.97596" lon="0.25574">
        <ele>148.7</ele>
        <time>2022-09-20T09:39:19Z</time>
      </trkpt>
      <trkpt lat="43.97596" lon="0.25567">
        <ele>149.4</ele>
        <time>2022-09-20T09:39:23Z</time>
      </trkpt>
      <trkpt lat="43.97596" lon="0.2556">
        <ele>150.1</ele>
        <time>2022-09-20T09:39:27Z</time>
      </trkpt>
      <trkpt lat="43.97596" lon="0.25553">
        <ele>150.6</ele>
        <time>2022-09-20T09:39:31Z</time>
      </trkpt>
      <trkpt lat="43.97597" lon="0.25546">
        <ele>151.2</ele>
        <time>2022-09-20T09:39:35Z</time>
      </trkpt>
      <trkpt lat="43.97598" lon="0.25539">
        <ele>151.2</ele>
        <time>2022-09-20T09:39:42Z</time>
      </trkpt>
      <trkpt lat="43.97598" lon="0.25533">
        <ele>151.5</ele>
        <time>2022-09-20T09:39:47Z</time>
      </trkpt>
      <trkpt lat="43.97598" lon="0.25525">
        <ele>152</ele>
        <time>2022-09-20T09:39:51Z</time>
      </trkpt>
      <trkpt lat="43.97597" lon="0.25518">
        <ele>152.8</ele>
        <time>2022-09-20T09:39:56Z</time>
      </trkpt>
      <trkpt lat="43.97597" lon="0.25511">
        <ele>154.1</ele>
        <time>2022-09-20T09:40:02Z</time>
      </trkpt>
      <trkpt lat="43.97598" lon="0.25503">
        <ele>154.7</ele>
        <time>2022-09-20T09:40:07Z</time>
      </trkpt>
      <trkpt lat="43.976" lon="0.25497">
        <ele>155</ele>
        <time>2022-09-20T09:40:11Z</time>
      </trkpt>
      <trkpt lat="43.97601" lon="0.2549">
        <ele>155.2</ele>
        <time>2022-09-20T09:40:15Z</time>
      </trkpt>
      <trkpt lat="43.97601" lon="0.25483">
        <ele>155.4</ele>
        <time>2022-09-20T09:40:19Z</time>
      </trkpt>
      <trkpt lat="43.97601" lon="0.25476">
        <ele>156.1</ele>
        <time>2022-09-20T09:40:24Z</time>
      </trkpt>
      <trkpt lat="43.97602" lon="0.25469">
        <ele>156.2</ele>
        <time>2022-09-20T09:40:29Z</time>
      </trkpt>
      <trkpt lat="43.97602" lon="0.25463">
        <ele>155.7</ele>
        <time>2022-09-20T09:40:34Z</time>
      </trkpt>
      <trkpt lat="43.97604" lon="0.25455">
        <ele>155.5</ele>
        <time>2022-09-20T09:40:40Z</time>
      </trkpt>
      <trkpt lat="43.97604" lon="0.25448">
        <ele>155.7</ele>
        <time>2022-09-20T09:40:44Z</time>
      </trkpt>
      <trkpt lat="43.97604" lon="0.25441">
        <ele>156.2</ele>
        <time>2022-09-20T09:40:48Z</time>
      </trkpt>
      <trkpt lat="43.97605" lon="0.25434">
        <ele>156.8</ele>
        <time>2022-09-20T09:40:53Z</time>
      </trkpt>
      <trkpt lat="43.97606" lon="0.25428">
        <ele>157.1</ele>
        <time>2022-09-20T09:40:57Z</time>
      </trkpt>
      <trkpt lat="43.97609" lon="0.25421">
        <ele>157.2</ele>
        <time>2022-09-20T09:41:01Z</time>
      </trkpt>
      <trkpt lat="43.9761" lon="0.25414">
        <ele>157.4</ele>
        <time>2022-09-20T09:41:05Z</time>
      </trkpt>
      <trkpt lat="43.97612" lon="0.25407">
        <ele>157.3</ele>
        <time>2022-09-20T09:41:10Z</time>
      </trkpt>
      <trkpt lat="43.97615" lon="0.25402">
        <ele>156.9</ele>
        <time>2022-09-20T09:41:14Z</time>
      </trkpt>
      <trkpt lat="43.97618" lon="0.25396">
        <ele>156.1</ele>
        <time>2022-09-20T09:41:19Z</time>
      </trkpt>
      <trkpt lat="43.9762" lon="0.2539">
        <ele>155.4</ele>
        <time>2022-09-20T09:41:23Z</time>
      </trkpt>
      <trkpt lat="43.97623" lon="0.25383">
        <ele>154.5</ele>
        <time>2022-09-20T09:41:28Z</time>
      </trkpt>
      <trkpt lat="43.97625" lon="0.25378">
        <ele>154.2</ele>
        <time>2022-09-20T09:41:32Z</time>
      </trkpt>
      <trkpt lat="43.97627" lon="0.2537">
        <ele>154.5</ele>
        <time>2022-09-20T09:41:36Z</time>
      </trkpt>
      <trkpt lat="43.97628" lon="0.25364">
        <ele>155.2</ele>
        <time>2022-09-20T09:41:40Z</time>
      </trkpt>
      <trkpt lat="43.9763" lon="0.25357">
        <ele>155.8</ele>
        <time>2022-09-20T09:41:44Z</time>
      </trkpt>
      <trkpt lat="43.97632" lon="0.25351">
        <ele>155.9</ele>
        <time>2022-09-20T09:41:48Z</time>
      </trkpt>
      <trkpt lat="43.97636" lon="0.25345">
        <ele>155.8</ele>
        <time>2022-09-20T09:41:54Z</time>
      </trkpt>
      <trkpt lat="43.97638" lon="0.25339">
        <ele>156.1</ele>
        <time>2022-09-20T09:41:59Z</time>
      </trkpt>
      <trkpt lat="43.9764" lon="0.25333">
        <ele>156.4</ele>
        <time>2022-09-20T09:42:04Z</time>
      </trkpt>
      <trkpt lat="43.97643" lon="0.25328">
        <ele>156.4</ele>
        <time>2022-09-20T09:42:08Z</time>
      </trkpt>
      <trkpt lat="43.97646" lon="0.25322">
        <ele>156.2</ele>
        <time>2022-09-20T09:42:13Z</time>
      </trkpt>
      <trkpt lat="43.97648" lon="0.25316">
        <ele>155.7</ele>
        <time>2022-09-20T09:42:17Z</time>
      </trkpt>
      <trkpt lat="43.97649" lon="0.2531">
        <ele>155.1</ele>
        <time>2022-09-20T09:42:21Z</time>
      </trkpt>
      <trkpt lat="43.97651" lon="0.25303">
        <ele>154.1</ele>
        <time>2022-09-20T09:42:26Z</time>
      </trkpt>
      <trkpt lat="43.97652" lon="0.25296">
        <ele>152.6</ele>
        <time>2022-09-20T09:42:31Z</time>
      </trkpt>
      <trkpt lat="43.97655" lon="0.2529">
        <ele>151.8</ele>
        <time>2022-09-20T09:42:36Z</time>
      </trkpt>
      <trkpt lat="43.97657" lon="0.25284">
        <ele>151.6</ele>
        <time>2022-09-20T09:42:40Z</time>
      </trkpt>
      <trkpt lat="43.97658" lon="0.25277">
        <ele>151.5</ele>
        <time>2022-09-20T09:42:44Z</time>
      </trkpt>
      <trkpt lat="43.9766" lon="0.2527">
        <ele>151.6</ele>
        <time>2022-09-20T09:42:48Z</time>
      </trkpt>
      <trkpt lat="43.97663" lon="0.25265">
        <ele>151.8</ele>
        <time>2022-09-20T09:42:53Z</time>
      </trkpt>
      <trkpt lat="43.97666" lon="0.25258">
        <ele>152</ele>
        <time>2022-09-20T09:42:58Z</time>
      </trkpt>
      <trkpt lat="43.97667" lon="0.25251">
        <ele>152.2</ele>
        <time>2022-09-20T09:43:02Z</time>
      </trkpt>
      <trkpt lat="43.97668" lon="0.25244">
        <ele>152.2</ele>
        <time>2022-09-20T09:43:06Z</time>
      </trkpt>
      <trkpt lat="43.97669" lon="0.25237">
        <ele>151.4</ele>
        <time>2022-09-20T09:43:11Z</time>
      </trkpt>
      <trkpt lat="43.97674" lon="0.25237">
        <ele>150</ele>
        <time>2022-09-20T09:43:19Z</time>
      </trkpt>
      <trkpt lat="43.97679" lon="0.25239">
        <ele>149.3</ele>
        <time>2022-09-20T09:43:23Z</time>
      </trkpt>
      <trkpt lat="43.97684" lon="0.2524">
        <ele>148.7</ele>
        <time>2022-09-20T09:43:27Z</time>
      </trkpt>
      <trkpt lat="43.97689" lon="0.25242">
        <ele>148.5</ele>
        <time>2022-09-20T09:43:30Z</time>
      </trkpt>
      <trkpt lat="43.97693" lon="0.25243">
        <ele>148.5</ele>
        <time>2022-09-20T09:43:33Z</time>
      </trkpt>
      <trkpt lat="43.97698" lon="0.25244">
        <ele>148.6</ele>
        <time>2022-09-20T09:43:37Z</time>
      </trkpt>
      <trkpt lat="43.97703" lon="0.25244">
        <ele>148.7</ele>
        <time>2022-09-20T09:43:43Z</time>
      </trkpt>
      <trkpt lat="43.97708" lon="0.25245">
        <ele>149.1</ele>
        <time>2022-09-20T09:43:48Z</time>
      </trkpt>
      <trkpt lat="43.97713" lon="0.25246">
        <ele>149.3</ele>
        <time>2022-09-20T09:43:52Z</time>
      </trkpt>
      <trkpt lat="43.97718" lon="0.25247">
        <ele>149.5</ele>
        <time>2022-09-20T09:43:56Z</time>
      </trkpt>
      <trkpt lat="43.97724" lon="0.25246">
        <ele>149.5</ele>
        <time>2022-09-20T09:44:01Z</time>
      </trkpt>
      <trkpt lat="43.97729" lon="0.25245">
        <ele>149.4</ele>
        <time>2022-09-20T09:44:05Z</time>
      </trkpt>
      <trkpt lat="43.97734" lon="0.25244">
        <ele>149.7</ele>
        <time>2022-09-20T09:44:09Z</time>
      </trkpt>
      <trkpt lat="43.97739" lon="0.25242">
        <ele>149.7</ele>
        <time>2022-09-20T09:44:15Z</time>
      </trkpt>
      <trkpt lat="43.97744" lon="0.25241">
        <ele>149.3</ele>
        <time>2022-09-20T09:44:19Z</time>
      </trkpt>
      <trkpt lat="43.97748" lon="0.25241">
        <ele>148.9</ele>
        <time>2022-09-20T09:44:23Z</time>
      </trkpt>
      <trkpt lat="43.97753" lon="0.25241">
        <ele>148.6</ele>
        <time>2022-09-20T09:44:28Z</time>
      </trkpt>
      <trkpt lat="43.97758" lon="0.25241">
        <ele>148.7</ele>
        <time>2022-09-20T09:44:34Z</time>
      </trkpt>
      <trkpt lat="43.97763" lon="0.25241">
        <ele>149</ele>
        <time>2022-09-20T09:44:39Z</time>
      </trkpt>
      <trkpt lat="43.97768" lon="0.2524">
        <ele>149.3</ele>
        <time>2022-09-20T09:44:44Z</time>
      </trkpt>
      <trkpt lat="43.97772" lon="0.2524">
        <ele>149.6</ele>
        <time>2022-09-20T09:44:47Z</time>
      </trkpt>
      <trkpt lat="43.97777" lon="0.25239">
        <ele>149.9</ele>
        <time>2022-09-20T09:44:50Z</time>
      </trkpt>
      <trkpt lat="43.97782" lon="0.25237">
        <ele>150.2</ele>
        <time>2022-09-20T09:44:53Z</time>
      </trkpt>
      <trkpt lat="43.97787" lon="0.25236">
        <ele>150.7</ele>
        <time>2022-09-20T09:44:58Z</time>
      </trkpt>
      <trkpt lat="43.97792" lon="0.25234">
        <ele>150.8</ele>
        <time>2022-09-20T09:45:03Z</time>
      </trkpt>
      <trkpt lat="43.97797" lon="0.25231">
        <ele>151</ele>
        <time>2022-09-20T09:45:08Z</time>
      </trkpt>
      <trkpt lat="43.97802" lon="0.2523">
        <ele>151.4</ele>
        <time>2022-09-20T09:45:12Z</time>
      </trkpt>
      <trkpt lat="43.97807" lon="0.25229">
        <ele>151.6</ele>
        <time>2022-09-20T09:45:16Z</time>
      </trkpt>
      <trkpt lat="43.97813" lon="0.25229">
        <ele>151.7</ele>
        <time>2022-09-20T09:45:20Z</time>
      </trkpt>
      <trkpt lat="43.97818" lon="0.25229">
        <ele>152</ele>
        <time>2022-09-20T09:45:24Z</time>
      </trkpt>
      <trkpt lat="43.97822" lon="0.25228">
        <ele>152.3</ele>
        <time>2022-09-20T09:45:28Z</time>
      </trkpt>
      <trkpt lat="43.97827" lon="0.25228">
        <ele>152.4</ele>
        <time>2022-09-20T09:45:32Z</time>
      </trkpt>
      <trkpt lat="43.97831" lon="0.25229">
        <ele>153.5</ele>
        <time>2022-09-20T09:45:37Z</time>
      </trkpt>
      <trkpt lat="43.97836" lon="0.25231">
        <ele>154.7</ele>
        <time>2022-09-20T09:45:42Z</time>
      </trkpt>
      <trkpt lat="43.97841" lon="0.25234">
        <ele>155.6</ele>
        <time>2022-09-20T09:45:46Z</time>
      </trkpt>
      <trkpt lat="43.97846" lon="0.25238">
        <ele>156.5</ele>
        <time>2022-09-20T09:45:50Z</time>
      </trkpt>
      <trkpt lat="43.97851" lon="0.25241">
        <ele>157.6</ele>
        <time>2022-09-20T09:45:54Z</time>
      </trkpt>
      <trkpt lat="43.97854" lon="0.25246">
        <ele>159.2</ele>
        <time>2022-09-20T09:45:59Z</time>
      </trkpt>
      <trkpt lat="43.97856" lon="0.25253">
        <ele>160.9</ele>
        <time>2022-09-20T09:46:04Z</time>
      </trkpt>
      <trkpt lat="43.97858" lon="0.25259">
        <ele>162.7</ele>
        <time>2022-09-20T09:46:09Z</time>
      </trkpt>
      <trkpt lat="43.9786" lon="0.25265">
        <ele>164</ele>
        <time>2022-09-20T09:46:13Z</time>
      </trkpt>
      <trkpt lat="43.97861" lon="0.25272">
        <ele>165.1</ele>
        <time>2022-09-20T09:46:17Z</time>
      </trkpt>
      <trkpt lat="43.97863" lon="0.25279">
        <ele>165.8</ele>
        <time>2022-09-20T09:46:21Z</time>
      </trkpt>
      <trkpt lat="43.97866" lon="0.25285">
        <ele>167.2</ele>
        <time>2022-09-20T09:46:27Z</time>
      </trkpt>
      <trkpt lat="43.9787" lon="0.25288">
        <ele>168.1</ele>
        <time>2022-09-20T09:46:32Z</time>
      </trkpt>
      <trkpt lat="43.97874" lon="0.25291">
        <ele>169</ele>
        <time>2022-09-20T09:46:35Z</time>
      </trkpt>
      <trkpt lat="43.97878" lon="0.25296">
        <ele>170.3</ele>
        <time>2022-09-20T09:46:41Z</time>
      </trkpt>
      <trkpt lat="43.97881" lon="0.25301">
        <ele>171.1</ele>
        <time>2022-09-20T09:46:46Z</time>
      </trkpt>
      <trkpt lat="43.97885" lon="0.25304">
        <ele>171.3</ele>
        <time>2022-09-20T09:46:51Z</time>
      </trkpt>
      <trkpt lat="43.97889" lon="0.25308">
        <ele>169.1</ele>
        <time>2022-09-20T09:48:02Z</time>
      </trkpt>
      <trkpt lat="43.97885" lon="0.25302">
        <ele>168.4</ele>
        <time>2022-09-20T09:48:23Z</time>
      </trkpt>
      <trkpt lat="43.97884" lon="0.25296">
        <ele>166.1</ele>
        <time>2022-09-20T09:49:31Z</time>
      </trkpt>
      <trkpt lat="43.97888" lon="0.25292">
        <ele>165.7</ele>
        <time>2022-09-20T09:51:44Z</time>
      </trkpt>
      <trkpt lat="43.97891" lon="0.25285">
        <ele>165.3</ele>
        <time>2022-09-20T09:51:50Z</time>
      </trkpt>
      <trkpt lat="43.97893" lon="0.25279">
        <ele>165.3</ele>
        <time>2022-09-20T09:51:55Z</time>
      </trkpt>
      <trkpt lat="43.97895" lon="0.25273">
        <ele>165</ele>
        <time>2022-09-20T09:52:02Z</time>
      </trkpt>
      <trkpt lat="43.97897" lon="0.25267">
        <ele>164.6</ele>
        <time>2022-09-20T09:52:07Z</time>
      </trkpt>
      <trkpt lat="43.97899" lon="0.25262">
        <ele>163.7</ele>
        <time>2022-09-20T09:52:13Z</time>
      </trkpt>
      <trkpt lat="43.97902" lon="0.25257">
        <ele>162.5</ele>
        <time>2022-09-20T09:52:18Z</time>
      </trkpt>
      <trkpt lat="43.97904" lon="0.25251">
        <ele>161.6</ele>
        <time>2022-09-20T09:52:22Z</time>
      </trkpt>
      <trkpt lat="43.97906" lon="0.25244">
        <ele>160.6</ele>
        <time>2022-09-20T09:52:27Z</time>
      </trkpt>
      <trkpt lat="43.97908" lon="0.25237">
        <ele>160.3</ele>
        <time>2022-09-20T09:52:32Z</time>
      </trkpt>
      <trkpt lat="43.9791" lon="0.25232">
        <ele>160.5</ele>
        <time>2022-09-20T09:52:37Z</time>
      </trkpt>
      <trkpt lat="43.97912" lon="0.25225">
        <ele>160.9</ele>
        <time>2022-09-20T09:52:42Z</time>
      </trkpt>
      <trkpt lat="43.97915" lon="0.25219">
        <ele>161.1</ele>
        <time>2022-09-20T09:52:46Z</time>
      </trkpt>
      <trkpt lat="43.97917" lon="0.25212">
        <ele>161.3</ele>
        <time>2022-09-20T09:52:50Z</time>
      </trkpt>
      <trkpt lat="43.97919" lon="0.25206">
        <ele>161.3</ele>
        <time>2022-09-20T09:52:54Z</time>
      </trkpt>
      <trkpt lat="43.97922" lon="0.25201">
        <ele>160.7</ele>
        <time>2022-09-20T09:52:58Z</time>
      </trkpt>
      <trkpt lat="43.97924" lon="0.25195">
        <ele>160</ele>
        <time>2022-09-20T09:53:02Z</time>
      </trkpt>
      <trkpt lat="43.97926" lon="0.25188">
        <ele>158.8</ele>
        <time>2022-09-20T09:53:07Z</time>
      </trkpt>
      <trkpt lat="43.97929" lon="0.25184">
        <ele>157</ele>
        <time>2022-09-20T09:53:12Z</time>
      </trkpt>
      <trkpt lat="43.97931" lon="0.25178">
        <ele>155.2</ele>
        <time>2022-09-20T09:53:18Z</time>
      </trkpt>
      <trkpt lat="43.97933" lon="0.25171">
        <ele>153.4</ele>
        <time>2022-09-20T09:53:24Z</time>
      </trkpt>
      <trkpt lat="43.97935" lon="0.25165">
        <ele>152.4</ele>
        <time>2022-09-20T09:53:28Z</time>
      </trkpt>
      <trkpt lat="43.97938" lon="0.25159">
        <ele>151.5</ele>
        <time>2022-09-20T09:53:32Z</time>
      </trkpt>
      <trkpt lat="43.97941" lon="0.25154">
        <ele>151.2</ele>
        <time>2022-09-20T09:53:35Z</time>
      </trkpt>
      <trkpt lat="43.97943" lon="0.25147">
        <ele>151.2</ele>
        <time>2022-09-20T09:53:39Z</time>
      </trkpt>
      <trkpt lat="43.97945" lon="0.25141">
        <ele>151.6</ele>
        <time>2022-09-20T09:53:43Z</time>
      </trkpt>
      <trkpt lat="43.97946" lon="0.25135">
        <ele>152.6</ele>
        <time>2022-09-20T09:53:48Z</time>
      </trkpt>
      <trkpt lat="43.97948" lon="0.25129">
        <ele>153.7</ele>
        <time>2022-09-20T09:53:52Z</time>
      </trkpt>
      <trkpt lat="43.9795" lon="0.25123">
        <ele>155.1</ele>
        <time>2022-09-20T09:53:57Z</time>
      </trkpt>
      <trkpt lat="43.97953" lon="0.25117">
        <ele>155.7</ele>
        <time>2022-09-20T09:54:02Z</time>
      </trkpt>
      <trkpt lat="43.97955" lon="0.2511">
        <ele>155.2</ele>
        <time>2022-09-20T09:54:07Z</time>
      </trkpt>
      <trkpt lat="43.97957" lon="0.25102">
        <ele>155.1</ele>
        <time>2022-09-20T09:54:12Z</time>
      </trkpt>
      <trkpt lat="43.97959" lon="0.25096">
        <ele>155.5</ele>
        <time>2022-09-20T09:54:17Z</time>
      </trkpt>
      <trkpt lat="43.97961" lon="0.25089">
        <ele>155.8</ele>
        <time>2022-09-20T09:54:22Z</time>
      </trkpt>
      <trkpt lat="43.97963" lon="0.25082">
        <ele>155.7</ele>
        <time>2022-09-20T09:54:27Z</time>
      </trkpt>
      <trkpt lat="43.97966" lon="0.25074">
        <ele>155.5</ele>
        <time>2022-09-20T09:54:31Z</time>
      </trkpt>
      <trkpt lat="43.97968" lon="0.25067">
        <ele>155.6</ele>
        <time>2022-09-20T09:54:35Z</time>
      </trkpt>
      <trkpt lat="43.9797" lon="0.2506">
        <ele>155.7</ele>
        <time>2022-09-20T09:54:39Z</time>
      </trkpt>
      <trkpt lat="43.97972" lon="0.25054">
        <ele>156.4</ele>
        <time>2022-09-20T09:54:44Z</time>
      </trkpt>
      <trkpt lat="43.97973" lon="0.25047">
        <ele>157</ele>
        <time>2022-09-20T09:54:49Z</time>
      </trkpt>
      <trkpt lat="43.97975" lon="0.2504">
        <ele>157.6</ele>
        <time>2022-09-20T09:54:53Z</time>
      </trkpt>
      <trkpt lat="43.97976" lon="0.25033">
        <ele>158.3</ele>
        <time>2022-09-20T09:54:57Z</time>
      </trkpt>
      <trkpt lat="43.97977" lon="0.25027">
        <ele>158.9</ele>
        <time>2022-09-20T09:55:02Z</time>
      </trkpt>
      <trkpt lat="43.97979" lon="0.2502">
        <ele>159.2</ele>
        <time>2022-09-20T09:55:07Z</time>
      </trkpt>
      <trkpt lat="43.97982" lon="0.25014">
        <ele>159.7</ele>
        <time>2022-09-20T09:55:12Z</time>
      </trkpt>
      <trkpt lat="43.97984" lon="0.25008">
        <ele>160.2</ele>
        <time>2022-09-20T09:55:17Z</time>
      </trkpt>
      <trkpt lat="43.97985" lon="0.25002">
        <ele>160.9</ele>
        <time>2022-09-20T09:55:22Z</time>
      </trkpt>
      <trkpt lat="43.97988" lon="0.24995">
        <ele>161.5</ele>
        <time>2022-09-20T09:55:26Z</time>
      </trkpt>
      <trkpt lat="43.97989" lon="0.24988">
        <ele>162</ele>
        <time>2022-09-20T09:55:29Z</time>
      </trkpt>
      <trkpt lat="43.9799" lon="0.24981">
        <ele>162.6</ele>
        <time>2022-09-20T09:55:33Z</time>
      </trkpt>
      <trkpt lat="43.97992" lon="0.24973">
        <ele>163</ele>
        <time>2022-09-20T09:55:38Z</time>
      </trkpt>
      <trkpt lat="43.97995" lon="0.24967">
        <ele>163.5</ele>
        <time>2022-09-20T09:55:42Z</time>
      </trkpt>
      <trkpt lat="43.97997" lon="0.24961">
        <ele>163.7</ele>
        <time>2022-09-20T09:55:46Z</time>
      </trkpt>
      <trkpt lat="43.97997" lon="0.24954">
        <ele>163.8</ele>
        <time>2022-09-20T09:55:50Z</time>
      </trkpt>
      <trkpt lat="43.97997" lon="0.24946">
        <ele>163.6</ele>
        <time>2022-09-20T09:55:54Z</time>
      </trkpt>
      <trkpt lat="43.97997" lon="0.24939">
        <ele>163.7</ele>
        <time>2022-09-20T09:55:58Z</time>
      </trkpt>
      <trkpt lat="43.97999" lon="0.24933">
        <ele>163.3</ele>
        <time>2022-09-20T09:56:04Z</time>
      </trkpt>
      <trkpt lat="43.98003" lon="0.2493">
        <ele>162.6</ele>
        <time>2022-09-20T09:56:09Z</time>
      </trkpt>
      <trkpt lat="43.98008" lon="0.24928">
        <ele>161.7</ele>
        <time>2022-09-20T09:56:14Z</time>
      </trkpt>
      <trkpt lat="43.98013" lon="0.24927">
        <ele>160.8</ele>
        <time>2022-09-20T09:56:20Z</time>
      </trkpt>
      <trkpt lat="43.98018" lon="0.24927">
        <ele>159.8</ele>
        <time>2022-09-20T09:56:25Z</time>
      </trkpt>
      <trkpt lat="43.98023" lon="0.24928">
        <ele>159.5</ele>
        <time>2022-09-20T09:56:29Z</time>
      </trkpt>
      <trkpt lat="43.98028" lon="0.2493">
        <ele>159.8</ele>
        <time>2022-09-20T09:56:34Z</time>
      </trkpt>
      <trkpt lat="43.98032" lon="0.24933">
        <ele>160.2</ele>
        <time>2022-09-20T09:56:38Z</time>
      </trkpt>
      <trkpt lat="43.98037" lon="0.24935">
        <ele>161.5</ele>
        <time>2022-09-20T09:56:44Z</time>
      </trkpt>
      <trkpt lat="43.98042" lon="0.24937">
        <ele>162.6</ele>
        <time>2022-09-20T09:56:50Z</time>
      </trkpt>
      <trkpt lat="43.98047" lon="0.24936">
        <ele>162.9</ele>
        <time>2022-09-20T09:56:56Z</time>
      </trkpt>
      <trkpt lat="43.98052" lon="0.24938">
        <ele>162.8</ele>
        <time>2022-09-20T09:57:01Z</time>
      </trkpt>
      <trkpt lat="43.98057" lon="0.24939">
        <ele>162.9</ele>
        <time>2022-09-20T09:57:06Z</time>
      </trkpt>
      <trkpt lat="43.98061" lon="0.24939">
        <ele>162.9</ele>
        <time>2022-09-20T09:57:10Z</time>
      </trkpt>
      <trkpt lat="43.98066" lon="0.2494">
        <ele>162.7</ele>
        <time>2022-09-20T09:57:15Z</time>
      </trkpt>
      <trkpt lat="43.98071" lon="0.24941">
        <ele>163.6</ele>
        <time>2022-09-20T09:57:21Z</time>
      </trkpt>
      <trkpt lat="43.98077" lon="0.24942">
        <ele>164.8</ele>
        <time>2022-09-20T09:57:26Z</time>
      </trkpt>
      <trkpt lat="43.98082" lon="0.24942">
        <ele>166.3</ele>
        <time>2022-09-20T09:57:31Z</time>
      </trkpt>
      <trkpt lat="43.98087" lon="0.24941">
        <ele>168</ele>
        <time>2022-09-20T09:57:37Z</time>
      </trkpt>
      <trkpt lat="43.98091" lon="0.2494">
        <ele>168.8</ele>
        <time>2022-09-20T09:57:43Z</time>
      </trkpt>
      <trkpt lat="43.98096" lon="0.24938">
        <ele>168.6</ele>
        <time>2022-09-20T09:57:49Z</time>
      </trkpt>
      <trkpt lat="43.981" lon="0.24932">
        <ele>168.7</ele>
        <time>2022-09-20T09:57:55Z</time>
      </trkpt>
      <trkpt lat="43.98101" lon="0.24926">
        <ele>169.3</ele>
        <time>2022-09-20T09:58:02Z</time>
      </trkpt>
      <trkpt lat="43.98103" lon="0.24919">
        <ele>169.1</ele>
        <time>2022-09-20T09:58:08Z</time>
      </trkpt>
      <trkpt lat="43.98105" lon="0.24912">
        <ele>168.5</ele>
        <time>2022-09-20T09:58:12Z</time>
      </trkpt>
      <trkpt lat="43.98106" lon="0.24905">
        <ele>167.5</ele>
        <time>2022-09-20T09:58:17Z</time>
      </trkpt>
      <trkpt lat="43.98107" lon="0.24898">
        <ele>166.8</ele>
        <time>2022-09-20T09:58:23Z</time>
      </trkpt>
      <trkpt lat="43.98108" lon="0.24892">
        <ele>166.4</ele>
        <time>2022-09-20T09:58:29Z</time>
      </trkpt>
      <trkpt lat="43.9811" lon="0.24886">
        <ele>166</ele>
        <time>2022-09-20T09:58:34Z</time>
      </trkpt>
      <trkpt lat="43.98111" lon="0.24879">
        <ele>165.9</ele>
        <time>2022-09-20T09:58:39Z</time>
      </trkpt>
      <trkpt lat="43.98113" lon="0.24873">
        <ele>166</ele>
        <time>2022-09-20T09:58:43Z</time>
      </trkpt>
      <trkpt lat="43.98116" lon="0.24868">
        <ele>165.5</ele>
        <time>2022-09-20T09:58:49Z</time>
      </trkpt>
      <trkpt lat="43.98119" lon="0.24862">
        <ele>165</ele>
        <time>2022-09-20T09:58:58Z</time>
      </trkpt>
      <trkpt lat="43.9812" lon="0.24854">
        <ele>165</ele>
        <time>2022-09-20T09:59:03Z</time>
      </trkpt>
      <trkpt lat="43.98121" lon="0.24847">
        <ele>165.1</ele>
        <time>2022-09-20T09:59:06Z</time>
      </trkpt>
      <trkpt lat="43.98121" lon="0.24841">
        <ele>165.2</ele>
        <time>2022-09-20T09:59:09Z</time>
      </trkpt>
      <trkpt lat="43.98121" lon="0.24833">
        <ele>165.6</ele>
        <time>2022-09-20T09:59:13Z</time>
      </trkpt>
      <trkpt lat="43.98121" lon="0.24827">
        <ele>166.1</ele>
        <time>2022-09-20T09:59:16Z</time>
      </trkpt>
      <trkpt lat="43.98122" lon="0.24819">
        <ele>166.7</ele>
        <time>2022-09-20T09:59:20Z</time>
      </trkpt>
      <trkpt lat="43.98123" lon="0.24813">
        <ele>167.2</ele>
        <time>2022-09-20T09:59:23Z</time>
      </trkpt>
      <trkpt lat="43.98125" lon="0.24806">
        <ele>167.8</ele>
        <time>2022-09-20T09:59:27Z</time>
      </trkpt>
      <trkpt lat="43.98129" lon="0.24801">
        <ele>168.1</ele>
        <time>2022-09-20T09:59:33Z</time>
      </trkpt>
      <trkpt lat="43.98132" lon="0.24796">
        <ele>167.8</ele>
        <time>2022-09-20T09:59:38Z</time>
      </trkpt>
      <trkpt lat="43.98134" lon="0.2479">
        <ele>167.1</ele>
        <time>2022-09-20T09:59:42Z</time>
      </trkpt>
      <trkpt lat="43.98136" lon="0.24783">
        <ele>166.2</ele>
        <time>2022-09-20T09:59:47Z</time>
      </trkpt>
      <trkpt lat="43.9814" lon="0.24777">
        <ele>165.9</ele>
        <time>2022-09-20T09:59:52Z</time>
      </trkpt>
      <trkpt lat="43.98144" lon="0.24773">
        <ele>165.6</ele>
        <time>2022-09-20T09:59:56Z</time>
      </trkpt>
      <trkpt lat="43.98146" lon="0.24766">
        <ele>165.5</ele>
        <time>2022-09-20T10:00:02Z</time>
      </trkpt>
      <trkpt lat="43.98147" lon="0.24759">
        <ele>165.7</ele>
        <time>2022-09-20T10:00:06Z</time>
      </trkpt>
      <trkpt lat="43.98147" lon="0.24752">
        <ele>166.3</ele>
        <time>2022-09-20T10:00:10Z</time>
      </trkpt>
      <trkpt lat="43.98148" lon="0.24745">
        <ele>166.8</ele>
        <time>2022-09-20T10:00:14Z</time>
      </trkpt>
      <trkpt lat="43.98151" lon="0.24739">
        <ele>167.2</ele>
        <time>2022-09-20T10:00:19Z</time>
      </trkpt>
      <trkpt lat="43.98154" lon="0.24733">
        <ele>166.7</ele>
        <time>2022-09-20T10:00:24Z</time>
      </trkpt>
      <trkpt lat="43.98153" lon="0.24726">
        <ele>165.8</ele>
        <time>2022-09-20T10:00:29Z</time>
      </trkpt>
      <trkpt lat="43.98154" lon="0.24719">
        <ele>164.8</ele>
        <time>2022-09-20T10:00:34Z</time>
      </trkpt>
      <trkpt lat="43.98156" lon="0.24713">
        <ele>164.2</ele>
        <time>2022-09-20T10:00:41Z</time>
      </trkpt>
      <trkpt lat="43.98156" lon="0.24705">
        <ele>164.1</ele>
        <time>2022-09-20T10:00:46Z</time>
      </trkpt>
      <trkpt lat="43.98156" lon="0.24698">
        <ele>163.9</ele>
        <time>2022-09-20T10:00:49Z</time>
      </trkpt>
      <trkpt lat="43.98157" lon="0.24691">
        <ele>163.8</ele>
        <time>2022-09-20T10:00:53Z</time>
      </trkpt>
      <trkpt lat="43.9816" lon="0.24685">
        <ele>163.5</ele>
        <time>2022-09-20T10:00:58Z</time>
      </trkpt>
      <trkpt lat="43.98161" lon="0.24678">
        <ele>163.1</ele>
        <time>2022-09-20T10:01:03Z</time>
      </trkpt>
      <trkpt lat="43.98161" lon="0.24671">
        <ele>162.6</ele>
        <time>2022-09-20T10:01:08Z</time>
      </trkpt>
      <trkpt lat="43.98161" lon="0.24664">
        <ele>162.4</ele>
        <time>2022-09-20T10:01:11Z</time>
      </trkpt>
      <trkpt lat="43.9816" lon="0.24658">
        <ele>162.3</ele>
        <time>2022-09-20T10:01:14Z</time>
      </trkpt>
      <trkpt lat="43.9816" lon="0.2465">
        <ele>162.6</ele>
        <time>2022-09-20T10:01:18Z</time>
      </trkpt>
      <trkpt lat="43.9816" lon="0.24643">
        <ele>163</ele>
        <time>2022-09-20T10:01:22Z</time>
      </trkpt>
      <trkpt lat="43.9816" lon="0.24636">
        <ele>163.3</ele>
        <time>2022-09-20T10:01:27Z</time>
      </trkpt>
      <trkpt lat="43.9816" lon="0.24628">
        <ele>163.5</ele>
        <time>2022-09-20T10:01:32Z</time>
      </trkpt>
      <trkpt lat="43.9816" lon="0.24621">
        <ele>163.3</ele>
        <time>2022-09-20T10:01:37Z</time>
      </trkpt>
      <trkpt lat="43.98162" lon="0.24614">
        <ele>163</ele>
        <time>2022-09-20T10:01:42Z</time>
      </trkpt>
      <trkpt lat="43.98164" lon="0.24607">
        <ele>162.8</ele>
        <time>2022-09-20T10:01:47Z</time>
      </trkpt>
      <trkpt lat="43.98165" lon="0.246">
        <ele>162.9</ele>
        <time>2022-09-20T10:01:52Z</time>
      </trkpt>
      <trkpt lat="43.98166" lon="0.24594">
        <ele>163.1</ele>
        <time>2022-09-20T10:01:56Z</time>
      </trkpt>
      <trkpt lat="43.98165" lon="0.24586">
        <ele>163.5</ele>
        <time>2022-09-20T10:02:00Z</time>
      </trkpt>
      <trkpt lat="43.98165" lon="0.2458">
        <ele>163.8</ele>
        <time>2022-09-20T10:02:04Z</time>
      </trkpt>
      <trkpt lat="43.98166" lon="0.24572">
        <ele>163.8</ele>
        <time>2022-09-20T10:02:08Z</time>
      </trkpt>
      <trkpt lat="43.98166" lon="0.24565">
        <ele>163.6</ele>
        <time>2022-09-20T10:02:12Z</time>
      </trkpt>
      <trkpt lat="43.98167" lon="0.24558">
        <ele>163.8</ele>
        <time>2022-09-20T10:02:16Z</time>
      </trkpt>
      <trkpt lat="43.98169" lon="0.24551">
        <ele>164</ele>
        <time>2022-09-20T10:02:21Z</time>
      </trkpt>
      <trkpt lat="43.98171" lon="0.24544">
        <ele>163.9</ele>
        <time>2022-09-20T10:02:25Z</time>
      </trkpt>
      <trkpt lat="43.98172" lon="0.24537">
        <ele>163.8</ele>
        <time>2022-09-20T10:02:29Z</time>
      </trkpt>
      <trkpt lat="43.98172" lon="0.24531">
        <ele>163.6</ele>
        <time>2022-09-20T10:02:33Z</time>
      </trkpt>
      <trkpt lat="43.98172" lon="0.24524">
        <ele>163.2</ele>
        <time>2022-09-20T10:02:37Z</time>
      </trkpt>
      <trkpt lat="43.98173" lon="0.24518">
        <ele>163</ele>
        <time>2022-09-20T10:02:42Z</time>
      </trkpt>
      <trkpt lat="43.98174" lon="0.24511">
        <ele>163.1</ele>
        <time>2022-09-20T10:02:46Z</time>
      </trkpt>
      <trkpt lat="43.98175" lon="0.24504">
        <ele>163.5</ele>
        <time>2022-09-20T10:02:50Z</time>
      </trkpt>
      <trkpt lat="43.98175" lon="0.24496">
        <ele>164.5</ele>
        <time>2022-09-20T10:02:54Z</time>
      </trkpt>
      <trkpt lat="43.98175" lon="0.2449">
        <ele>165.6</ele>
        <time>2022-09-20T10:02:57Z</time>
      </trkpt>
      <trkpt lat="43.98176" lon="0.24483">
        <ele>166.8</ele>
        <time>2022-09-20T10:03:01Z</time>
      </trkpt>
      <trkpt lat="43.98179" lon="0.24477">
        <ele>167.8</ele>
        <time>2022-09-20T10:03:06Z</time>
      </trkpt>
      <trkpt lat="43.98181" lon="0.24472">
        <ele>168.2</ele>
        <time>2022-09-20T10:03:10Z</time>
      </trkpt>
      <trkpt lat="43.98184" lon="0.24465">
        <ele>168.2</ele>
        <time>2022-09-20T10:03:15Z</time>
      </trkpt>
      <trkpt lat="43.98184" lon="0.24458">
        <ele>168.5</ele>
        <time>2022-09-20T10:03:19Z</time>
      </trkpt>
      <trkpt lat="43.98184" lon="0.24452">
        <ele>168.8</ele>
        <time>2022-09-20T10:03:25Z</time>
      </trkpt>
      <trkpt lat="43.98183" lon="0.24445">
        <ele>169.1</ele>
        <time>2022-09-20T10:03:29Z</time>
      </trkpt>
      <trkpt lat="43.98183" lon="0.24437">
        <ele>169.3</ele>
        <time>2022-09-20T10:03:34Z</time>
      </trkpt>
      <trkpt lat="43.98184" lon="0.24431">
        <ele>168.4</ele>
        <time>2022-09-20T10:03:39Z</time>
      </trkpt>
      <trkpt lat="43.98186" lon="0.24425">
        <ele>167.3</ele>
        <time>2022-09-20T10:03:44Z</time>
      </trkpt>
      <trkpt lat="43.98188" lon="0.24418">
        <ele>166.1</ele>
        <time>2022-09-20T10:03:50Z</time>
      </trkpt>
      <trkpt lat="43.98189" lon="0.24412">
        <ele>165</ele>
        <time>2022-09-20T10:03:54Z</time>
      </trkpt>
      <trkpt lat="43.9819" lon="0.24405">
        <ele>164.5</ele>
        <time>2022-09-20T10:03:58Z</time>
      </trkpt>
      <trkpt lat="43.98191" lon="0.24399">
        <ele>164.2</ele>
        <time>2022-09-20T10:04:03Z</time>
      </trkpt>
      <trkpt lat="43.98191" lon="0.24391">
        <ele>164.3</ele>
        <time>2022-09-20T10:04:08Z</time>
      </trkpt>
      <trkpt lat="43.98191" lon="0.24384">
        <ele>164.5</ele>
        <time>2022-09-20T10:04:12Z</time>
      </trkpt>
      <trkpt lat="43.9819" lon="0.24377">
        <ele>164.6</ele>
        <time>2022-09-20T10:04:16Z</time>
      </trkpt>
      <trkpt lat="43.9819" lon="0.2437">
        <ele>164.5</ele>
        <time>2022-09-20T10:04:21Z</time>
      </trkpt>
      <trkpt lat="43.98189" lon="0.24363">
        <ele>164.7</ele>
        <time>2022-09-20T10:04:25Z</time>
      </trkpt>
      <trkpt lat="43.98188" lon="0.24357">
        <ele>164.7</ele>
        <time>2022-09-20T10:04:29Z</time>
      </trkpt>
      <trkpt lat="43.98187" lon="0.2435">
        <ele>164.5</ele>
        <time>2022-09-20T10:04:33Z</time>
      </trkpt>
      <trkpt lat="43.98187" lon="0.24343">
        <ele>163.9</ele>
        <time>2022-09-20T10:04:37Z</time>
      </trkpt>
      <trkpt lat="43.98186" lon="0.24335">
        <ele>163.5</ele>
        <time>2022-09-20T10:04:41Z</time>
      </trkpt>
      <trkpt lat="43.98185" lon="0.24328">
        <ele>163</ele>
        <time>2022-09-20T10:04:45Z</time>
      </trkpt>
      <trkpt lat="43.98184" lon="0.24321">
        <ele>162.6</ele>
        <time>2022-09-20T10:04:50Z</time>
      </trkpt>
      <trkpt lat="43.98183" lon="0.24314">
        <ele>162.2</ele>
        <time>2022-09-20T10:04:56Z</time>
      </trkpt>
      <trkpt lat="43.98182" lon="0.24307">
        <ele>162.5</ele>
        <time>2022-09-20T10:05:01Z</time>
      </trkpt>
      <trkpt lat="43.98181" lon="0.24299">
        <ele>163.5</ele>
        <time>2022-09-20T10:05:06Z</time>
      </trkpt>
      <trkpt lat="43.9818" lon="0.24293">
        <ele>164</ele>
        <time>2022-09-20T10:05:10Z</time>
      </trkpt>
      <trkpt lat="43.98178" lon="0.24287">
        <ele>164.1</ele>
        <time>2022-09-20T10:05:14Z</time>
      </trkpt>
      <trkpt lat="43.98175" lon="0.24282">
        <ele>164</ele>
        <time>2022-09-20T10:05:18Z</time>
      </trkpt>
      <trkpt lat="43.98171" lon="0.24277">
        <ele>164.4</ele>
        <time>2022-09-20T10:05:23Z</time>
      </trkpt>
      <trkpt lat="43.98176" lon="0.24274">
        <ele>166.1</ele>
        <time>2022-09-20T10:05:58Z</time>
      </trkpt>
      <trkpt lat="43.9818" lon="0.24277">
        <ele>166.7</ele>
        <time>2022-09-20T10:06:02Z</time>
      </trkpt>
      <trkpt lat="43.98176" lon="0.24273">
        <ele>163.6</ele>
        <time>2022-09-20T10:06:43Z</time>
      </trkpt>
      <trkpt lat="43.98172" lon="0.2427">
        <ele>163.1</ele>
        <time>2022-09-20T10:06:49Z</time>
      </trkpt>
      <trkpt lat="43.9817" lon="0.24264">
        <ele>165.8</ele>
        <time>2022-09-20T10:10:04Z</time>
      </trkpt>
      <trkpt lat="43.98172" lon="0.24257">
        <ele>168.8</ele>
        <time>2022-09-20T10:10:11Z</time>
      </trkpt>
      <trkpt lat="43.98173" lon="0.2425">
        <ele>169.9</ele>
        <time>2022-09-20T10:10:17Z</time>
      </trkpt>
      <trkpt lat="43.98175" lon="0.24243">
        <ele>169.3</ele>
        <time>2022-09-20T10:10:22Z</time>
      </trkpt>
      <trkpt lat="43.98177" lon="0.24238">
        <ele>168.4</ele>
        <time>2022-09-20T10:10:26Z</time>
      </trkpt>
      <trkpt lat="43.9818" lon="0.24232">
        <ele>167.5</ele>
        <time>2022-09-20T10:10:31Z</time>
      </trkpt>
      <trkpt lat="43.98184" lon="0.24227">
        <ele>166.3</ele>
        <time>2022-09-20T10:10:37Z</time>
      </trkpt>
      <trkpt lat="43.98187" lon="0.24223">
        <ele>164.5</ele>
        <time>2022-09-20T10:10:42Z</time>
      </trkpt>
      <trkpt lat="43.9819" lon="0.24218">
        <ele>163.5</ele>
        <time>2022-09-20T10:10:46Z</time>
      </trkpt>
      <trkpt lat="43.98194" lon="0.24213">
        <ele>162.9</ele>
        <time>2022-09-20T10:10:51Z</time>
      </trkpt>
      <trkpt lat="43.98198" lon="0.24208">
        <ele>162.5</ele>
        <time>2022-09-20T10:10:56Z</time>
      </trkpt>
      <trkpt lat="43.98202" lon="0.24203">
        <ele>162.1</ele>
        <time>2022-09-20T10:11:01Z</time>
      </trkpt>
      <trkpt lat="43.98205" lon="0.24198">
        <ele>162</ele>
        <time>2022-09-20T10:11:05Z</time>
      </trkpt>
      <trkpt lat="43.98208" lon="0.24193">
        <ele>162.2</ele>
        <time>2022-09-20T10:11:09Z</time>
      </trkpt>
      <trkpt lat="43.98212" lon="0.24188">
        <ele>162.2</ele>
        <time>2022-09-20T10:11:14Z</time>
      </trkpt>
      <trkpt lat="43.98214" lon="0.24182">
        <ele>162.5</ele>
        <time>2022-09-20T10:11:19Z</time>
      </trkpt>
      <trkpt lat="43.98217" lon="0.24178">
        <ele>162.6</ele>
        <time>2022-09-20T10:11:23Z</time>
      </trkpt>
      <trkpt lat="43.98221" lon="0.24172">
        <ele>162.8</ele>
        <time>2022-09-20T10:11:28Z</time>
      </trkpt>
      <trkpt lat="43.98224" lon="0.24167">
        <ele>163.3</ele>
        <time>2022-09-20T10:11:32Z</time>
      </trkpt>
      <trkpt lat="43.98228" lon="0.24163">
        <ele>163.8</ele>
        <time>2022-09-20T10:11:36Z</time>
      </trkpt>
      <trkpt lat="43.98231" lon="0.24158">
        <ele>164.1</ele>
        <time>2022-09-20T10:11:41Z</time>
      </trkpt>
      <trkpt lat="43.98234" lon="0.24152">
        <ele>164.3</ele>
        <time>2022-09-20T10:11:45Z</time>
      </trkpt>
      <trkpt lat="43.98236" lon="0.24146">
        <ele>164.6</ele>
        <time>2022-09-20T10:11:50Z</time>
      </trkpt>
      <trkpt lat="43.98238" lon="0.24139">
        <ele>164.4</ele>
        <time>2022-09-20T10:11:55Z</time>
      </trkpt>
      <trkpt lat="43.9824" lon="0.24134">
        <ele>164.2</ele>
        <time>2022-09-20T10:11:59Z</time>
      </trkpt>
      <trkpt lat="43.98241" lon="0.24126">
        <ele>163.7</ele>
        <time>2022-09-20T10:12:03Z</time>
      </trkpt>
      <trkpt lat="43.98241" lon="0.2412">
        <ele>162.9</ele>
        <time>2022-09-20T10:12:07Z</time>
      </trkpt>
      <trkpt lat="43.98242" lon="0.24113">
        <ele>162.3</ele>
        <time>2022-09-20T10:12:12Z</time>
      </trkpt>
      <trkpt lat="43.98244" lon="0.24107">
        <ele>161.9</ele>
        <time>2022-09-20T10:12:16Z</time>
      </trkpt>
      <trkpt lat="43.98244" lon="0.241">
        <ele>161.5</ele>
        <time>2022-09-20T10:12:21Z</time>
      </trkpt>
      <trkpt lat="43.98247" lon="0.24093">
        <ele>161</ele>
        <time>2022-09-20T10:12:26Z</time>
      </trkpt>
      <trkpt lat="43.98249" lon="0.24087">
        <ele>160.4</ele>
        <time>2022-09-20T10:12:30Z</time>
      </trkpt>
      <trkpt lat="43.98251" lon="0.24081">
        <ele>159.6</ele>
        <time>2022-09-20T10:12:34Z</time>
      </trkpt>
      <trkpt lat="43.98252" lon="0.24073">
        <ele>158.8</ele>
        <time>2022-09-20T10:12:38Z</time>
      </trkpt>
      <trkpt lat="43.98253" lon="0.24065">
        <ele>158.2</ele>
        <time>2022-09-20T10:12:42Z</time>
      </trkpt>
      <trkpt lat="43.98255" lon="0.24059">
        <ele>157.3</ele>
        <time>2022-09-20T10:12:47Z</time>
      </trkpt>
      <trkpt lat="43.98256" lon="0.24052">
        <ele>156.3</ele>
        <time>2022-09-20T10:12:51Z</time>
      </trkpt>
      <trkpt lat="43.98257" lon="0.24045">
        <ele>155.6</ele>
        <time>2022-09-20T10:12:55Z</time>
      </trkpt>
      <trkpt lat="43.98257" lon="0.24038">
        <ele>154.8</ele>
        <time>2022-09-20T10:12:59Z</time>
      </trkpt>
      <trkpt lat="43.98259" lon="0.24032">
        <ele>154.2</ele>
        <time>2022-09-20T10:13:03Z</time>
      </trkpt>
      <trkpt lat="43.9826" lon="0.24026">
        <ele>153.7</ele>
        <time>2022-09-20T10:13:07Z</time>
      </trkpt>
      <trkpt lat="43.98262" lon="0.24019">
        <ele>152.8</ele>
        <time>2022-09-20T10:13:12Z</time>
      </trkpt>
      <trkpt lat="43.98264" lon="0.24013">
        <ele>152.1</ele>
        <time>2022-09-20T10:13:16Z</time>
      </trkpt>
      <trkpt lat="43.98265" lon="0.24005">
        <ele>152.2</ele>
        <time>2022-09-20T10:13:20Z</time>
      </trkpt>
      <trkpt lat="43.98267" lon="0.23998">
        <ele>152.5</ele>
        <time>2022-09-20T10:13:24Z</time>
      </trkpt>
      <trkpt lat="43.98269" lon="0.23992">
        <ele>152.8</ele>
        <time>2022-09-20T10:13:28Z</time>
      </trkpt>
      <trkpt lat="43.9827" lon="0.23986">
        <ele>153.2</ele>
        <time>2022-09-20T10:13:32Z</time>
      </trkpt>
      <trkpt lat="43.98272" lon="0.2398">
        <ele>153.8</ele>
        <time>2022-09-20T10:13:36Z</time>
      </trkpt>
      <trkpt lat="43.98274" lon="0.23975">
        <ele>154.6</ele>
        <time>2022-09-20T10:13:40Z</time>
      </trkpt>
      <trkpt lat="43.98276" lon="0.23968">
        <ele>155.6</ele>
        <time>2022-09-20T10:13:44Z</time>
      </trkpt>
      <trkpt lat="43.98278" lon="0.23962">
        <ele>156.6</ele>
        <time>2022-09-20T10:13:48Z</time>
      </trkpt>
      <trkpt lat="43.9828" lon="0.23956">
        <ele>156.8</ele>
        <time>2022-09-20T10:13:52Z</time>
      </trkpt>
      <trkpt lat="43.98281" lon="0.2395">
        <ele>156.9</ele>
        <time>2022-09-20T10:13:56Z</time>
      </trkpt>
      <trkpt lat="43.98284" lon="0.23943">
        <ele>156.9</ele>
        <time>2022-09-20T10:14:01Z</time>
      </trkpt>
      <trkpt lat="43.98286" lon="0.23936">
        <ele>156.8</ele>
        <time>2022-09-20T10:14:05Z</time>
      </trkpt>
      <trkpt lat="43.98287" lon="0.23929">
        <ele>157.1</ele>
        <time>2022-09-20T10:14:09Z</time>
      </trkpt>
      <trkpt lat="43.98288" lon="0.23921">
        <ele>157.7</ele>
        <time>2022-09-20T10:14:14Z</time>
      </trkpt>
      <trkpt lat="43.98289" lon="0.23915">
        <ele>158.1</ele>
        <time>2022-09-20T10:14:18Z</time>
      </trkpt>
      <trkpt lat="43.9829" lon="0.23908">
        <ele>158.5</ele>
        <time>2022-09-20T10:14:22Z</time>
      </trkpt>
      <trkpt lat="43.9829" lon="0.23901">
        <ele>158.7</ele>
        <time>2022-09-20T10:14:26Z</time>
      </trkpt>
      <trkpt lat="43.98293" lon="0.23895">
        <ele>158.9</ele>
        <time>2022-09-20T10:14:30Z</time>
      </trkpt>
      <trkpt lat="43.98295" lon="0.23889">
        <ele>159.1</ele>
        <time>2022-09-20T10:14:34Z</time>
      </trkpt>
      <trkpt lat="43.98297" lon="0.23883">
        <ele>159.6</ele>
        <time>2022-09-20T10:14:38Z</time>
      </trkpt>
      <trkpt lat="43.983" lon="0.23876">
        <ele>160.3</ele>
        <time>2022-09-20T10:14:43Z</time>
      </trkpt>
      <trkpt lat="43.98302" lon="0.2387">
        <ele>160.7</ele>
        <time>2022-09-20T10:14:47Z</time>
      </trkpt>
      <trkpt lat="43.98305" lon="0.23864">
        <ele>161.3</ele>
        <time>2022-09-20T10:14:52Z</time>
      </trkpt>
      <trkpt lat="43.98307" lon="0.23857">
        <ele>161.5</ele>
        <time>2022-09-20T10:14:58Z</time>
      </trkpt>
      <trkpt lat="43.98309" lon="0.23851">
        <ele>161.7</ele>
        <time>2022-09-20T10:15:04Z</time>
      </trkpt>
      <trkpt lat="43.98312" lon="0.23844">
        <ele>162.3</ele>
        <time>2022-09-20T10:15:09Z</time>
      </trkpt>
      <trkpt lat="43.98314" lon="0.23837">
        <ele>162.4</ele>
        <time>2022-09-20T10:15:14Z</time>
      </trkpt>
      <trkpt lat="43.98314" lon="0.2383">
        <ele>161.7</ele>
        <time>2022-09-20T10:15:19Z</time>
      </trkpt>
      <trkpt lat="43.98316" lon="0.23823">
        <ele>160.5</ele>
        <time>2022-09-20T10:15:25Z</time>
      </trkpt>
      <trkpt lat="43.98318" lon="0.23816">
        <ele>159.6</ele>
        <time>2022-09-20T10:15:30Z</time>
      </trkpt>
      <trkpt lat="43.9832" lon="0.23809">
        <ele>159</ele>
        <time>2022-09-20T10:15:34Z</time>
      </trkpt>
      <trkpt lat="43.98322" lon="0.23803">
        <ele>158.3</ele>
        <time>2022-09-20T10:15:39Z</time>
      </trkpt>
      <trkpt lat="43.98325" lon="0.23797">
        <ele>157.3</ele>
        <time>2022-09-20T10:15:45Z</time>
      </trkpt>
      <trkpt lat="43.98327" lon="0.2379">
        <ele>156.7</ele>
        <time>2022-09-20T10:15:51Z</time>
      </trkpt>
      <trkpt lat="43.98329" lon="0.23785">
        <ele>155.9</ele>
        <time>2022-09-20T10:15:55Z</time>
      </trkpt>
      <trkpt lat="43.98331" lon="0.23778">
        <ele>155</ele>
        <time>2022-09-20T10:15:59Z</time>
      </trkpt>
      <trkpt lat="43.98332" lon="0.2377">
        <ele>154.4</ele>
        <time>2022-09-20T10:16:03Z</time>
      </trkpt>
      <trkpt lat="43.98333" lon="0.23762">
        <ele>153.7</ele>
        <time>2022-09-20T10:16:07Z</time>
      </trkpt>
      <trkpt lat="43.98335" lon="0.23755">
        <ele>153.6</ele>
        <time>2022-09-20T10:16:11Z</time>
      </trkpt>
      <trkpt lat="43.98336" lon="0.23749">
        <ele>153.7</ele>
        <time>2022-09-20T10:16:15Z</time>
      </trkpt>
      <trkpt lat="43.98338" lon="0.23742">
        <ele>153.3</ele>
        <time>2022-09-20T10:16:20Z</time>
      </trkpt>
      <trkpt lat="43.98338" lon="0.23736">
        <ele>153</ele>
        <time>2022-09-20T10:16:25Z</time>
      </trkpt>
      <trkpt lat="43.98337" lon="0.23729">
        <ele>152.8</ele>
        <time>2022-09-20T10:16:30Z</time>
      </trkpt>
      <trkpt lat="43.9834" lon="0.23724">
        <ele>152.2</ele>
        <time>2022-09-20T10:16:37Z</time>
      </trkpt>
      <trkpt lat="43.98342" lon="0.23717">
        <ele>151</ele>
        <time>2022-09-20T10:16:43Z</time>
      </trkpt>
      <trkpt lat="43.98344" lon="0.23711">
        <ele>150.2</ele>
        <time>2022-09-20T10:16:48Z</time>
      </trkpt>
      <trkpt lat="43.98347" lon="0.23705">
        <ele>149.3</ele>
        <time>2022-09-20T10:16:52Z</time>
      </trkpt>
      <trkpt lat="43.98351" lon="0.237">
        <ele>146.6</ele>
        <time>2022-09-20T10:16:58Z</time>
      </trkpt>
      <trkpt lat="43.98351" lon="0.23694">
        <ele>144.7</ele>
        <time>2022-09-20T10:17:02Z</time>
      </trkpt>
      <trkpt lat="43.98353" lon="0.23686">
        <ele>141.6</ele>
        <time>2022-09-20T10:17:07Z</time>
      </trkpt>
      <trkpt lat="43.98355" lon="0.2368">
        <ele>139.5</ele>
        <time>2022-09-20T10:17:11Z</time>
      </trkpt>
      <trkpt lat="43.98357" lon="0.23674">
        <ele>138.2</ele>
        <time>2022-09-20T10:17:15Z</time>
      </trkpt>
      <trkpt lat="43.9836" lon="0.23669">
        <ele>137.5</ele>
        <time>2022-09-20T10:17:19Z</time>
      </trkpt>
      <trkpt lat="43.98364" lon="0.23664">
        <ele>137.1</ele>
        <time>2022-09-20T10:17:23Z</time>
      </trkpt>
      <trkpt lat="43.98367" lon="0.2366">
        <ele>137</ele>
        <time>2022-09-20T10:17:27Z</time>
      </trkpt>
      <trkpt lat="43.98371" lon="0.23657">
        <ele>137.2</ele>
        <time>2022-09-20T10:17:31Z</time>
      </trkpt>
      <trkpt lat="43.98375" lon="0.23653">
        <ele>137.5</ele>
        <time>2022-09-20T10:17:35Z</time>
      </trkpt>
      <trkpt lat="43.98378" lon="0.23648">
        <ele>137.6</ele>
        <time>2022-09-20T10:17:39Z</time>
      </trkpt>
      <trkpt lat="43.98382" lon="0.23644">
        <ele>137.3</ele>
        <time>2022-09-20T10:17:43Z</time>
      </trkpt>
      <trkpt lat="43.98386" lon="0.23641">
        <ele>136.8</ele>
        <time>2022-09-20T10:17:48Z</time>
      </trkpt>
      <trkpt lat="43.98391" lon="0.23638">
        <ele>136.6</ele>
        <time>2022-09-20T10:17:52Z</time>
      </trkpt>
      <trkpt lat="43.98395" lon="0.23634">
        <ele>136.2</ele>
        <time>2022-09-20T10:17:57Z</time>
      </trkpt>
      <trkpt lat="43.98399" lon="0.2363">
        <ele>135.6</ele>
        <time>2022-09-20T10:18:02Z</time>
      </trkpt>
      <trkpt lat="43.98404" lon="0.23627">
        <ele>135.2</ele>
        <time>2022-09-20T10:18:06Z</time>
      </trkpt>
      <trkpt lat="43.98408" lon="0.23625">
        <ele>135.1</ele>
        <time>2022-09-20T10:18:10Z</time>
      </trkpt>
      <trkpt lat="43.98413" lon="0.23622">
        <ele>134.3</ele>
        <time>2022-09-20T10:18:15Z</time>
      </trkpt>
      <trkpt lat="43.98417" lon="0.2362">
        <ele>133.2</ele>
        <time>2022-09-20T10:18:20Z</time>
      </trkpt>
      <trkpt lat="43.98421" lon="0.23615">
        <ele>131.9</ele>
        <time>2022-09-20T10:18:26Z</time>
      </trkpt>
      <trkpt lat="43.98424" lon="0.2361">
        <ele>130</ele>
        <time>2022-09-20T10:18:31Z</time>
      </trkpt>
      <trkpt lat="43.98426" lon="0.23604">
        <ele>128.8</ele>
        <time>2022-09-20T10:18:34Z</time>
      </trkpt>
      <trkpt lat="43.98427" lon="0.23596">
        <ele>127.1</ele>
        <time>2022-09-20T10:18:38Z</time>
      </trkpt>
      <trkpt lat="43.98428" lon="0.23589">
        <ele>125.7</ele>
        <time>2022-09-20T10:18:42Z</time>
      </trkpt>
      <trkpt lat="43.9843" lon="0.23581">
        <ele>125</ele>
        <time>2022-09-20T10:18:46Z</time>
      </trkpt>
      <trkpt lat="43.98432" lon="0.23575">
        <ele>125.1</ele>
        <time>2022-09-20T10:18:51Z</time>
      </trkpt>
      <trkpt lat="43.98433" lon="0.23569">
        <ele>125.9</ele>
        <time>2022-09-20T10:18:56Z</time>
      </trkpt>
      <trkpt lat="43.98436" lon="0.23562">
        <ele>127.2</ele>
        <time>2022-09-20T10:19:01Z</time>
      </trkpt>
      <trkpt lat="43.98438" lon="0.23556">
        <ele>127.9</ele>
        <time>2022-09-20T10:19:05Z</time>
      </trkpt>
      <trkpt lat="43.98439" lon="0.2355">
        <ele>128.2</ele>
        <time>2022-09-20T10:19:09Z</time>
      </trkpt>
      <trkpt lat="43.98441" lon="0.23543">
        <ele>128.5</ele>
        <time>2022-09-20T10:19:14Z</time>
      </trkpt>
      <trkpt lat="43.98443" lon="0.23536">
        <ele>127.5</ele>
        <time>2022-09-20T10:19:20Z</time>
      </trkpt>
      <trkpt lat="43.98444" lon="0.23529">
        <ele>126.5</ele>
        <time>2022-09-20T10:19:25Z</time>
      </trkpt>
      <trkpt lat="43.98445" lon="0.23523">
        <ele>126.3</ele>
        <time>2022-09-20T10:19:30Z</time>
      </trkpt>
      <trkpt lat="43.98446" lon="0.23517">
        <ele>126.1</ele>
        <time>2022-09-20T10:19:35Z</time>
      </trkpt>
      <trkpt lat="43.98449" lon="0.23512">
        <ele>125.5</ele>
        <time>2022-09-20T10:19:40Z</time>
      </trkpt>
      <trkpt lat="43.98449" lon="0.23504">
        <ele>124.1</ele>
        <time>2022-09-20T10:19:44Z</time>
      </trkpt>
      <trkpt lat="43.98449" lon="0.23497">
        <ele>122.8</ele>
        <time>2022-09-20T10:19:48Z</time>
      </trkpt>
      <trkpt lat="43.9845" lon="0.2349">
        <ele>122.3</ele>
        <time>2022-09-20T10:19:54Z</time>
      </trkpt>
      <trkpt lat="43.98451" lon="0.23483">
        <ele>122</ele>
        <time>2022-09-20T10:19:59Z</time>
      </trkpt>
      <trkpt lat="43.98453" lon="0.23477">
        <ele>121.9</ele>
        <time>2022-09-20T10:20:04Z</time>
      </trkpt>
      <trkpt lat="43.98453" lon="0.23469">
        <ele>121.9</ele>
        <time>2022-09-20T10:20:09Z</time>
      </trkpt>
      <trkpt lat="43.98453" lon="0.23463">
        <ele>121.8</ele>
        <time>2022-09-20T10:20:13Z</time>
      </trkpt>
      <trkpt lat="43.98453" lon="0.23455">
        <ele>120.8</ele>
        <time>2022-09-20T10:20:17Z</time>
      </trkpt>
      <trkpt lat="43.98456" lon="0.23449">
        <ele>119.1</ele>
        <time>2022-09-20T10:20:22Z</time>
      </trkpt>
      <trkpt lat="43.98457" lon="0.23442">
        <ele>118.1</ele>
        <time>2022-09-20T10:20:28Z</time>
      </trkpt>
      <trkpt lat="43.98461" lon="0.2344">
        <ele>118.9</ele>
        <time>2022-09-20T10:22:12Z</time>
      </trkpt>
      <trkpt lat="43.98466" lon="0.2344">
        <ele>118.4</ele>
        <time>2022-09-20T10:22:17Z</time>
      </trkpt>
      <trkpt lat="43.9847" lon="0.23443">
        <ele>117.9</ele>
        <time>2022-09-20T10:22:22Z</time>
      </trkpt>
      <trkpt lat="43.98475" lon="0.23447">
        <ele>117.7</ele>
        <time>2022-09-20T10:22:27Z</time>
      </trkpt>
      <trkpt lat="43.9848" lon="0.23448">
        <ele>117.1</ele>
        <time>2022-09-20T10:22:33Z</time>
      </trkpt>
      <trkpt lat="43.98485" lon="0.23449">
        <ele>116.1</ele>
        <time>2022-09-20T10:22:38Z</time>
      </trkpt>
      <trkpt lat="43.9849" lon="0.23448">
        <ele>115.2</ele>
        <time>2022-09-20T10:22:43Z</time>
      </trkpt>
      <trkpt lat="43.98495" lon="0.23446">
        <ele>114.2</ele>
        <time>2022-09-20T10:22:48Z</time>
      </trkpt>
      <trkpt lat="43.98501" lon="0.23444">
        <ele>112.1</ele>
        <time>2022-09-20T10:22:57Z</time>
      </trkpt>
      <trkpt lat="43.98505" lon="0.23441">
        <ele>111.4</ele>
        <time>2022-09-20T10:23:00Z</time>
      </trkpt>
      <trkpt lat="43.9851" lon="0.23438">
        <ele>110.6</ele>
        <time>2022-09-20T10:23:03Z</time>
      </trkpt>
      <trkpt lat="43.98514" lon="0.23435">
        <ele>109.9</ele>
        <time>2022-09-20T10:23:06Z</time>
      </trkpt>
      <trkpt lat="43.98519" lon="0.2343">
        <ele>109.4</ele>
        <time>2022-09-20T10:23:10Z</time>
      </trkpt>
      <trkpt lat="43.98522" lon="0.23425">
        <ele>109.2</ele>
        <time>2022-09-20T10:23:14Z</time>
      </trkpt>
      <trkpt lat="43.98527" lon="0.23422">
        <ele>109.2</ele>
        <time>2022-09-20T10:23:18Z</time>
      </trkpt>
      <trkpt lat="43.98532" lon="0.23419">
        <ele>109.3</ele>
        <time>2022-09-20T10:23:21Z</time>
      </trkpt>
      <trkpt lat="43.98536" lon="0.23416">
        <ele>109.1</ele>
        <time>2022-09-20T10:23:25Z</time>
      </trkpt>
      <trkpt lat="43.9854" lon="0.23414">
        <ele>109.5</ele>
        <time>2022-09-20T10:23:33Z</time>
      </trkpt>
      <trkpt lat="43.98544" lon="0.2341">
        <ele>110</ele>
        <time>2022-09-20T10:23:39Z</time>
      </trkpt>
      <trkpt lat="43.98549" lon="0.23406">
        <ele>110.2</ele>
        <time>2022-09-20T10:23:44Z</time>
      </trkpt>
      <trkpt lat="43.98553" lon="0.23403">
        <ele>110.3</ele>
        <time>2022-09-20T10:23:48Z</time>
      </trkpt>
      <trkpt lat="43.98557" lon="0.23399">
        <ele>110.5</ele>
        <time>2022-09-20T10:23:53Z</time>
      </trkpt>
      <trkpt lat="43.98561" lon="0.23397">
        <ele>109.9</ele>
        <time>2022-09-20T10:23:58Z</time>
      </trkpt>
      <trkpt lat="43.98566" lon="0.23396">
        <ele>109.2</ele>
        <time>2022-09-20T10:24:03Z</time>
      </trkpt>
      <trkpt lat="43.9857" lon="0.23396">
        <ele>108.4</ele>
        <time>2022-09-20T10:24:07Z</time>
      </trkpt>
      <trkpt lat="43.98576" lon="0.23394">
        <ele>106.8</ele>
        <time>2022-09-20T10:24:12Z</time>
      </trkpt>
      <trkpt lat="43.9858" lon="0.23394">
        <ele>105.1</ele>
        <time>2022-09-20T10:24:16Z</time>
      </trkpt>
      <trkpt lat="43.98585" lon="0.23393">
        <ele>103.4</ele>
        <time>2022-09-20T10:24:21Z</time>
      </trkpt>
      <trkpt lat="43.9859" lon="0.23393">
        <ele>102.6</ele>
        <time>2022-09-20T10:24:25Z</time>
      </trkpt>
      <trkpt lat="43.98596" lon="0.23395">
        <ele>102</ele>
        <time>2022-09-20T10:24:29Z</time>
      </trkpt>
      <trkpt lat="43.98601" lon="0.23395">
        <ele>101.9</ele>
        <time>2022-09-20T10:24:33Z</time>
      </trkpt>
      <trkpt lat="43.98607" lon="0.23395">
        <ele>101.8</ele>
        <time>2022-09-20T10:24:37Z</time>
      </trkpt>
      <trkpt lat="43.98613" lon="0.23394">
        <ele>101.4</ele>
        <time>2022-09-20T10:24:41Z</time>
      </trkpt>
      <trkpt lat="43.98617" lon="0.23393">
        <ele>101.2</ele>
        <time>2022-09-20T10:24:45Z</time>
      </trkpt>
      <trkpt lat="43.98622" lon="0.2339">
        <ele>100.4</ele>
        <time>2022-09-20T10:24:50Z</time>
      </trkpt>
      <trkpt lat="43.98627" lon="0.2339">
        <ele>99.2</ele>
        <time>2022-09-20T10:24:54Z</time>
      </trkpt>
      <trkpt lat="43.98632" lon="0.23389">
        <ele>97.3</ele>
        <time>2022-09-20T10:24:58Z</time>
      </trkpt>
      <trkpt lat="43.98637" lon="0.23388">
        <ele>95.9</ele>
        <time>2022-09-20T10:25:01Z</time>
      </trkpt>
      <trkpt lat="43.98643" lon="0.23386">
        <ele>94.6</ele>
        <time>2022-09-20T10:25:04Z</time>
      </trkpt>
      <trkpt lat="43.98648" lon="0.23386">
        <ele>93.5</ele>
        <time>2022-09-20T10:25:07Z</time>
      </trkpt>
      <trkpt lat="43.98652" lon="0.23385">
        <ele>92.2</ele>
        <time>2022-09-20T10:25:10Z</time>
      </trkpt>
      <trkpt lat="43.98657" lon="0.23384">
        <ele>91.3</ele>
        <time>2022-09-20T10:25:14Z</time>
      </trkpt>
      <trkpt lat="43.98662" lon="0.23385">
        <ele>91.1</ele>
        <time>2022-09-20T10:25:18Z</time>
      </trkpt>
      <trkpt lat="43.98667" lon="0.23385">
        <ele>91.3</ele>
        <time>2022-09-20T10:25:22Z</time>
      </trkpt>
      <trkpt lat="43.98671" lon="0.23381">
        <ele>91.6</ele>
        <time>2022-09-20T10:25:26Z</time>
      </trkpt>
      <trkpt lat="43.98675" lon="0.23376">
        <ele>91.7</ele>
        <time>2022-09-20T10:25:30Z</time>
      </trkpt>
      <trkpt lat="43.98679" lon="0.23372">
        <ele>91.3</ele>
        <time>2022-09-20T10:25:34Z</time>
      </trkpt>
      <trkpt lat="43.98682" lon="0.23368">
        <ele>90.2</ele>
        <time>2022-09-20T10:25:38Z</time>
      </trkpt>
      <trkpt lat="43.98686" lon="0.23363">
        <ele>89.1</ele>
        <time>2022-09-20T10:25:42Z</time>
      </trkpt>
      <trkpt lat="43.98689" lon="0.23358">
        <ele>88</ele>
        <time>2022-09-20T10:25:47Z</time>
      </trkpt>
      <trkpt lat="43.98693" lon="0.23352">
        <ele>87.7</ele>
        <time>2022-09-20T10:25:52Z</time>
      </trkpt>
      <trkpt lat="43.98695" lon="0.23346">
        <ele>87.9</ele>
        <time>2022-09-20T10:25:56Z</time>
      </trkpt>
      <trkpt lat="43.98697" lon="0.2334">
        <ele>88.2</ele>
        <time>2022-09-20T10:26:00Z</time>
      </trkpt>
      <trkpt lat="43.98699" lon="0.23333">
        <ele>88.4</ele>
        <time>2022-09-20T10:26:04Z</time>
      </trkpt>
      <trkpt lat="43.98702" lon="0.23327">
        <ele>89.2</ele>
        <time>2022-09-20T10:26:09Z</time>
      </trkpt>
      <trkpt lat="43.98706" lon="0.23323">
        <ele>89.6</ele>
        <time>2022-09-20T10:26:15Z</time>
      </trkpt>
      <trkpt lat="43.98711" lon="0.23322">
        <ele>89.2</ele>
        <time>2022-09-20T10:26:19Z</time>
      </trkpt>
      <trkpt lat="43.98716" lon="0.23322">
        <ele>88.8</ele>
        <time>2022-09-20T10:26:23Z</time>
      </trkpt>
      <trkpt lat="43.98721" lon="0.23323">
        <ele>88.6</ele>
        <time>2022-09-20T10:26:27Z</time>
      </trkpt>
      <trkpt lat="43.98726" lon="0.23324">
        <ele>88.7</ele>
        <time>2022-09-20T10:26:31Z</time>
      </trkpt>
      <trkpt lat="43.98732" lon="0.23326">
        <ele>89</ele>
        <time>2022-09-20T10:26:35Z</time>
      </trkpt>
      <trkpt lat="43.98736" lon="0.23327">
        <ele>89.3</ele>
        <time>2022-09-20T10:26:39Z</time>
      </trkpt>
      <trkpt lat="43.98741" lon="0.23328">
        <ele>89.6</ele>
        <time>2022-09-20T10:26:43Z</time>
      </trkpt>
      <trkpt lat="43.98746" lon="0.23329">
        <ele>89.8</ele>
        <time>2022-09-20T10:26:48Z</time>
      </trkpt>
      <trkpt lat="43.98751" lon="0.23329">
        <ele>89.6</ele>
        <time>2022-09-20T10:26:53Z</time>
      </trkpt>
      <trkpt lat="43.98757" lon="0.23329">
        <ele>89.3</ele>
        <time>2022-09-20T10:26:57Z</time>
      </trkpt>
      <trkpt lat="43.98761" lon="0.2333">
        <ele>89.2</ele>
        <time>2022-09-20T10:27:01Z</time>
      </trkpt>
      <trkpt lat="43.98766" lon="0.23331">
        <ele>88.9</ele>
        <time>2022-09-20T10:27:05Z</time>
      </trkpt>
      <trkpt lat="43.98771" lon="0.23331">
        <ele>88.8</ele>
        <time>2022-09-20T10:27:09Z</time>
      </trkpt>
      <trkpt lat="43.98776" lon="0.23333">
        <ele>88.8</ele>
        <time>2022-09-20T10:27:13Z</time>
      </trkpt>
      <trkpt lat="43.98781" lon="0.23333">
        <ele>89.3</ele>
        <time>2022-09-20T10:27:18Z</time>
      </trkpt>
      <trkpt lat="43.98787" lon="0.23334">
        <ele>90.2</ele>
        <time>2022-09-20T10:27:22Z</time>
      </trkpt>
      <trkpt lat="43.98792" lon="0.23334">
        <ele>91</ele>
        <time>2022-09-20T10:27:26Z</time>
      </trkpt>
      <trkpt lat="43.98798" lon="0.23333">
        <ele>91.9</ele>
        <time>2022-09-20T10:27:30Z</time>
      </trkpt>
      <trkpt lat="43.98803" lon="0.23331">
        <ele>92.7</ele>
        <time>2022-09-20T10:27:33Z</time>
      </trkpt>
      <trkpt lat="43.98808" lon="0.2333">
        <ele>93.6</ele>
        <time>2022-09-20T10:27:36Z</time>
      </trkpt>
      <trkpt lat="43.98813" lon="0.23329">
        <ele>94.2</ele>
        <time>2022-09-20T10:27:40Z</time>
      </trkpt>
      <trkpt lat="43.98818" lon="0.23328">
        <ele>94.5</ele>
        <time>2022-09-20T10:27:44Z</time>
      </trkpt>
      <trkpt lat="43.98823" lon="0.23326">
        <ele>94.2</ele>
        <time>2022-09-20T10:27:48Z</time>
      </trkpt>
      <trkpt lat="43.98828" lon="0.23324">
        <ele>94.1</ele>
        <time>2022-09-20T10:27:52Z</time>
      </trkpt>
      <trkpt lat="43.98832" lon="0.23321">
        <ele>93.7</ele>
        <time>2022-09-20T10:27:56Z</time>
      </trkpt>
      <trkpt lat="43.98837" lon="0.23318">
        <ele>93.2</ele>
        <time>2022-09-20T10:28:00Z</time>
      </trkpt>
      <trkpt lat="43.98841" lon="0.23314">
        <ele>92.9</ele>
        <time>2022-09-20T10:28:04Z</time>
      </trkpt>
      <trkpt lat="43.98847" lon="0.23311">
        <ele>92.7</ele>
        <time>2022-09-20T10:28:09Z</time>
      </trkpt>
      <trkpt lat="43.98851" lon="0.23308">
        <ele>92.3</ele>
        <time>2022-09-20T10:28:13Z</time>
      </trkpt>
      <trkpt lat="43.98856" lon="0.23308">
        <ele>91.8</ele>
        <time>2022-09-20T10:28:17Z</time>
      </trkpt>
      <trkpt lat="43.98861" lon="0.23306">
        <ele>91.1</ele>
        <time>2022-09-20T10:28:22Z</time>
      </trkpt>
      <trkpt lat="43.98866" lon="0.23307">
        <ele>90.4</ele>
        <time>2022-09-20T10:28:27Z</time>
      </trkpt>
      <trkpt lat="43.98871" lon="0.23307">
        <ele>90</ele>
        <time>2022-09-20T10:28:31Z</time>
      </trkpt>
      <trkpt lat="43.98876" lon="0.23307">
        <ele>89.7</ele>
        <time>2022-09-20T10:28:35Z</time>
      </trkpt>
      <trkpt lat="43.98881" lon="0.23307">
        <ele>89.5</ele>
        <time>2022-09-20T10:28:40Z</time>
      </trkpt>
      <trkpt lat="43.98886" lon="0.23305">
        <ele>88.5</ele>
        <time>2022-09-20T10:28:45Z</time>
      </trkpt>
      <trkpt lat="43.9889" lon="0.23301">
        <ele>87.1</ele>
        <time>2022-09-20T10:28:50Z</time>
      </trkpt>
      <trkpt lat="43.98893" lon="0.23294">
        <ele>85.3</ele>
        <time>2022-09-20T10:28:55Z</time>
      </trkpt>
      <trkpt lat="43.98896" lon="0.23287">
        <ele>83.9</ele>
        <time>2022-09-20T10:28:59Z</time>
      </trkpt>
      <trkpt lat="43.98898" lon="0.23281">
        <ele>81.7</ele>
        <time>2022-09-20T10:29:04Z</time>
      </trkpt>
      <trkpt lat="43.98901" lon="0.23275">
        <ele>79.8</ele>
        <time>2022-09-20T10:29:10Z</time>
      </trkpt>
      <trkpt lat="43.98903" lon="0.23268">
        <ele>78.8</ele>
        <time>2022-09-20T10:29:14Z</time>
      </trkpt>
      <trkpt lat="43.98904" lon="0.23261">
        <ele>77.9</ele>
        <time>2022-09-20T10:29:19Z</time>
      </trkpt>
      <trkpt lat="43.98907" lon="0.23255">
        <ele>77.1</ele>
        <time>2022-09-20T10:29:24Z</time>
      </trkpt>
      <trkpt lat="43.98908" lon="0.23249">
        <ele>76.1</ele>
        <time>2022-09-20T10:29:29Z</time>
      </trkpt>
      <trkpt lat="43.98909" lon="0.23243">
        <ele>75</ele>
        <time>2022-09-20T10:29:34Z</time>
      </trkpt>
      <trkpt lat="43.98911" lon="0.23236">
        <ele>74.3</ele>
        <time>2022-09-20T10:29:40Z</time>
      </trkpt>
      <trkpt lat="43.98914" lon="0.2323">
        <ele>74.4</ele>
        <time>2022-09-20T10:29:45Z</time>
      </trkpt>
      <trkpt lat="43.98915" lon="0.23223">
        <ele>74.7</ele>
        <time>2022-09-20T10:29:51Z</time>
      </trkpt>
      <trkpt lat="43.98916" lon="0.23216">
        <ele>74.6</ele>
        <time>2022-09-20T10:29:56Z</time>
      </trkpt>
      <trkpt lat="43.98918" lon="0.2321">
        <ele>74.2</ele>
        <time>2022-09-20T10:30:01Z</time>
      </trkpt>
      <trkpt lat="43.9892" lon="0.23204">
        <ele>74</ele>
        <time>2022-09-20T10:30:06Z</time>
      </trkpt>
      <trkpt lat="43.98922" lon="0.23198">
        <ele>73.7</ele>
        <time>2022-09-20T10:30:11Z</time>
      </trkpt>
      <trkpt lat="43.98926" lon="0.23194">
        <ele>73.3</ele>
        <time>2022-09-20T10:30:15Z</time>
      </trkpt>
      <trkpt lat="43.98931" lon="0.23192">
        <ele>73.1</ele>
        <time>2022-09-20T10:30:20Z</time>
      </trkpt>
      <trkpt lat="43.98937" lon="0.23192">
        <ele>73.1</ele>
        <time>2022-09-20T10:30:25Z</time>
      </trkpt>
      <trkpt lat="43.98941" lon="0.23193">
        <ele>73</ele>
        <time>2022-09-20T10:30:29Z</time>
      </trkpt>
      <trkpt lat="43.98946" lon="0.23195">
        <ele>72.8</ele>
        <time>2022-09-20T10:30:34Z</time>
      </trkpt>
      <trkpt lat="43.9895" lon="0.23196">
        <ele>75.7</ele>
        <time>2022-09-20T10:33:47Z</time>
      </trkpt>
      <trkpt lat="43.98955" lon="0.23195">
        <ele>77.8</ele>
        <time>2022-09-20T10:33:53Z</time>
      </trkpt>
      <trkpt lat="43.9896" lon="0.23194">
        <ele>78.3</ele>
        <time>2022-09-20T10:33:59Z</time>
      </trkpt>
      <trkpt lat="43.98965" lon="0.23194">
        <ele>78.3</ele>
        <time>2022-09-20T10:34:05Z</time>
      </trkpt>
      <trkpt lat="43.98969" lon="0.23195">
        <ele>77.9</ele>
        <time>2022-09-20T10:34:10Z</time>
      </trkpt>
      <trkpt lat="43.98975" lon="0.23196">
        <ele>77.4</ele>
        <time>2022-09-20T10:34:15Z</time>
      </trkpt>
      <trkpt lat="43.9898" lon="0.23198">
        <ele>76.7</ele>
        <time>2022-09-20T10:34:20Z</time>
      </trkpt>
      <trkpt lat="43.98984" lon="0.23201">
        <ele>75.8</ele>
        <time>2022-09-20T10:34:26Z</time>
      </trkpt>
      <trkpt lat="43.98989" lon="0.23203">
        <ele>74.9</ele>
        <time>2022-09-20T10:34:33Z</time>
      </trkpt>
      <trkpt lat="43.98994" lon="0.23204">
        <ele>74.7</ele>
        <time>2022-09-20T10:34:37Z</time>
      </trkpt>
      <trkpt lat="43.98999" lon="0.23205">
        <ele>74.4</ele>
        <time>2022-09-20T10:34:41Z</time>
      </trkpt>
      <trkpt lat="43.99004" lon="0.23207">
        <ele>73.8</ele>
        <time>2022-09-20T10:34:45Z</time>
      </trkpt>
      <trkpt lat="43.99009" lon="0.23209">
        <ele>72.7</ele>
        <time>2022-09-20T10:34:49Z</time>
      </trkpt>
      <trkpt lat="43.99014" lon="0.23211">
        <ele>71.7</ele>
        <time>2022-09-20T10:34:53Z</time>
      </trkpt>
      <trkpt lat="43.99019" lon="0.23212">
        <ele>71.3</ele>
        <time>2022-09-20T10:34:57Z</time>
      </trkpt>
      <trkpt lat="43.99024" lon="0.23212">
        <ele>71.3</ele>
        <time>2022-09-20T10:35:01Z</time>
      </trkpt>
      <trkpt lat="43.99028" lon="0.23215">
        <ele>71.3</ele>
        <time>2022-09-20T10:35:05Z</time>
      </trkpt>
      <trkpt lat="43.99033" lon="0.23217">
        <ele>71.8</ele>
        <time>2022-09-20T10:35:09Z</time>
      </trkpt>
      <trkpt lat="43.99039" lon="0.23218">
        <ele>72.3</ele>
        <time>2022-09-20T10:35:13Z</time>
      </trkpt>
      <trkpt lat="43.99044" lon="0.23219">
        <ele>72.5</ele>
        <time>2022-09-20T10:35:17Z</time>
      </trkpt>
      <trkpt lat="43.99049" lon="0.23222">
        <ele>73.1</ele>
        <time>2022-09-20T10:35:22Z</time>
      </trkpt>
      <trkpt lat="43.99054" lon="0.23224">
        <ele>73.8</ele>
        <time>2022-09-20T10:35:27Z</time>
      </trkpt>
      <trkpt lat="43.99059" lon="0.23225">
        <ele>73.9</ele>
        <time>2022-09-20T10:35:31Z</time>
      </trkpt>
      <trkpt lat="43.99065" lon="0.23226">
        <ele>74.1</ele>
        <time>2022-09-20T10:35:35Z</time>
      </trkpt>
      <trkpt lat="43.9907" lon="0.23227">
        <ele>74.6</ele>
        <time>2022-09-20T10:35:39Z</time>
      </trkpt>
      <trkpt lat="43.99075" lon="0.23227">
        <ele>74.8</ele>
        <time>2022-09-20T10:35:43Z</time>
      </trkpt>
      <trkpt lat="43.9908" lon="0.23229">
        <ele>74.6</ele>
        <time>2022-09-20T10:35:48Z</time>
      </trkpt>
      <trkpt lat="43.99085" lon="0.23229">
        <ele>74.6</ele>
        <time>2022-09-20T10:35:52Z</time>
      </trkpt>
      <trkpt lat="43.9909" lon="0.23228">
        <ele>74.8</ele>
        <time>2022-09-20T10:35:56Z</time>
      </trkpt>
      <trkpt lat="43.99095" lon="0.23228">
        <ele>75.3</ele>
        <time>2022-09-20T10:36:00Z</time>
      </trkpt>
      <trkpt lat="43.991" lon="0.23227">
        <ele>75.6</ele>
        <time>2022-09-20T10:36:04Z</time>
      </trkpt>
      <trkpt lat="43.99105" lon="0.23227">
        <ele>76</ele>
        <time>2022-09-20T10:36:08Z</time>
      </trkpt>
      <trkpt lat="43.9911" lon="0.23228">
        <ele>76.3</ele>
        <time>2022-09-20T10:36:12Z</time>
      </trkpt>
      <trkpt lat="43.99115" lon="0.23226">
        <ele>76.6</ele>
        <time>2022-09-20T10:36:16Z</time>
      </trkpt>
      <trkpt lat="43.9912" lon="0.23224">
        <ele>76.2</ele>
        <time>2022-09-20T10:36:20Z</time>
      </trkpt>
      <trkpt lat="43.99124" lon="0.23224">
        <ele>76.2</ele>
        <time>2022-09-20T10:36:24Z</time>
      </trkpt>
      <trkpt lat="43.9913" lon="0.23223">
        <ele>76.1</ele>
        <time>2022-09-20T10:36:28Z</time>
      </trkpt>
      <trkpt lat="43.99135" lon="0.23222">
        <ele>76.1</ele>
        <time>2022-09-20T10:36:32Z</time>
      </trkpt>
      <trkpt lat="43.9914" lon="0.23221">
        <ele>76.5</ele>
        <time>2022-09-20T10:36:37Z</time>
      </trkpt>
      <trkpt lat="43.99145" lon="0.2322">
        <ele>77</ele>
        <time>2022-09-20T10:36:42Z</time>
      </trkpt>
      <trkpt lat="43.9915" lon="0.23217">
        <ele>77.4</ele>
        <time>2022-09-20T10:36:45Z</time>
      </trkpt>
      <trkpt lat="43.99155" lon="0.23214">
        <ele>77.4</ele>
        <time>2022-09-20T10:36:49Z</time>
      </trkpt>
      <trkpt lat="43.9916" lon="0.23213">
        <ele>77.3</ele>
        <time>2022-09-20T10:36:53Z</time>
      </trkpt>
      <trkpt lat="43.99165" lon="0.23213">
        <ele>77.4</ele>
        <time>2022-09-20T10:36:57Z</time>
      </trkpt>
      <trkpt lat="43.9917" lon="0.23212">
        <ele>77.8</ele>
        <time>2022-09-20T10:37:02Z</time>
      </trkpt>
      <trkpt lat="43.99176" lon="0.23212">
        <ele>78.1</ele>
        <time>2022-09-20T10:37:08Z</time>
      </trkpt>
      <trkpt lat="43.99181" lon="0.2321">
        <ele>77.8</ele>
        <time>2022-09-20T10:37:12Z</time>
      </trkpt>
      <trkpt lat="43.99186" lon="0.23208">
        <ele>77.1</ele>
        <time>2022-09-20T10:37:17Z</time>
      </trkpt>
      <trkpt lat="43.99191" lon="0.23206">
        <ele>76.6</ele>
        <time>2022-09-20T10:37:21Z</time>
      </trkpt>
      <trkpt lat="43.99195" lon="0.23204">
        <ele>76.1</ele>
        <time>2022-09-20T10:37:24Z</time>
      </trkpt>
      <trkpt lat="43.992" lon="0.23202">
        <ele>75.5</ele>
        <time>2022-09-20T10:37:28Z</time>
      </trkpt>
      <trkpt lat="43.99205" lon="0.23201">
        <ele>75.2</ele>
        <time>2022-09-20T10:37:32Z</time>
      </trkpt>
      <trkpt lat="43.9921" lon="0.232">
        <ele>75.1</ele>
        <time>2022-09-20T10:37:37Z</time>
      </trkpt>
      <trkpt lat="43.99215" lon="0.23198">
        <ele>74.9</ele>
        <time>2022-09-20T10:37:41Z</time>
      </trkpt>
      <trkpt lat="43.9922" lon="0.23197">
        <ele>74.5</ele>
        <time>2022-09-20T10:37:45Z</time>
      </trkpt>
      <trkpt lat="43.99225" lon="0.23197">
        <ele>74.6</ele>
        <time>2022-09-20T10:37:50Z</time>
      </trkpt>
      <trkpt lat="43.9923" lon="0.23195">
        <ele>75.1</ele>
        <time>2022-09-20T10:37:56Z</time>
      </trkpt>
      <trkpt lat="43.99233" lon="0.2319">
        <ele>75.7</ele>
        <time>2022-09-20T10:38:03Z</time>
      </trkpt>
      <trkpt lat="43.99234" lon="0.23183">
        <ele>76.3</ele>
        <time>2022-09-20T10:38:08Z</time>
      </trkpt>
      <trkpt lat="43.99236" lon="0.23178">
        <ele>77</ele>
        <time>2022-09-20T10:38:13Z</time>
      </trkpt>
      <trkpt lat="43.9924" lon="0.23173">
        <ele>77.2</ele>
        <time>2022-09-20T10:38:18Z</time>
      </trkpt>
      <trkpt lat="43.99242" lon="0.23167">
        <ele>77.6</ele>
        <time>2022-09-20T10:38:24Z</time>
      </trkpt>
      <trkpt lat="43.99244" lon="0.2316">
        <ele>77.6</ele>
        <time>2022-09-20T10:38:30Z</time>
      </trkpt>
      <trkpt lat="43.99244" lon="0.23154">
        <ele>77.5</ele>
        <time>2022-09-20T10:38:35Z</time>
      </trkpt>
      <trkpt lat="43.99243" lon="0.23147">
        <ele>77.1</ele>
        <time>2022-09-20T10:38:39Z</time>
      </trkpt>
      <trkpt lat="43.99244" lon="0.2314">
        <ele>76.7</ele>
        <time>2022-09-20T10:38:44Z</time>
      </trkpt>
      <trkpt lat="43.99246" lon="0.23135">
        <ele>76.1</ele>
        <time>2022-09-20T10:38:53Z</time>
      </trkpt>
      <trkpt lat="43.99251" lon="0.23135">
        <ele>75.6</ele>
        <time>2022-09-20T10:39:02Z</time>
      </trkpt>
      <trkpt lat="43.99258" lon="0.23138">
        <ele>76.1</ele>
        <time>2022-09-20T10:39:32Z</time>
      </trkpt>
      <trkpt lat="43.99254" lon="0.2314">
        <ele>76.6</ele>
        <time>2022-09-20T10:39:44Z</time>
      </trkpt>
      <trkpt lat="43.99249" lon="0.23142">
        <ele>75.5</ele>
        <time>2022-09-20T10:39:49Z</time>
      </trkpt>
      <trkpt lat="43.99245" lon="0.23138">
        <ele>74.2</ele>
        <time>2022-09-20T10:39:54Z</time>
      </trkpt>
      <trkpt lat="43.99244" lon="0.23132">
        <ele>73.4</ele>
        <time>2022-09-20T10:39:58Z</time>
      </trkpt>
      <trkpt lat="43.99244" lon="0.23126">
        <ele>73.1</ele>
        <time>2022-09-20T10:40:02Z</time>
      </trkpt>
      <trkpt lat="43.99244" lon="0.23119">
        <ele>72.9</ele>
        <time>2022-09-20T10:40:07Z</time>
      </trkpt>
      <trkpt lat="43.99243" lon="0.23113">
        <ele>72.9</ele>
        <time>2022-09-20T10:40:13Z</time>
      </trkpt>
      <trkpt lat="43.99246" lon="0.23108">
        <ele>72.8</ele>
        <time>2022-09-20T10:40:21Z</time>
      </trkpt>
      <trkpt lat="43.99246" lon="0.23101">
        <ele>72.7</ele>
        <time>2022-09-20T10:40:26Z</time>
      </trkpt>
      <trkpt lat="43.99247" lon="0.23094">
        <ele>72.7</ele>
        <time>2022-09-20T10:40:30Z</time>
      </trkpt>
      <trkpt lat="43.99247" lon="0.23087">
        <ele>73</ele>
        <time>2022-09-20T10:40:33Z</time>
      </trkpt>
      <trkpt lat="43.99247" lon="0.2308">
        <ele>73.4</ele>
        <time>2022-09-20T10:40:36Z</time>
      </trkpt>
      <trkpt lat="43.99248" lon="0.23071">
        <ele>73.6</ele>
        <time>2022-09-20T10:40:39Z</time>
      </trkpt>
      <trkpt lat="43.99248" lon="0.23065">
        <ele>73.6</ele>
        <time>2022-09-20T10:40:42Z</time>
      </trkpt>
      <trkpt lat="43.99248" lon="0.23057">
        <ele>73.9</ele>
        <time>2022-09-20T10:40:46Z</time>
      </trkpt>
      <trkpt lat="43.99252" lon="0.23053">
        <ele>74.3</ele>
        <time>2022-09-20T10:40:53Z</time>
      </trkpt>
      <trkpt lat="43.99255" lon="0.23048">
        <ele>73.1</ele>
        <time>2022-09-20T10:41:08Z</time>
      </trkpt>
      <trkpt lat="43.99255" lon="0.23041">
        <ele>72.5</ele>
        <time>2022-09-20T10:41:13Z</time>
      </trkpt>
      <trkpt lat="43.99255" lon="0.23035">
        <ele>71.5</ele>
        <time>2022-09-20T10:42:00Z</time>
      </trkpt>
      <trkpt lat="43.99257" lon="0.23029">
        <ele>69.8</ele>
        <time>2022-09-20T10:42:40Z</time>
      </trkpt>
      <trkpt lat="43.99256" lon="0.23022">
        <ele>70.2</ele>
        <time>2022-09-20T10:42:46Z</time>
      </trkpt>
      <trkpt lat="43.99256" lon="0.23014">
        <ele>70.6</ele>
        <time>2022-09-20T10:42:50Z</time>
      </trkpt>
      <trkpt lat="43.99255" lon="0.23008">
        <ele>70.5</ele>
        <time>2022-09-20T10:42:56Z</time>
      </trkpt>
      <trkpt lat="43.99252" lon="0.23002">
        <ele>70.1</ele>
        <time>2022-09-20T10:43:05Z</time>
      </trkpt>
      <trkpt lat="43.99247" lon="0.22992">
        <ele>70.2</ele>
        <time>2022-09-20T10:43:43Z</time>
      </trkpt>
      <trkpt lat="43.99245" lon="0.22986">
        <ele>72.6</ele>
        <time>2022-09-20T10:43:49Z</time>
      </trkpt>
      <trkpt lat="43.99242" lon="0.2298">
        <ele>76.8</ele>
        <time>2022-09-20T10:45:17Z</time>
      </trkpt>
      <trkpt lat="43.99238" lon="0.22978">
        <ele>74.4</ele>
        <time>2022-09-20T10:45:21Z</time>
      </trkpt>
      <trkpt lat="43.99242" lon="0.2298">
        <ele>72</ele>
        <time>2022-09-20T10:45:38Z</time>
      </trkpt>
      <trkpt lat="43.99239" lon="0.22976">
        <ele>74.2</ele>
        <time>2022-09-20T10:46:03Z</time>
      </trkpt>
      <trkpt lat="43.99236" lon="0.22971">
        <ele>74.8</ele>
        <time>2022-09-20T10:46:08Z</time>
      </trkpt>
      <trkpt lat="43.99236" lon="0.22965">
        <ele>75.1</ele>
        <time>2022-09-20T10:46:13Z</time>
      </trkpt>
      <trkpt lat="43.99236" lon="0.22958">
        <ele>75.6</ele>
        <time>2022-09-20T10:46:20Z</time>
      </trkpt>
      <trkpt lat="43.99234" lon="0.22951">
        <ele>78.1</ele>
        <time>2022-09-20T10:46:28Z</time>
      </trkpt>
      <trkpt lat="43.99236" lon="0.22945">
        <ele>81.1</ele>
        <time>2022-09-20T10:46:40Z</time>
      </trkpt>
      <trkpt lat="43.99237" lon="0.22938">
        <ele>81.2</ele>
        <time>2022-09-20T10:46:43Z</time>
      </trkpt>
      <trkpt lat="43.99238" lon="0.22931">
        <ele>80.3</ele>
        <time>2022-09-20T10:46:47Z</time>
      </trkpt>
      <trkpt lat="43.99238" lon="0.22924">
        <ele>79.2</ele>
        <time>2022-09-20T10:46:51Z</time>
      </trkpt>
      <trkpt lat="43.99239" lon="0.22916">
        <ele>78</ele>
        <time>2022-09-20T10:46:55Z</time>
      </trkpt>
      <trkpt lat="43.99239" lon="0.22909">
        <ele>77.2</ele>
        <time>2022-09-20T10:46:58Z</time>
      </trkpt>
      <trkpt lat="43.99241" lon="0.22903">
        <ele>76.5</ele>
        <time>2022-09-20T10:47:02Z</time>
      </trkpt>
      <trkpt lat="43.99244" lon="0.22898">
        <ele>76</ele>
        <time>2022-09-20T10:47:06Z</time>
      </trkpt>
      <trkpt lat="43.99247" lon="0.22891">
        <ele>75.5</ele>
        <time>2022-09-20T10:47:11Z</time>
      </trkpt>
      <trkpt lat="43.9925" lon="0.22886">
        <ele>75.4</ele>
        <time>2022-09-20T10:47:16Z</time>
      </trkpt>
      <trkpt lat="43.99253" lon="0.2288">
        <ele>75.7</ele>
        <time>2022-09-20T10:47:21Z</time>
      </trkpt>
      <trkpt lat="43.99255" lon="0.22873">
        <ele>75.6</ele>
        <time>2022-09-20T10:47:26Z</time>
      </trkpt>
      <trkpt lat="43.9926" lon="0.22869">
        <ele>75.7</ele>
        <time>2022-09-20T10:47:30Z</time>
      </trkpt>
      <trkpt lat="43.99264" lon="0.22868">
        <ele>75.7</ele>
        <time>2022-09-20T10:47:33Z</time>
      </trkpt>
      <trkpt lat="43.99269" lon="0.22866">
        <ele>75.5</ele>
        <time>2022-09-20T10:47:39Z</time>
      </trkpt>
      <trkpt lat="43.99274" lon="0.22865">
        <ele>74.5</ele>
        <time>2022-09-20T10:47:43Z</time>
      </trkpt>
      <trkpt lat="43.99279" lon="0.22863">
        <ele>73.9</ele>
        <time>2022-09-20T10:47:47Z</time>
      </trkpt>
      <trkpt lat="43.99283" lon="0.22861">
        <ele>73.9</ele>
        <time>2022-09-20T10:47:50Z</time>
      </trkpt>
      <trkpt lat="43.99285" lon="0.22854">
        <ele>74.4</ele>
        <time>2022-09-20T10:47:56Z</time>
      </trkpt>
      <trkpt lat="43.99281" lon="0.22848">
        <ele>74.7</ele>
        <time>2022-09-20T10:48:02Z</time>
      </trkpt>
      <trkpt lat="43.99279" lon="0.22842">
        <ele>74.7</ele>
        <time>2022-09-20T10:48:07Z</time>
      </trkpt>
      <trkpt lat="43.99279" lon="0.22835">
        <ele>73.8</ele>
        <time>2022-09-20T10:48:12Z</time>
      </trkpt>
      <trkpt lat="43.99275" lon="0.2283">
        <ele>72.5</ele>
        <time>2022-09-20T10:48:18Z</time>
      </trkpt>
      <trkpt lat="43.9927" lon="0.2283">
        <ele>71.6</ele>
        <time>2022-09-20T10:48:24Z</time>
      </trkpt>
      <trkpt lat="43.99266" lon="0.22832">
        <ele>71.7</ele>
        <time>2022-09-20T10:48:32Z</time>
      </trkpt>
      <trkpt lat="43.99261" lon="0.22834">
        <ele>73.7</ele>
        <time>2022-09-20T10:49:05Z</time>
      </trkpt>
      <trkpt lat="43.99257" lon="0.22837">
        <ele>73</ele>
        <time>2022-09-20T10:49:13Z</time>
      </trkpt>
      <trkpt lat="43.99261" lon="0.22833">
        <ele>77.5</ele>
        <time>2022-09-20T10:50:40Z</time>
      </trkpt>
      <trkpt lat="43.99262" lon="0.22839">
        <ele>76.8</ele>
        <time>2022-09-20T10:51:19Z</time>
      </trkpt>
      <trkpt lat="43.99262" lon="0.22832">
        <ele>77.1</ele>
        <time>2022-09-20T10:51:30Z</time>
      </trkpt>
    </trkseg>
  </trk>
</gpx>